<?xml version="1.0" encoding="UTF-8" standalone="no" ?>
<gpx xmlns="http://www.topografix.com/GPX/1/1" xmlns:xsi="http://www.w3.org/2001/XMLSchema-instance" xsi:schemaLocation="http://www.topografix.com/GPX/1/1 http://www.topografix.com/GPX/1/1/gpx.xsd" version="1.1" creator="VisuGPX - https://www.visugpx.com">
  <metadata>
    <name>lundi 2016 07 25</name>
    <desc><![CDATA[rando du lundi en groupe d'amis]]></desc>
  </metadata>
  <trk>
    <name><![CDATA[Lundi 2016 07 25]]></name>
    <trkseg>
      <trkpt lat="48.85746" lon="2.34724">
        <ele>40.400001525879</ele>
        <time>2016-07-25T18:24:24.000Z</time>
      </trkpt>
      <trkpt lat="48.85745" lon="2.34703">
        <ele>39.799999237061</ele>
        <time>2016-07-25T18:24:38.000Z</time>
      </trkpt>
      <trkpt lat="48.85723" lon="2.34697">
        <ele>40.599998474121</ele>
        <time>2016-07-25T18:25:10.000Z</time>
      </trkpt>
      <trkpt lat="48.85705" lon="2.34688">
        <ele>40.799999237061</ele>
        <time>2016-07-25T18:25:16.000Z</time>
      </trkpt>
      <trkpt lat="48.85688" lon="2.34677">
        <ele>41.200000762939</ele>
        <time>2016-07-25T18:25:21.000Z</time>
      </trkpt>
      <trkpt lat="48.8567" lon="2.34665">
        <ele>42.599998474121</ele>
        <time>2016-07-25T18:25:26.000Z</time>
      </trkpt>
      <trkpt lat="48.85652" lon="2.34652">
        <ele>44</ele>
        <time>2016-07-25T18:25:31.000Z</time>
      </trkpt>
      <trkpt lat="48.85636" lon="2.34641">
        <ele>45.400001525879</ele>
        <time>2016-07-25T18:25:36.000Z</time>
      </trkpt>
      <trkpt lat="48.85618" lon="2.34631">
        <ele>47</ele>
        <time>2016-07-25T18:25:42.000Z</time>
      </trkpt>
      <trkpt lat="48.856" lon="2.34617">
        <ele>48</ele>
        <time>2016-07-25T18:25:47.000Z</time>
      </trkpt>
      <trkpt lat="48.85582" lon="2.34604">
        <ele>47.799999237061</ele>
        <time>2016-07-25T18:25:52.000Z</time>
      </trkpt>
      <trkpt lat="48.85564" lon="2.34596">
        <ele>47.400001525879</ele>
        <time>2016-07-25T18:25:56.000Z</time>
      </trkpt>
      <trkpt lat="48.85546" lon="2.34583">
        <ele>47.200000762939</ele>
        <time>2016-07-25T18:26:00.000Z</time>
      </trkpt>
      <trkpt lat="48.8553" lon="2.34565">
        <ele>46.599998474121</ele>
        <time>2016-07-25T18:26:04.000Z</time>
      </trkpt>
      <trkpt lat="48.85511" lon="2.34549">
        <ele>45.400001525879</ele>
        <time>2016-07-25T18:26:08.000Z</time>
      </trkpt>
      <trkpt lat="48.8549" lon="2.34534">
        <ele>44.200000762939</ele>
        <time>2016-07-25T18:26:12.000Z</time>
      </trkpt>
      <trkpt lat="48.85473" lon="2.34518">
        <ele>43</ele>
        <time>2016-07-25T18:26:16.000Z</time>
      </trkpt>
      <trkpt lat="48.85454" lon="2.34503">
        <ele>41.799999237061</ele>
        <time>2016-07-25T18:26:20.000Z</time>
      </trkpt>
      <trkpt lat="48.85437" lon="2.34488">
        <ele>40.799999237061</ele>
        <time>2016-07-25T18:26:24.000Z</time>
      </trkpt>
      <trkpt lat="48.85424" lon="2.34472">
        <ele>41.200000762939</ele>
        <time>2016-07-25T18:26:28.000Z</time>
      </trkpt>
      <trkpt lat="48.85407" lon="2.34453">
        <ele>41.799999237061</ele>
        <time>2016-07-25T18:26:34.000Z</time>
      </trkpt>
      <trkpt lat="48.85392" lon="2.3444">
        <ele>42.400001525879</ele>
        <time>2016-07-25T18:26:41.000Z</time>
      </trkpt>
      <trkpt lat="48.85388" lon="2.34441">
        <ele>42.599998474121</ele>
        <time>2016-07-25T18:26:44.000Z</time>
      </trkpt>
      <trkpt lat="48.85379" lon="2.3442">
        <ele>42.599998474121</ele>
        <time>2016-07-25T18:27:28.000Z</time>
      </trkpt>
      <trkpt lat="48.85359" lon="2.34408">
        <ele>44</ele>
        <time>2016-07-25T18:27:33.000Z</time>
      </trkpt>
      <trkpt lat="48.85341" lon="2.34401">
        <ele>45</ele>
        <time>2016-07-25T18:27:37.000Z</time>
      </trkpt>
      <trkpt lat="48.85321" lon="2.34394">
        <ele>46.400001525879</ele>
        <time>2016-07-25T18:27:41.000Z</time>
      </trkpt>
      <trkpt lat="48.85303" lon="2.34385">
        <ele>47.799999237061</ele>
        <time>2016-07-25T18:27:45.000Z</time>
      </trkpt>
      <trkpt lat="48.85284" lon="2.34379">
        <ele>49.200000762939</ele>
        <time>2016-07-25T18:27:49.000Z</time>
      </trkpt>
      <trkpt lat="48.8527" lon="2.34376">
        <ele>50</ele>
        <time>2016-07-25T18:27:53.000Z</time>
      </trkpt>
      <trkpt lat="48.85255" lon="2.34372">
        <ele>50</ele>
        <time>2016-07-25T18:27:56.000Z</time>
      </trkpt>
      <trkpt lat="48.85236" lon="2.3436">
        <ele>49.799999237061</ele>
        <time>2016-07-25T18:28:00.000Z</time>
      </trkpt>
      <trkpt lat="48.85226" lon="2.34355">
        <ele>49.599998474121</ele>
        <time>2016-07-25T18:28:02.000Z</time>
      </trkpt>
      <trkpt lat="48.85206" lon="2.34345">
        <ele>49.400001525879</ele>
        <time>2016-07-25T18:28:06.000Z</time>
      </trkpt>
      <trkpt lat="48.85188" lon="2.34336">
        <ele>49</ele>
        <time>2016-07-25T18:28:10.000Z</time>
      </trkpt>
      <trkpt lat="48.85168" lon="2.34329">
        <ele>48.599998474121</ele>
        <time>2016-07-25T18:28:16.000Z</time>
      </trkpt>
      <trkpt lat="48.85159" lon="2.34326">
        <ele>48.400001525879</ele>
        <time>2016-07-25T18:28:21.000Z</time>
      </trkpt>
      <trkpt lat="48.85139" lon="2.34323">
        <ele>48</ele>
        <time>2016-07-25T18:28:39.000Z</time>
      </trkpt>
      <trkpt lat="48.8512" lon="2.34316">
        <ele>47.799999237061</ele>
        <time>2016-07-25T18:28:44.000Z</time>
      </trkpt>
      <trkpt lat="48.85108" lon="2.3431">
        <ele>47.599998474121</ele>
        <time>2016-07-25T18:28:47.000Z</time>
      </trkpt>
      <trkpt lat="48.8509" lon="2.34302">
        <ele>48.400001525879</ele>
        <time>2016-07-25T18:28:51.000Z</time>
      </trkpt>
      <trkpt lat="48.85072" lon="2.34294">
        <ele>49.400001525879</ele>
        <time>2016-07-25T18:28:55.000Z</time>
      </trkpt>
      <trkpt lat="48.85052" lon="2.34282">
        <ele>51</ele>
        <time>2016-07-25T18:29:00.000Z</time>
      </trkpt>
      <trkpt lat="48.85034" lon="2.34267">
        <ele>52.200000762939</ele>
        <time>2016-07-25T18:29:06.000Z</time>
      </trkpt>
      <trkpt lat="48.85029" lon="2.34265">
        <ele>52.599998474121</ele>
        <time>2016-07-25T18:29:10.000Z</time>
      </trkpt>
      <trkpt lat="48.85023" lon="2.34292">
        <ele>53.400001525879</ele>
        <time>2016-07-25T18:29:18.000Z</time>
      </trkpt>
      <trkpt lat="48.85015" lon="2.34316">
        <ele>54.200000762939</ele>
        <time>2016-07-25T18:29:24.000Z</time>
      </trkpt>
      <trkpt lat="48.85005" lon="2.34339">
        <ele>55</ele>
        <time>2016-07-25T18:29:29.000Z</time>
      </trkpt>
      <trkpt lat="48.84993" lon="2.34363">
        <ele>55.799999237061</ele>
        <time>2016-07-25T18:29:34.000Z</time>
      </trkpt>
      <trkpt lat="48.84986" lon="2.34391">
        <ele>56.200000762939</ele>
        <time>2016-07-25T18:29:39.000Z</time>
      </trkpt>
      <trkpt lat="48.84978" lon="2.34418">
        <ele>56.799999237061</ele>
        <time>2016-07-25T18:29:44.000Z</time>
      </trkpt>
      <trkpt lat="48.84974" lon="2.34448">
        <ele>57.400001525879</ele>
        <time>2016-07-25T18:29:50.000Z</time>
      </trkpt>
      <trkpt lat="48.84965" lon="2.34473">
        <ele>56.200000762939</ele>
        <time>2016-07-25T18:29:56.000Z</time>
      </trkpt>
      <trkpt lat="48.84957" lon="2.34505">
        <ele>54.799999237061</ele>
        <time>2016-07-25T18:30:02.000Z</time>
      </trkpt>
      <trkpt lat="48.84949" lon="2.34535">
        <ele>53.400001525879</ele>
        <time>2016-07-25T18:30:07.000Z</time>
      </trkpt>
      <trkpt lat="48.84943" lon="2.34566">
        <ele>51.799999237061</ele>
        <time>2016-07-25T18:30:12.000Z</time>
      </trkpt>
      <trkpt lat="48.84932" lon="2.34594">
        <ele>52</ele>
        <time>2016-07-25T18:30:17.000Z</time>
      </trkpt>
      <trkpt lat="48.84924" lon="2.34621">
        <ele>53.400001525879</ele>
        <time>2016-07-25T18:30:21.000Z</time>
      </trkpt>
      <trkpt lat="48.84919" lon="2.34652">
        <ele>54.599998474121</ele>
        <time>2016-07-25T18:30:25.000Z</time>
      </trkpt>
      <trkpt lat="48.84911" lon="2.3468">
        <ele>54.799999237061</ele>
        <time>2016-07-25T18:30:30.000Z</time>
      </trkpt>
      <trkpt lat="48.84899" lon="2.34708">
        <ele>55</ele>
        <time>2016-07-25T18:30:34.000Z</time>
      </trkpt>
      <trkpt lat="48.84892" lon="2.34736">
        <ele>55.599998474121</ele>
        <time>2016-07-25T18:30:39.000Z</time>
      </trkpt>
      <trkpt lat="48.84892" lon="2.3474">
        <ele>55.799999237061</ele>
        <time>2016-07-25T18:30:40.000Z</time>
      </trkpt>
      <trkpt lat="48.84886" lon="2.34766">
        <ele>55.599998474121</ele>
        <time>2016-07-25T18:30:44.000Z</time>
      </trkpt>
      <trkpt lat="48.84881" lon="2.34794">
        <ele>56.200000762939</ele>
        <time>2016-07-25T18:30:48.000Z</time>
      </trkpt>
      <trkpt lat="48.84872" lon="2.34826">
        <ele>58</ele>
        <time>2016-07-25T18:30:52.000Z</time>
      </trkpt>
      <trkpt lat="48.84863" lon="2.34856">
        <ele>58.200000762939</ele>
        <time>2016-07-25T18:30:56.000Z</time>
      </trkpt>
      <trkpt lat="48.84857" lon="2.34886">
        <ele>56.599998474121</ele>
        <time>2016-07-25T18:31:00.000Z</time>
      </trkpt>
      <trkpt lat="48.84846" lon="2.34919">
        <ele>54.799999237061</ele>
        <time>2016-07-25T18:31:04.000Z</time>
      </trkpt>
      <trkpt lat="48.84836" lon="2.34943">
        <ele>53.599998474121</ele>
        <time>2016-07-25T18:31:07.000Z</time>
      </trkpt>
      <trkpt lat="48.8483" lon="2.34986">
        <ele>51.400001525879</ele>
        <time>2016-07-25T18:31:10.000Z</time>
      </trkpt>
      <trkpt lat="48.84826" lon="2.34998">
        <ele>51</ele>
        <time>2016-07-25T18:31:11.000Z</time>
      </trkpt>
      <trkpt lat="48.84815" lon="2.35028">
        <ele>50</ele>
        <time>2016-07-25T18:31:15.000Z</time>
      </trkpt>
      <trkpt lat="48.84805" lon="2.35054">
        <ele>49</ele>
        <time>2016-07-25T18:31:19.000Z</time>
      </trkpt>
      <trkpt lat="48.84796" lon="2.35084">
        <ele>48</ele>
        <time>2016-07-25T18:31:23.000Z</time>
      </trkpt>
      <trkpt lat="48.84791" lon="2.3511">
        <ele>46.400001525879</ele>
        <time>2016-07-25T18:31:26.000Z</time>
      </trkpt>
      <trkpt lat="48.84784" lon="2.35138">
        <ele>44.599998474121</ele>
        <time>2016-07-25T18:31:29.000Z</time>
      </trkpt>
      <trkpt lat="48.84774" lon="2.35168">
        <ele>42.799999237061</ele>
        <time>2016-07-25T18:31:32.000Z</time>
      </trkpt>
      <trkpt lat="48.84765" lon="2.35202">
        <ele>42.400001525879</ele>
        <time>2016-07-25T18:31:36.000Z</time>
      </trkpt>
      <trkpt lat="48.84757" lon="2.35229">
        <ele>42.200000762939</ele>
        <time>2016-07-25T18:31:40.000Z</time>
      </trkpt>
      <trkpt lat="48.84753" lon="2.35251">
        <ele>42.400001525879</ele>
        <time>2016-07-25T18:31:45.000Z</time>
      </trkpt>
      <trkpt lat="48.84747" lon="2.35269">
        <ele>42</ele>
        <time>2016-07-25T18:31:49.000Z</time>
      </trkpt>
      <trkpt lat="48.84744" lon="2.35295">
        <ele>41.400001525879</ele>
        <time>2016-07-25T18:31:53.000Z</time>
      </trkpt>
      <trkpt lat="48.84738" lon="2.35327">
        <ele>40.200000762939</ele>
        <time>2016-07-25T18:31:57.000Z</time>
      </trkpt>
      <trkpt lat="48.84729" lon="2.35359">
        <ele>40.200000762939</ele>
        <time>2016-07-25T18:32:02.000Z</time>
      </trkpt>
      <trkpt lat="48.84716" lon="2.35379">
        <ele>40.799999237061</ele>
        <time>2016-07-25T18:32:06.000Z</time>
      </trkpt>
      <trkpt lat="48.84706" lon="2.35393">
        <ele>41.200000762939</ele>
        <time>2016-07-25T18:32:09.000Z</time>
      </trkpt>
      <trkpt lat="48.84693" lon="2.35415">
        <ele>41.799999237061</ele>
        <time>2016-07-25T18:32:14.000Z</time>
      </trkpt>
      <trkpt lat="48.84689" lon="2.3542">
        <ele>42</ele>
        <time>2016-07-25T18:32:15.000Z</time>
      </trkpt>
      <trkpt lat="48.84673" lon="2.35437">
        <ele>43.599998474121</ele>
        <time>2016-07-25T18:32:18.000Z</time>
      </trkpt>
      <trkpt lat="48.84656" lon="2.35455">
        <ele>45.200000762939</ele>
        <time>2016-07-25T18:32:21.000Z</time>
      </trkpt>
      <trkpt lat="48.84651" lon="2.35459">
        <ele>45.799999237061</ele>
        <time>2016-07-25T18:32:22.000Z</time>
      </trkpt>
      <trkpt lat="48.84632" lon="2.35464">
        <ele>46.799999237061</ele>
        <time>2016-07-25T18:32:25.000Z</time>
      </trkpt>
      <trkpt lat="48.84619" lon="2.35462">
        <ele>47.599998474121</ele>
        <time>2016-07-25T18:32:27.000Z</time>
      </trkpt>
      <trkpt lat="48.84597" lon="2.35462">
        <ele>48.599998474121</ele>
        <time>2016-07-25T18:32:31.000Z</time>
      </trkpt>
      <trkpt lat="48.84588" lon="2.35464">
        <ele>48.799999237061</ele>
        <time>2016-07-25T18:32:33.000Z</time>
      </trkpt>
      <trkpt lat="48.84567" lon="2.35469">
        <ele>49.200000762939</ele>
        <time>2016-07-25T18:32:38.000Z</time>
      </trkpt>
      <trkpt lat="48.84562" lon="2.3547">
        <ele>49.200000762939</ele>
        <time>2016-07-25T18:32:39.000Z</time>
      </trkpt>
      <trkpt lat="48.8454" lon="2.35476">
        <ele>49.400001525879</ele>
        <time>2016-07-25T18:32:44.000Z</time>
      </trkpt>
      <trkpt lat="48.84521" lon="2.35478">
        <ele>49.400001525879</ele>
        <time>2016-07-25T18:32:48.000Z</time>
      </trkpt>
      <trkpt lat="48.84503" lon="2.35478">
        <ele>50.200000762939</ele>
        <time>2016-07-25T18:32:52.000Z</time>
      </trkpt>
      <trkpt lat="48.84499" lon="2.35479">
        <ele>50</ele>
        <time>2016-07-25T18:32:53.000Z</time>
      </trkpt>
      <trkpt lat="48.84482" lon="2.3548">
        <ele>49.799999237061</ele>
        <time>2016-07-25T18:32:57.000Z</time>
      </trkpt>
      <trkpt lat="48.84461" lon="2.35484">
        <ele>49.200000762939</ele>
        <time>2016-07-25T18:33:02.000Z</time>
      </trkpt>
      <trkpt lat="48.84441" lon="2.35492">
        <ele>48.400001525879</ele>
        <time>2016-07-25T18:33:07.000Z</time>
      </trkpt>
      <trkpt lat="48.84421" lon="2.35501">
        <ele>48.799999237061</ele>
        <time>2016-07-25T18:33:12.000Z</time>
      </trkpt>
      <trkpt lat="48.844" lon="2.35507">
        <ele>49.400001525879</ele>
        <time>2016-07-25T18:33:18.000Z</time>
      </trkpt>
      <trkpt lat="48.84394" lon="2.35507">
        <ele>49.799999237061</ele>
        <time>2016-07-25T18:33:20.000Z</time>
      </trkpt>
      <trkpt lat="48.84377" lon="2.35502">
        <ele>50.799999237061</ele>
        <time>2016-07-25T18:33:24.000Z</time>
      </trkpt>
      <trkpt lat="48.84368" lon="2.35505">
        <ele>51</ele>
        <time>2016-07-25T18:33:26.000Z</time>
      </trkpt>
      <trkpt lat="48.8436" lon="2.35508">
        <ele>51.400001525879</ele>
        <time>2016-07-25T18:33:30.000Z</time>
      </trkpt>
      <trkpt lat="48.84351" lon="2.35519">
        <ele>51</ele>
        <time>2016-07-25T18:33:36.000Z</time>
      </trkpt>
      <trkpt lat="48.84348" lon="2.35522">
        <ele>50.799999237061</ele>
        <time>2016-07-25T18:33:37.000Z</time>
      </trkpt>
      <trkpt lat="48.84331" lon="2.35533">
        <ele>49.599998474121</ele>
        <time>2016-07-25T18:33:41.000Z</time>
      </trkpt>
      <trkpt lat="48.84312" lon="2.35539">
        <ele>48.400001525879</ele>
        <time>2016-07-25T18:33:45.000Z</time>
      </trkpt>
      <trkpt lat="48.84288" lon="2.35546">
        <ele>47.799999237061</ele>
        <time>2016-07-25T18:33:49.000Z</time>
      </trkpt>
      <trkpt lat="48.84266" lon="2.35555">
        <ele>47</ele>
        <time>2016-07-25T18:33:53.000Z</time>
      </trkpt>
      <trkpt lat="48.84245" lon="2.35567">
        <ele>45.400001525879</ele>
        <time>2016-07-25T18:33:57.000Z</time>
      </trkpt>
      <trkpt lat="48.84223" lon="2.35578">
        <ele>43.599998474121</ele>
        <time>2016-07-25T18:34:01.000Z</time>
      </trkpt>
      <trkpt lat="48.84217" lon="2.35579">
        <ele>43</ele>
        <time>2016-07-25T18:34:02.000Z</time>
      </trkpt>
      <trkpt lat="48.842" lon="2.35586">
        <ele>41.400001525879</ele>
        <time>2016-07-25T18:34:05.000Z</time>
      </trkpt>
      <trkpt lat="48.84194" lon="2.35589">
        <ele>41</ele>
        <time>2016-07-25T18:34:06.000Z</time>
      </trkpt>
      <trkpt lat="48.84174" lon="2.356">
        <ele>40.400001525879</ele>
        <time>2016-07-25T18:34:10.000Z</time>
      </trkpt>
      <trkpt lat="48.84152" lon="2.35603">
        <ele>40.200000762939</ele>
        <time>2016-07-25T18:34:14.000Z</time>
      </trkpt>
      <trkpt lat="48.84132" lon="2.35598">
        <ele>40.400001525879</ele>
        <time>2016-07-25T18:34:18.000Z</time>
      </trkpt>
      <trkpt lat="48.84128" lon="2.35598">
        <ele>40.400001525879</ele>
        <time>2016-07-25T18:34:19.000Z</time>
      </trkpt>
      <trkpt lat="48.84124" lon="2.35599">
        <ele>40.400001525879</ele>
        <time>2016-07-25T18:34:21.000Z</time>
      </trkpt>
      <trkpt lat="48.84106" lon="2.35593">
        <ele>40.799999237061</ele>
        <time>2016-07-25T18:34:41.000Z</time>
      </trkpt>
      <trkpt lat="48.84087" lon="2.35598">
        <ele>41.599998474121</ele>
        <time>2016-07-25T18:34:46.000Z</time>
      </trkpt>
      <trkpt lat="48.84066" lon="2.3561">
        <ele>42.599998474121</ele>
        <time>2016-07-25T18:34:50.000Z</time>
      </trkpt>
      <trkpt lat="48.84048" lon="2.35621">
        <ele>43.200000762939</ele>
        <time>2016-07-25T18:34:53.000Z</time>
      </trkpt>
      <trkpt lat="48.84025" lon="2.3563">
        <ele>43.799999237061</ele>
        <time>2016-07-25T18:34:57.000Z</time>
      </trkpt>
      <trkpt lat="48.84005" lon="2.35638">
        <ele>43.400001525879</ele>
        <time>2016-07-25T18:35:02.000Z</time>
      </trkpt>
      <trkpt lat="48.8399" lon="2.3564">
        <ele>43.599998474121</ele>
        <time>2016-07-25T18:35:06.000Z</time>
      </trkpt>
      <trkpt lat="48.8398" lon="2.35641">
        <ele>44</ele>
        <time>2016-07-25T18:35:09.000Z</time>
      </trkpt>
      <trkpt lat="48.83971" lon="2.3564">
        <ele>44.200000762939</ele>
        <time>2016-07-25T18:35:17.000Z</time>
      </trkpt>
      <trkpt lat="48.8398" lon="2.35667">
        <ele>44.400001525879</ele>
        <time>2016-07-25T18:35:29.000Z</time>
      </trkpt>
      <trkpt lat="48.83985" lon="2.35697">
        <ele>43.200000762939</ele>
        <time>2016-07-25T18:35:35.000Z</time>
      </trkpt>
      <trkpt lat="48.83989" lon="2.35725">
        <ele>42.599998474121</ele>
        <time>2016-07-25T18:35:40.000Z</time>
      </trkpt>
      <trkpt lat="48.83995" lon="2.35752">
        <ele>42.400001525879</ele>
        <time>2016-07-25T18:35:45.000Z</time>
      </trkpt>
      <trkpt lat="48.84006" lon="2.35776">
        <ele>41.799999237061</ele>
        <time>2016-07-25T18:35:50.000Z</time>
      </trkpt>
      <trkpt lat="48.84011" lon="2.35805">
        <ele>41.599998474121</ele>
        <time>2016-07-25T18:35:54.000Z</time>
      </trkpt>
      <trkpt lat="48.84015" lon="2.35838">
        <ele>41.400001525879</ele>
        <time>2016-07-25T18:35:58.000Z</time>
      </trkpt>
      <trkpt lat="48.84024" lon="2.35868">
        <ele>41.799999237061</ele>
        <time>2016-07-25T18:36:02.000Z</time>
      </trkpt>
      <trkpt lat="48.84032" lon="2.35899">
        <ele>41.799999237061</ele>
        <time>2016-07-25T18:36:06.000Z</time>
      </trkpt>
      <trkpt lat="48.84042" lon="2.35924">
        <ele>41</ele>
        <time>2016-07-25T18:36:10.000Z</time>
      </trkpt>
      <trkpt lat="48.8405" lon="2.35954">
        <ele>40</ele>
        <time>2016-07-25T18:36:15.000Z</time>
      </trkpt>
      <trkpt lat="48.84053" lon="2.35988">
        <ele>40.400001525879</ele>
        <time>2016-07-25T18:36:20.000Z</time>
      </trkpt>
      <trkpt lat="48.84053" lon="2.36015">
        <ele>42.200000762939</ele>
        <time>2016-07-25T18:36:23.000Z</time>
      </trkpt>
      <trkpt lat="48.84053" lon="2.36043">
        <ele>45</ele>
        <time>2016-07-25T18:36:26.000Z</time>
      </trkpt>
      <trkpt lat="48.84049" lon="2.36077">
        <ele>48.799999237061</ele>
        <time>2016-07-25T18:36:30.000Z</time>
      </trkpt>
      <trkpt lat="48.8405" lon="2.36084">
        <ele>49.200000762939</ele>
        <time>2016-07-25T18:36:31.000Z</time>
      </trkpt>
      <trkpt lat="48.84045" lon="2.36113">
        <ele>50.400001525879</ele>
        <time>2016-07-25T18:36:33.000Z</time>
      </trkpt>
      <trkpt lat="48.84043" lon="2.36134">
        <ele>48.599998474121</ele>
        <time>2016-07-25T18:36:35.000Z</time>
      </trkpt>
      <trkpt lat="48.84043" lon="2.36158">
        <ele>46.599998474121</ele>
        <time>2016-07-25T18:36:39.000Z</time>
      </trkpt>
      <trkpt lat="48.84032" lon="2.36178">
        <ele>45.200000762939</ele>
        <time>2016-07-25T18:36:43.000Z</time>
      </trkpt>
      <trkpt lat="48.8403" lon="2.36186">
        <ele>44</ele>
        <time>2016-07-25T18:36:47.000Z</time>
      </trkpt>
      <trkpt lat="48.8403" lon="2.36192">
        <ele>43</ele>
        <time>2016-07-25T18:36:51.000Z</time>
      </trkpt>
      <trkpt lat="48.8403" lon="2.36207">
        <ele>41.200000762939</ele>
        <time>2016-07-25T18:37:02.000Z</time>
      </trkpt>
      <trkpt lat="48.84042" lon="2.36231">
        <ele>39.200000762939</ele>
        <time>2016-07-25T18:37:10.000Z</time>
      </trkpt>
      <trkpt lat="48.84056" lon="2.36255">
        <ele>37.799999237061</ele>
        <time>2016-07-25T18:37:16.000Z</time>
      </trkpt>
      <trkpt lat="48.8407" lon="2.36278">
        <ele>38.200000762939</ele>
        <time>2016-07-25T18:37:22.000Z</time>
      </trkpt>
      <trkpt lat="48.84095" lon="2.3629">
        <ele>40</ele>
        <time>2016-07-25T18:37:27.000Z</time>
      </trkpt>
      <trkpt lat="48.84112" lon="2.36302">
        <ele>40</ele>
        <time>2016-07-25T18:37:31.000Z</time>
      </trkpt>
      <trkpt lat="48.84128" lon="2.36319">
        <ele>38.200000762939</ele>
        <time>2016-07-25T18:37:35.000Z</time>
      </trkpt>
      <trkpt lat="48.84147" lon="2.36335">
        <ele>36.599998474121</ele>
        <time>2016-07-25T18:37:39.000Z</time>
      </trkpt>
      <trkpt lat="48.84166" lon="2.36343">
        <ele>35.599998474121</ele>
        <time>2016-07-25T18:37:42.000Z</time>
      </trkpt>
      <trkpt lat="48.84178" lon="2.36357">
        <ele>35</ele>
        <time>2016-07-25T18:37:45.000Z</time>
      </trkpt>
      <trkpt lat="48.84192" lon="2.36379">
        <ele>34.599998474121</ele>
        <time>2016-07-25T18:37:49.000Z</time>
      </trkpt>
      <trkpt lat="48.84211" lon="2.36396">
        <ele>35</ele>
        <time>2016-07-25T18:37:53.000Z</time>
      </trkpt>
      <trkpt lat="48.84233" lon="2.36412">
        <ele>35.400001525879</ele>
        <time>2016-07-25T18:37:57.000Z</time>
      </trkpt>
      <trkpt lat="48.84254" lon="2.36426">
        <ele>36.200000762939</ele>
        <time>2016-07-25T18:38:01.000Z</time>
      </trkpt>
      <trkpt lat="48.84258" lon="2.36429">
        <ele>36.400001525879</ele>
        <time>2016-07-25T18:38:02.000Z</time>
      </trkpt>
      <trkpt lat="48.8428" lon="2.36438">
        <ele>36.799999237061</ele>
        <time>2016-07-25T18:38:06.000Z</time>
      </trkpt>
      <trkpt lat="48.84299" lon="2.3645">
        <ele>37.200000762939</ele>
        <time>2016-07-25T18:38:10.000Z</time>
      </trkpt>
      <trkpt lat="48.84319" lon="2.36464">
        <ele>37.799999237061</ele>
        <time>2016-07-25T18:38:15.000Z</time>
      </trkpt>
      <trkpt lat="48.84336" lon="2.36474">
        <ele>38.200000762939</ele>
        <time>2016-07-25T18:38:21.000Z</time>
      </trkpt>
      <trkpt lat="48.8435" lon="2.36489">
        <ele>38.599998474121</ele>
        <time>2016-07-25T18:38:26.000Z</time>
      </trkpt>
      <trkpt lat="48.84349" lon="2.36507">
        <ele>38.599998474121</ele>
        <time>2016-07-25T18:38:30.000Z</time>
      </trkpt>
      <trkpt lat="48.8435" lon="2.36536">
        <ele>37.599998474121</ele>
        <time>2016-07-25T18:38:37.000Z</time>
      </trkpt>
      <trkpt lat="48.8435" lon="2.36541">
        <ele>37.400001525879</ele>
        <time>2016-07-25T18:38:39.000Z</time>
      </trkpt>
      <trkpt lat="48.84343" lon="2.36572">
        <ele>36.599998474121</ele>
        <time>2016-07-25T18:38:47.000Z</time>
      </trkpt>
      <trkpt lat="48.8433" lon="2.36598">
        <ele>36.599998474121</ele>
        <time>2016-07-25T18:38:52.000Z</time>
      </trkpt>
      <trkpt lat="48.84315" lon="2.36619">
        <ele>36.200000762939</ele>
        <time>2016-07-25T18:38:56.000Z</time>
      </trkpt>
      <trkpt lat="48.843" lon="2.3664">
        <ele>35.799999237061</ele>
        <time>2016-07-25T18:39:00.000Z</time>
      </trkpt>
      <trkpt lat="48.84282" lon="2.36662">
        <ele>35.599998474121</ele>
        <time>2016-07-25T18:39:04.000Z</time>
      </trkpt>
      <trkpt lat="48.84263" lon="2.3668">
        <ele>35</ele>
        <time>2016-07-25T18:39:08.000Z</time>
      </trkpt>
      <trkpt lat="48.84245" lon="2.36701">
        <ele>34</ele>
        <time>2016-07-25T18:39:12.000Z</time>
      </trkpt>
      <trkpt lat="48.84237" lon="2.36711">
        <ele>33.400001525879</ele>
        <time>2016-07-25T18:39:14.000Z</time>
      </trkpt>
      <trkpt lat="48.84222" lon="2.3673">
        <ele>33</ele>
        <time>2016-07-25T18:39:18.000Z</time>
      </trkpt>
      <trkpt lat="48.84216" lon="2.36739">
        <ele>33</ele>
        <time>2016-07-25T18:39:20.000Z</time>
      </trkpt>
      <trkpt lat="48.84206" lon="2.36752">
        <ele>33</ele>
        <time>2016-07-25T18:39:23.000Z</time>
      </trkpt>
      <trkpt lat="48.84193" lon="2.36772">
        <ele>34</ele>
        <time>2016-07-25T18:39:30.000Z</time>
      </trkpt>
      <trkpt lat="48.8419" lon="2.36776">
        <ele>34.200000762939</ele>
        <time>2016-07-25T18:39:32.000Z</time>
      </trkpt>
      <trkpt lat="48.84188" lon="2.3679">
        <ele>34.599998474121</ele>
        <time>2016-07-25T18:39:39.000Z</time>
      </trkpt>
      <trkpt lat="48.84177" lon="2.36815">
        <ele>35.200000762939</ele>
        <time>2016-07-25T18:39:45.000Z</time>
      </trkpt>
      <trkpt lat="48.84162" lon="2.36836">
        <ele>35.400001525879</ele>
        <time>2016-07-25T18:39:49.000Z</time>
      </trkpt>
      <trkpt lat="48.84145" lon="2.36856">
        <ele>34.200000762939</ele>
        <time>2016-07-25T18:39:52.000Z</time>
      </trkpt>
      <trkpt lat="48.84128" lon="2.36879">
        <ele>33.799999237061</ele>
        <time>2016-07-25T18:39:55.000Z</time>
      </trkpt>
      <trkpt lat="48.84122" lon="2.36887">
        <ele>34</ele>
        <time>2016-07-25T18:39:56.000Z</time>
      </trkpt>
      <trkpt lat="48.84103" lon="2.36912">
        <ele>34</ele>
        <time>2016-07-25T18:39:59.000Z</time>
      </trkpt>
      <trkpt lat="48.84087" lon="2.36928">
        <ele>33.599998474121</ele>
        <time>2016-07-25T18:40:01.000Z</time>
      </trkpt>
      <trkpt lat="48.84066" lon="2.36952">
        <ele>32.599998474121</ele>
        <time>2016-07-25T18:40:04.000Z</time>
      </trkpt>
      <trkpt lat="48.84047" lon="2.36978">
        <ele>32.599998474121</ele>
        <time>2016-07-25T18:40:07.000Z</time>
      </trkpt>
      <trkpt lat="48.84033" lon="2.36997">
        <ele>32.799999237061</ele>
        <time>2016-07-25T18:40:09.000Z</time>
      </trkpt>
      <trkpt lat="48.84019" lon="2.37014">
        <ele>33</ele>
        <time>2016-07-25T18:40:11.000Z</time>
      </trkpt>
      <trkpt lat="48.84002" lon="2.37029">
        <ele>33</ele>
        <time>2016-07-25T18:40:13.000Z</time>
      </trkpt>
      <trkpt lat="48.83986" lon="2.37045">
        <ele>33</ele>
        <time>2016-07-25T18:40:15.000Z</time>
      </trkpt>
      <trkpt lat="48.83978" lon="2.37054">
        <ele>33.200000762939</ele>
        <time>2016-07-25T18:40:16.000Z</time>
      </trkpt>
      <trkpt lat="48.83964" lon="2.37074">
        <ele>33.599998474121</ele>
        <time>2016-07-25T18:40:18.000Z</time>
      </trkpt>
      <trkpt lat="48.8395" lon="2.37094">
        <ele>34</ele>
        <time>2016-07-25T18:40:20.000Z</time>
      </trkpt>
      <trkpt lat="48.83935" lon="2.37113">
        <ele>33.799999237061</ele>
        <time>2016-07-25T18:40:22.000Z</time>
      </trkpt>
      <trkpt lat="48.83921" lon="2.37131">
        <ele>33.400001525879</ele>
        <time>2016-07-25T18:40:24.000Z</time>
      </trkpt>
      <trkpt lat="48.83906" lon="2.3715">
        <ele>32.799999237061</ele>
        <time>2016-07-25T18:40:26.000Z</time>
      </trkpt>
      <trkpt lat="48.83891" lon="2.37167">
        <ele>32.200000762939</ele>
        <time>2016-07-25T18:40:28.000Z</time>
      </trkpt>
      <trkpt lat="48.83877" lon="2.37186">
        <ele>31.799999237061</ele>
        <time>2016-07-25T18:40:30.000Z</time>
      </trkpt>
      <trkpt lat="48.83861" lon="2.37202">
        <ele>32</ele>
        <time>2016-07-25T18:40:32.000Z</time>
      </trkpt>
      <trkpt lat="48.83847" lon="2.3722">
        <ele>32.799999237061</ele>
        <time>2016-07-25T18:40:34.000Z</time>
      </trkpt>
      <trkpt lat="48.83828" lon="2.37247">
        <ele>34.400001525879</ele>
        <time>2016-07-25T18:40:37.000Z</time>
      </trkpt>
      <trkpt lat="48.83814" lon="2.37265">
        <ele>34.799999237061</ele>
        <time>2016-07-25T18:40:39.000Z</time>
      </trkpt>
      <trkpt lat="48.83793" lon="2.37291">
        <ele>36</ele>
        <time>2016-07-25T18:40:42.000Z</time>
      </trkpt>
      <trkpt lat="48.83774" lon="2.37316">
        <ele>37.599998474121</ele>
        <time>2016-07-25T18:40:45.000Z</time>
      </trkpt>
      <trkpt lat="48.83761" lon="2.37342">
        <ele>38.599998474121</ele>
        <time>2016-07-25T18:40:49.000Z</time>
      </trkpt>
      <trkpt lat="48.83759" lon="2.37354">
        <ele>39</ele>
        <time>2016-07-25T18:41:24.000Z</time>
      </trkpt>
      <trkpt lat="48.83751" lon="2.37355">
        <ele>39.400001525879</ele>
        <time>2016-07-25T18:41:30.000Z</time>
      </trkpt>
      <trkpt lat="48.83734" lon="2.37371">
        <ele>40.400001525879</ele>
        <time>2016-07-25T18:41:35.000Z</time>
      </trkpt>
      <trkpt lat="48.83717" lon="2.37391">
        <ele>41.400001525879</ele>
        <time>2016-07-25T18:41:39.000Z</time>
      </trkpt>
      <trkpt lat="48.83701" lon="2.37408">
        <ele>42.400001525879</ele>
        <time>2016-07-25T18:41:42.000Z</time>
      </trkpt>
      <trkpt lat="48.83696" lon="2.37413">
        <ele>42.599998474121</ele>
        <time>2016-07-25T18:41:43.000Z</time>
      </trkpt>
      <trkpt lat="48.83682" lon="2.37426">
        <ele>42.599998474121</ele>
        <time>2016-07-25T18:41:46.000Z</time>
      </trkpt>
      <trkpt lat="48.83665" lon="2.37441">
        <ele>42</ele>
        <time>2016-07-25T18:41:50.000Z</time>
      </trkpt>
      <trkpt lat="48.83643" lon="2.37465">
        <ele>41.599998474121</ele>
        <time>2016-07-25T18:41:54.000Z</time>
      </trkpt>
      <trkpt lat="48.83625" lon="2.37482">
        <ele>42.400001525879</ele>
        <time>2016-07-25T18:41:57.000Z</time>
      </trkpt>
      <trkpt lat="48.83608" lon="2.37494">
        <ele>43</ele>
        <time>2016-07-25T18:42:00.000Z</time>
      </trkpt>
      <trkpt lat="48.83591" lon="2.3751">
        <ele>41</ele>
        <time>2016-07-25T18:42:03.000Z</time>
      </trkpt>
      <trkpt lat="48.83575" lon="2.37524">
        <ele>39</ele>
        <time>2016-07-25T18:42:06.000Z</time>
      </trkpt>
      <trkpt lat="48.83555" lon="2.3754">
        <ele>37</ele>
        <time>2016-07-25T18:42:10.000Z</time>
      </trkpt>
      <trkpt lat="48.83551" lon="2.37545">
        <ele>37</ele>
        <time>2016-07-25T18:42:11.000Z</time>
      </trkpt>
      <trkpt lat="48.83536" lon="2.37567">
        <ele>37</ele>
        <time>2016-07-25T18:42:15.000Z</time>
      </trkpt>
      <trkpt lat="48.8352" lon="2.37588">
        <ele>36.599998474121</ele>
        <time>2016-07-25T18:42:19.000Z</time>
      </trkpt>
      <trkpt lat="48.83506" lon="2.37605">
        <ele>35.200000762939</ele>
        <time>2016-07-25T18:42:22.000Z</time>
      </trkpt>
      <trkpt lat="48.83489" lon="2.37627">
        <ele>33.599998474121</ele>
        <time>2016-07-25T18:42:26.000Z</time>
      </trkpt>
      <trkpt lat="48.83471" lon="2.37653">
        <ele>35.599998474121</ele>
        <time>2016-07-25T18:42:30.000Z</time>
      </trkpt>
      <trkpt lat="48.83455" lon="2.37672">
        <ele>37.200000762939</ele>
        <time>2016-07-25T18:42:33.000Z</time>
      </trkpt>
      <trkpt lat="48.8344" lon="2.37691">
        <ele>38.200000762939</ele>
        <time>2016-07-25T18:42:36.000Z</time>
      </trkpt>
      <trkpt lat="48.83422" lon="2.37712">
        <ele>39</ele>
        <time>2016-07-25T18:42:39.000Z</time>
      </trkpt>
      <trkpt lat="48.83407" lon="2.37732">
        <ele>40</ele>
        <time>2016-07-25T18:42:42.000Z</time>
      </trkpt>
      <trkpt lat="48.8339" lon="2.37752">
        <ele>41.400001525879</ele>
        <time>2016-07-25T18:42:45.000Z</time>
      </trkpt>
      <trkpt lat="48.83375" lon="2.37769">
        <ele>42.400001525879</ele>
        <time>2016-07-25T18:42:48.000Z</time>
      </trkpt>
      <trkpt lat="48.8337" lon="2.37775">
        <ele>42.400001525879</ele>
        <time>2016-07-25T18:42:49.000Z</time>
      </trkpt>
      <trkpt lat="48.83352" lon="2.37797">
        <ele>43</ele>
        <time>2016-07-25T18:42:53.000Z</time>
      </trkpt>
      <trkpt lat="48.83337" lon="2.37812">
        <ele>43</ele>
        <time>2016-07-25T18:42:56.000Z</time>
      </trkpt>
      <trkpt lat="48.83321" lon="2.37828">
        <ele>43.400001525879</ele>
        <time>2016-07-25T18:42:59.000Z</time>
      </trkpt>
      <trkpt lat="48.83302" lon="2.37848">
        <ele>44</ele>
        <time>2016-07-25T18:43:03.000Z</time>
      </trkpt>
      <trkpt lat="48.83285" lon="2.37869">
        <ele>45</ele>
        <time>2016-07-25T18:43:07.000Z</time>
      </trkpt>
      <trkpt lat="48.83271" lon="2.37889">
        <ele>46</ele>
        <time>2016-07-25T18:43:11.000Z</time>
      </trkpt>
      <trkpt lat="48.83259" lon="2.37904">
        <ele>46.599998474121</ele>
        <time>2016-07-25T18:43:14.000Z</time>
      </trkpt>
      <trkpt lat="48.83247" lon="2.37923">
        <ele>46.400001525879</ele>
        <time>2016-07-25T18:43:18.000Z</time>
      </trkpt>
      <trkpt lat="48.83233" lon="2.37942">
        <ele>45.400001525879</ele>
        <time>2016-07-25T18:43:23.000Z</time>
      </trkpt>
      <trkpt lat="48.83228" lon="2.37949">
        <ele>45</ele>
        <time>2016-07-25T18:43:26.000Z</time>
      </trkpt>
      <trkpt lat="48.83228" lon="2.37954">
        <ele>44.599998474121</ele>
        <time>2016-07-25T18:43:44.000Z</time>
      </trkpt>
      <trkpt lat="48.83232" lon="2.37958">
        <ele>44.400001525879</ele>
        <time>2016-07-25T18:43:49.000Z</time>
      </trkpt>
      <trkpt lat="48.83229" lon="2.37975">
        <ele>43.599998474121</ele>
        <time>2016-07-25T18:43:57.000Z</time>
      </trkpt>
      <trkpt lat="48.83217" lon="2.38">
        <ele>42.400001525879</ele>
        <time>2016-07-25T18:44:07.000Z</time>
      </trkpt>
      <trkpt lat="48.83201" lon="2.38017">
        <ele>41.200000762939</ele>
        <time>2016-07-25T18:44:13.000Z</time>
      </trkpt>
      <trkpt lat="48.83186" lon="2.38036">
        <ele>41.799999237061</ele>
        <time>2016-07-25T18:44:18.000Z</time>
      </trkpt>
      <trkpt lat="48.83172" lon="2.38053">
        <ele>40.200000762939</ele>
        <time>2016-07-25T18:44:22.000Z</time>
      </trkpt>
      <trkpt lat="48.83158" lon="2.38071">
        <ele>37.599998474121</ele>
        <time>2016-07-25T18:44:26.000Z</time>
      </trkpt>
      <trkpt lat="48.83143" lon="2.38088">
        <ele>34.200000762939</ele>
        <time>2016-07-25T18:44:30.000Z</time>
      </trkpt>
      <trkpt lat="48.83131" lon="2.3811">
        <ele>30.39999961853</ele>
        <time>2016-07-25T18:44:35.000Z</time>
      </trkpt>
      <trkpt lat="48.83118" lon="2.38132">
        <ele>30.60000038147</ele>
        <time>2016-07-25T18:44:40.000Z</time>
      </trkpt>
      <trkpt lat="48.83103" lon="2.38152">
        <ele>31</ele>
        <time>2016-07-25T18:44:45.000Z</time>
      </trkpt>
      <trkpt lat="48.83088" lon="2.38172">
        <ele>32.200000762939</ele>
        <time>2016-07-25T18:44:49.000Z</time>
      </trkpt>
      <trkpt lat="48.83067" lon="2.38188">
        <ele>34</ele>
        <time>2016-07-25T18:44:52.000Z</time>
      </trkpt>
      <trkpt lat="48.83049" lon="2.38199">
        <ele>34.599998474121</ele>
        <time>2016-07-25T18:44:54.000Z</time>
      </trkpt>
      <trkpt lat="48.8303" lon="2.38213">
        <ele>33</ele>
        <time>2016-07-25T18:44:57.000Z</time>
      </trkpt>
      <trkpt lat="48.83011" lon="2.38233">
        <ele>31.39999961853</ele>
        <time>2016-07-25T18:45:01.000Z</time>
      </trkpt>
      <trkpt lat="48.82994" lon="2.38252">
        <ele>31</ele>
        <time>2016-07-25T18:45:05.000Z</time>
      </trkpt>
      <trkpt lat="48.82978" lon="2.3827">
        <ele>31.200000762939</ele>
        <time>2016-07-25T18:45:09.000Z</time>
      </trkpt>
      <trkpt lat="48.82964" lon="2.38287">
        <ele>31.200000762939</ele>
        <time>2016-07-25T18:45:14.000Z</time>
      </trkpt>
      <trkpt lat="48.82958" lon="2.38294">
        <ele>31.200000762939</ele>
        <time>2016-07-25T18:45:16.000Z</time>
      </trkpt>
      <trkpt lat="48.82942" lon="2.38315">
        <ele>31</ele>
        <time>2016-07-25T18:45:21.000Z</time>
      </trkpt>
      <trkpt lat="48.82929" lon="2.38338">
        <ele>32</ele>
        <time>2016-07-25T18:45:27.000Z</time>
      </trkpt>
      <trkpt lat="48.82928" lon="2.38341">
        <ele>32.200000762939</ele>
        <time>2016-07-25T18:45:28.000Z</time>
      </trkpt>
      <trkpt lat="48.82916" lon="2.38354">
        <ele>33.400001525879</ele>
        <time>2016-07-25T18:45:31.000Z</time>
      </trkpt>
      <trkpt lat="48.82903" lon="2.38372">
        <ele>35</ele>
        <time>2016-07-25T18:45:35.000Z</time>
      </trkpt>
      <trkpt lat="48.829" lon="2.38375">
        <ele>35.400001525879</ele>
        <time>2016-07-25T18:45:36.000Z</time>
      </trkpt>
      <trkpt lat="48.82893" lon="2.38381">
        <ele>35</ele>
        <time>2016-07-25T18:45:39.000Z</time>
      </trkpt>
      <trkpt lat="48.82872" lon="2.38395">
        <ele>34.200000762939</ele>
        <time>2016-07-25T18:45:44.000Z</time>
      </trkpt>
      <trkpt lat="48.82853" lon="2.38414">
        <ele>33</ele>
        <time>2016-07-25T18:45:48.000Z</time>
      </trkpt>
      <trkpt lat="48.82836" lon="2.3843">
        <ele>31.799999237061</ele>
        <time>2016-07-25T18:45:52.000Z</time>
      </trkpt>
      <trkpt lat="48.82829" lon="2.38437">
        <ele>31.39999961853</ele>
        <time>2016-07-25T18:45:54.000Z</time>
      </trkpt>
      <trkpt lat="48.82814" lon="2.38454">
        <ele>30.200000762939</ele>
        <time>2016-07-25T18:45:58.000Z</time>
      </trkpt>
      <trkpt lat="48.82797" lon="2.38469">
        <ele>30</ele>
        <time>2016-07-25T18:46:04.000Z</time>
      </trkpt>
      <trkpt lat="48.82795" lon="2.38473">
        <ele>30</ele>
        <time>2016-07-25T18:46:05.000Z</time>
      </trkpt>
      <trkpt lat="48.82782" lon="2.38487">
        <ele>30</ele>
        <time>2016-07-25T18:46:09.000Z</time>
      </trkpt>
      <trkpt lat="48.82767" lon="2.38506">
        <ele>30.200000762939</ele>
        <time>2016-07-25T18:46:15.000Z</time>
      </trkpt>
      <trkpt lat="48.82763" lon="2.38512">
        <ele>30.200000762939</ele>
        <time>2016-07-25T18:46:16.000Z</time>
      </trkpt>
      <trkpt lat="48.82757" lon="2.38522">
        <ele>30.39999961853</ele>
        <time>2016-07-25T18:46:18.000Z</time>
      </trkpt>
      <trkpt lat="48.82749" lon="2.38539">
        <ele>30.799999237061</ele>
        <time>2016-07-25T18:46:21.000Z</time>
      </trkpt>
      <trkpt lat="48.82741" lon="2.38551">
        <ele>31</ele>
        <time>2016-07-25T18:46:24.000Z</time>
      </trkpt>
      <trkpt lat="48.82725" lon="2.38566">
        <ele>31.39999961853</ele>
        <time>2016-07-25T18:46:28.000Z</time>
      </trkpt>
      <trkpt lat="48.8271" lon="2.38586">
        <ele>31.799999237061</ele>
        <time>2016-07-25T18:46:35.000Z</time>
      </trkpt>
      <trkpt lat="48.827" lon="2.38609">
        <ele>32</ele>
        <time>2016-07-25T18:46:45.000Z</time>
      </trkpt>
      <trkpt lat="48.82687" lon="2.38629">
        <ele>32.599998474121</ele>
        <time>2016-07-25T18:46:51.000Z</time>
      </trkpt>
      <trkpt lat="48.82673" lon="2.38649">
        <ele>34</ele>
        <time>2016-07-25T18:46:56.000Z</time>
      </trkpt>
      <trkpt lat="48.82657" lon="2.38671">
        <ele>33</ele>
        <time>2016-07-25T18:47:01.000Z</time>
      </trkpt>
      <trkpt lat="48.82642" lon="2.38692">
        <ele>31.60000038147</ele>
        <time>2016-07-25T18:47:06.000Z</time>
      </trkpt>
      <trkpt lat="48.82626" lon="2.38715">
        <ele>30.60000038147</ele>
        <time>2016-07-25T18:47:11.000Z</time>
      </trkpt>
      <trkpt lat="48.82613" lon="2.38734">
        <ele>29.60000038147</ele>
        <time>2016-07-25T18:47:15.000Z</time>
      </trkpt>
      <trkpt lat="48.82598" lon="2.3875">
        <ele>29.200000762939</ele>
        <time>2016-07-25T18:47:19.000Z</time>
      </trkpt>
      <trkpt lat="48.82578" lon="2.38758">
        <ele>29.799999237061</ele>
        <time>2016-07-25T18:47:23.000Z</time>
      </trkpt>
      <trkpt lat="48.82561" lon="2.38769">
        <ele>30</ele>
        <time>2016-07-25T18:47:27.000Z</time>
      </trkpt>
      <trkpt lat="48.82548" lon="2.3879">
        <ele>30.39999961853</ele>
        <time>2016-07-25T18:47:31.000Z</time>
      </trkpt>
      <trkpt lat="48.82535" lon="2.38816">
        <ele>31.200000762939</ele>
        <time>2016-07-25T18:47:35.000Z</time>
      </trkpt>
      <trkpt lat="48.82525" lon="2.3884">
        <ele>31.799999237061</ele>
        <time>2016-07-25T18:47:39.000Z</time>
      </trkpt>
      <trkpt lat="48.82513" lon="2.38863">
        <ele>32.200000762939</ele>
        <time>2016-07-25T18:47:44.000Z</time>
      </trkpt>
      <trkpt lat="48.8251" lon="2.38874">
        <ele>32.200000762939</ele>
        <time>2016-07-25T18:47:46.000Z</time>
      </trkpt>
      <trkpt lat="48.82507" lon="2.38884">
        <ele>32.200000762939</ele>
        <time>2016-07-25T18:47:48.000Z</time>
      </trkpt>
      <trkpt lat="48.82501" lon="2.38899">
        <ele>32.400001525879</ele>
        <time>2016-07-25T18:47:51.000Z</time>
      </trkpt>
      <trkpt lat="48.8249" lon="2.38916">
        <ele>32.599998474121</ele>
        <time>2016-07-25T18:47:55.000Z</time>
      </trkpt>
      <trkpt lat="48.82476" lon="2.38935">
        <ele>31.60000038147</ele>
        <time>2016-07-25T18:47:59.000Z</time>
      </trkpt>
      <trkpt lat="48.82472" lon="2.3894">
        <ele>31.39999961853</ele>
        <time>2016-07-25T18:48:00.000Z</time>
      </trkpt>
      <trkpt lat="48.82458" lon="2.3896">
        <ele>31.60000038147</ele>
        <time>2016-07-25T18:48:04.000Z</time>
      </trkpt>
      <trkpt lat="48.82442" lon="2.38982">
        <ele>32.200000762939</ele>
        <time>2016-07-25T18:48:08.000Z</time>
      </trkpt>
      <trkpt lat="48.82426" lon="2.39006">
        <ele>32</ele>
        <time>2016-07-25T18:48:12.000Z</time>
      </trkpt>
      <trkpt lat="48.8241" lon="2.39031">
        <ele>31.60000038147</ele>
        <time>2016-07-25T18:48:16.000Z</time>
      </trkpt>
      <trkpt lat="48.82392" lon="2.39054">
        <ele>31.39999961853</ele>
        <time>2016-07-25T18:48:20.000Z</time>
      </trkpt>
      <trkpt lat="48.82375" lon="2.39077">
        <ele>31</ele>
        <time>2016-07-25T18:48:24.000Z</time>
      </trkpt>
      <trkpt lat="48.82357" lon="2.391">
        <ele>31.200000762939</ele>
        <time>2016-07-25T18:48:28.000Z</time>
      </trkpt>
      <trkpt lat="48.82342" lon="2.39118">
        <ele>31.799999237061</ele>
        <time>2016-07-25T18:48:31.000Z</time>
      </trkpt>
      <trkpt lat="48.82328" lon="2.39136">
        <ele>32.400001525879</ele>
        <time>2016-07-25T18:48:34.000Z</time>
      </trkpt>
      <trkpt lat="48.82311" lon="2.3916">
        <ele>33.400001525879</ele>
        <time>2016-07-25T18:48:38.000Z</time>
      </trkpt>
      <trkpt lat="48.82296" lon="2.39186">
        <ele>33.799999237061</ele>
        <time>2016-07-25T18:48:42.000Z</time>
      </trkpt>
      <trkpt lat="48.8228" lon="2.39212">
        <ele>34.599998474121</ele>
        <time>2016-07-25T18:48:46.000Z</time>
      </trkpt>
      <trkpt lat="48.82264" lon="2.39236">
        <ele>35</ele>
        <time>2016-07-25T18:48:50.000Z</time>
      </trkpt>
      <trkpt lat="48.82248" lon="2.39258">
        <ele>34.799999237061</ele>
        <time>2016-07-25T18:48:54.000Z</time>
      </trkpt>
      <trkpt lat="48.82233" lon="2.3928">
        <ele>34</ele>
        <time>2016-07-25T18:48:58.000Z</time>
      </trkpt>
      <trkpt lat="48.82219" lon="2.39301">
        <ele>32.799999237061</ele>
        <time>2016-07-25T18:49:02.000Z</time>
      </trkpt>
      <trkpt lat="48.82205" lon="2.39323">
        <ele>31.60000038147</ele>
        <time>2016-07-25T18:49:06.000Z</time>
      </trkpt>
      <trkpt lat="48.82198" lon="2.39333">
        <ele>31</ele>
        <time>2016-07-25T18:49:08.000Z</time>
      </trkpt>
      <trkpt lat="48.82191" lon="2.39344">
        <ele>30.799999237061</ele>
        <time>2016-07-25T18:49:10.000Z</time>
      </trkpt>
      <trkpt lat="48.82175" lon="2.39368">
        <ele>31.60000038147</ele>
        <time>2016-07-25T18:49:14.000Z</time>
      </trkpt>
      <trkpt lat="48.82159" lon="2.39391">
        <ele>32.799999237061</ele>
        <time>2016-07-25T18:49:18.000Z</time>
      </trkpt>
      <trkpt lat="48.82152" lon="2.39403">
        <ele>34.599998474121</ele>
        <time>2016-07-25T18:49:20.000Z</time>
      </trkpt>
      <trkpt lat="48.82138" lon="2.39429">
        <ele>37</ele>
        <time>2016-07-25T18:49:24.000Z</time>
      </trkpt>
      <trkpt lat="48.82125" lon="2.39455">
        <ele>36.799999237061</ele>
        <time>2016-07-25T18:49:28.000Z</time>
      </trkpt>
      <trkpt lat="48.82111" lon="2.39484">
        <ele>35</ele>
        <time>2016-07-25T18:49:32.000Z</time>
      </trkpt>
      <trkpt lat="48.821" lon="2.39503">
        <ele>34</ele>
        <time>2016-07-25T18:49:35.000Z</time>
      </trkpt>
      <trkpt lat="48.82085" lon="2.39525">
        <ele>33</ele>
        <time>2016-07-25T18:49:39.000Z</time>
      </trkpt>
      <trkpt lat="48.8208" lon="2.3953">
        <ele>33</ele>
        <time>2016-07-25T18:49:40.000Z</time>
      </trkpt>
      <trkpt lat="48.82066" lon="2.39553">
        <ele>32.200000762939</ele>
        <time>2016-07-25T18:49:44.000Z</time>
      </trkpt>
      <trkpt lat="48.82063" lon="2.39559">
        <ele>32.200000762939</ele>
        <time>2016-07-25T18:49:45.000Z</time>
      </trkpt>
      <trkpt lat="48.8205" lon="2.39584">
        <ele>32</ele>
        <time>2016-07-25T18:49:49.000Z</time>
      </trkpt>
      <trkpt lat="48.82034" lon="2.39611">
        <ele>32.599998474121</ele>
        <time>2016-07-25T18:49:53.000Z</time>
      </trkpt>
      <trkpt lat="48.82021" lon="2.3963">
        <ele>33.599998474121</ele>
        <time>2016-07-25T18:49:56.000Z</time>
      </trkpt>
      <trkpt lat="48.82005" lon="2.39656">
        <ele>35</ele>
        <time>2016-07-25T18:50:00.000Z</time>
      </trkpt>
      <trkpt lat="48.81991" lon="2.39682">
        <ele>34</ele>
        <time>2016-07-25T18:50:04.000Z</time>
      </trkpt>
      <trkpt lat="48.81988" lon="2.39689">
        <ele>33.400001525879</ele>
        <time>2016-07-25T18:50:05.000Z</time>
      </trkpt>
      <trkpt lat="48.81975" lon="2.39718">
        <ele>32.400001525879</ele>
        <time>2016-07-25T18:50:09.000Z</time>
      </trkpt>
      <trkpt lat="48.81961" lon="2.39739">
        <ele>32.200000762939</ele>
        <time>2016-07-25T18:50:13.000Z</time>
      </trkpt>
      <trkpt lat="48.81953" lon="2.39756">
        <ele>32.799999237061</ele>
        <time>2016-07-25T18:50:17.000Z</time>
      </trkpt>
      <trkpt lat="48.81951" lon="2.39772">
        <ele>33.400001525879</ele>
        <time>2016-07-25T18:50:22.000Z</time>
      </trkpt>
      <trkpt lat="48.81949" lon="2.39802">
        <ele>34</ele>
        <time>2016-07-25T18:51:27.000Z</time>
      </trkpt>
      <trkpt lat="48.81941" lon="2.39831">
        <ele>34.799999237061</ele>
        <time>2016-07-25T18:52:00.000Z</time>
      </trkpt>
      <trkpt lat="48.8193" lon="2.39855">
        <ele>33.599998474121</ele>
        <time>2016-07-25T18:52:05.000Z</time>
      </trkpt>
      <trkpt lat="48.81918" lon="2.39879">
        <ele>32.200000762939</ele>
        <time>2016-07-25T18:52:10.000Z</time>
      </trkpt>
      <trkpt lat="48.81906" lon="2.39901">
        <ele>32.200000762939</ele>
        <time>2016-07-25T18:52:16.000Z</time>
      </trkpt>
      <trkpt lat="48.81898" lon="2.39926">
        <ele>33</ele>
        <time>2016-07-25T18:52:35.000Z</time>
      </trkpt>
      <trkpt lat="48.81888" lon="2.39952">
        <ele>33.599998474121</ele>
        <time>2016-07-25T18:52:45.000Z</time>
      </trkpt>
      <trkpt lat="48.8188" lon="2.39976">
        <ele>33.400001525879</ele>
        <time>2016-07-25T18:52:51.000Z</time>
      </trkpt>
      <trkpt lat="48.81869" lon="2.40004">
        <ele>33.200000762939</ele>
        <time>2016-07-25T18:52:56.000Z</time>
      </trkpt>
      <trkpt lat="48.8186" lon="2.4003">
        <ele>32.799999237061</ele>
        <time>2016-07-25T18:53:01.000Z</time>
      </trkpt>
      <trkpt lat="48.81856" lon="2.40042">
        <ele>32.400001525879</ele>
        <time>2016-07-25T18:53:03.000Z</time>
      </trkpt>
      <trkpt lat="48.81845" lon="2.40071">
        <ele>31.39999961853</ele>
        <time>2016-07-25T18:53:08.000Z</time>
      </trkpt>
      <trkpt lat="48.81835" lon="2.401">
        <ele>30.799999237061</ele>
        <time>2016-07-25T18:53:13.000Z</time>
      </trkpt>
      <trkpt lat="48.81825" lon="2.40126">
        <ele>30.200000762939</ele>
        <time>2016-07-25T18:53:18.000Z</time>
      </trkpt>
      <trkpt lat="48.81813" lon="2.40152">
        <ele>30.60000038147</ele>
        <time>2016-07-25T18:53:24.000Z</time>
      </trkpt>
      <trkpt lat="48.81798" lon="2.40174">
        <ele>31.39999961853</ele>
        <time>2016-07-25T18:53:31.000Z</time>
      </trkpt>
      <trkpt lat="48.81787" lon="2.40199">
        <ele>31.799999237061</ele>
        <time>2016-07-25T18:53:37.000Z</time>
      </trkpt>
      <trkpt lat="48.81774" lon="2.40222">
        <ele>32.200000762939</ele>
        <time>2016-07-25T18:53:42.000Z</time>
      </trkpt>
      <trkpt lat="48.81758" lon="2.40244">
        <ele>33.200000762939</ele>
        <time>2016-07-25T18:53:47.000Z</time>
      </trkpt>
      <trkpt lat="48.81741" lon="2.40265">
        <ele>34</ele>
        <time>2016-07-25T18:53:52.000Z</time>
      </trkpt>
      <trkpt lat="48.81724" lon="2.40281">
        <ele>34.799999237061</ele>
        <time>2016-07-25T18:53:56.000Z</time>
      </trkpt>
      <trkpt lat="48.81706" lon="2.40297">
        <ele>35</ele>
        <time>2016-07-25T18:54:00.000Z</time>
      </trkpt>
      <trkpt lat="48.81686" lon="2.40314">
        <ele>34.799999237061</ele>
        <time>2016-07-25T18:54:04.000Z</time>
      </trkpt>
      <trkpt lat="48.81666" lon="2.4033">
        <ele>34</ele>
        <time>2016-07-25T18:54:08.000Z</time>
      </trkpt>
      <trkpt lat="48.81649" lon="2.40345">
        <ele>33.799999237061</ele>
        <time>2016-07-25T18:54:13.000Z</time>
      </trkpt>
      <trkpt lat="48.81644" lon="2.40354">
        <ele>33.799999237061</ele>
        <time>2016-07-25T18:54:16.000Z</time>
      </trkpt>
      <trkpt lat="48.81635" lon="2.40371">
        <ele>33.599998474121</ele>
        <time>2016-07-25T18:54:20.000Z</time>
      </trkpt>
      <trkpt lat="48.81621" lon="2.40395">
        <ele>33.799999237061</ele>
        <time>2016-07-25T18:54:25.000Z</time>
      </trkpt>
      <trkpt lat="48.81613" lon="2.40403">
        <ele>34</ele>
        <time>2016-07-25T18:54:27.000Z</time>
      </trkpt>
      <trkpt lat="48.81594" lon="2.40419">
        <ele>33.799999237061</ele>
        <time>2016-07-25T18:54:31.000Z</time>
      </trkpt>
      <trkpt lat="48.81576" lon="2.40435">
        <ele>33.599998474121</ele>
        <time>2016-07-25T18:54:35.000Z</time>
      </trkpt>
      <trkpt lat="48.8156" lon="2.40452">
        <ele>33.400001525879</ele>
        <time>2016-07-25T18:54:39.000Z</time>
      </trkpt>
      <trkpt lat="48.81543" lon="2.4047">
        <ele>33.599998474121</ele>
        <time>2016-07-25T18:54:43.000Z</time>
      </trkpt>
      <trkpt lat="48.81526" lon="2.40489">
        <ele>33.799999237061</ele>
        <time>2016-07-25T18:54:47.000Z</time>
      </trkpt>
      <trkpt lat="48.81513" lon="2.40506">
        <ele>34</ele>
        <time>2016-07-25T18:54:52.000Z</time>
      </trkpt>
      <trkpt lat="48.81508" lon="2.40513">
        <ele>33.799999237061</ele>
        <time>2016-07-25T18:54:55.000Z</time>
      </trkpt>
      <trkpt lat="48.81495" lon="2.40534">
        <ele>33.599998474121</ele>
        <time>2016-07-25T18:55:01.000Z</time>
      </trkpt>
      <trkpt lat="48.81493" lon="2.40538">
        <ele>33.599998474121</ele>
        <time>2016-07-25T18:55:02.000Z</time>
      </trkpt>
      <trkpt lat="48.81483" lon="2.40553">
        <ele>33.599998474121</ele>
        <time>2016-07-25T18:55:06.000Z</time>
      </trkpt>
      <trkpt lat="48.81477" lon="2.40557">
        <ele>33.799999237061</ele>
        <time>2016-07-25T18:55:08.000Z</time>
      </trkpt>
      <trkpt lat="48.81471" lon="2.40562">
        <ele>34</ele>
        <time>2016-07-25T18:55:10.000Z</time>
      </trkpt>
      <trkpt lat="48.81458" lon="2.40586">
        <ele>34.599998474121</ele>
        <time>2016-07-25T18:55:15.000Z</time>
      </trkpt>
      <trkpt lat="48.81456" lon="2.40593">
        <ele>34.799999237061</ele>
        <time>2016-07-25T18:55:16.000Z</time>
      </trkpt>
      <trkpt lat="48.81454" lon="2.40622">
        <ele>35.200000762939</ele>
        <time>2016-07-25T18:55:20.000Z</time>
      </trkpt>
      <trkpt lat="48.81455" lon="2.4065">
        <ele>35.400001525879</ele>
        <time>2016-07-25T18:55:24.000Z</time>
      </trkpt>
      <trkpt lat="48.81455" lon="2.40679">
        <ele>35.599998474121</ele>
        <time>2016-07-25T18:55:28.000Z</time>
      </trkpt>
      <trkpt lat="48.81454" lon="2.407">
        <ele>35.799999237061</ele>
        <time>2016-07-25T18:55:31.000Z</time>
      </trkpt>
      <trkpt lat="48.8144" lon="2.40723">
        <ele>36.599998474121</ele>
        <time>2016-07-25T18:55:36.000Z</time>
      </trkpt>
      <trkpt lat="48.81433" lon="2.4073">
        <ele>36.799999237061</ele>
        <time>2016-07-25T18:55:38.000Z</time>
      </trkpt>
      <trkpt lat="48.81421" lon="2.40746">
        <ele>36.599998474121</ele>
        <time>2016-07-25T18:55:42.000Z</time>
      </trkpt>
      <trkpt lat="48.81412" lon="2.40757">
        <ele>36.400001525879</ele>
        <time>2016-07-25T18:55:45.000Z</time>
      </trkpt>
      <trkpt lat="48.81398" lon="2.4077">
        <ele>36</ele>
        <time>2016-07-25T18:55:49.000Z</time>
      </trkpt>
      <trkpt lat="48.81388" lon="2.4078">
        <ele>35.799999237061</ele>
        <time>2016-07-25T18:55:52.000Z</time>
      </trkpt>
      <trkpt lat="48.81373" lon="2.40797">
        <ele>36.200000762939</ele>
        <time>2016-07-25T18:55:56.000Z</time>
      </trkpt>
      <trkpt lat="48.8137" lon="2.40801">
        <ele>36.200000762939</ele>
        <time>2016-07-25T18:55:57.000Z</time>
      </trkpt>
      <trkpt lat="48.81363" lon="2.40815">
        <ele>36.599998474121</ele>
        <time>2016-07-25T18:56:00.000Z</time>
      </trkpt>
      <trkpt lat="48.81353" lon="2.40845">
        <ele>35.799999237061</ele>
        <time>2016-07-25T18:56:05.000Z</time>
      </trkpt>
      <trkpt lat="48.81345" lon="2.40876">
        <ele>33</ele>
        <time>2016-07-25T18:56:10.000Z</time>
      </trkpt>
      <trkpt lat="48.81342" lon="2.40887">
        <ele>31.799999237061</ele>
        <time>2016-07-25T18:56:12.000Z</time>
      </trkpt>
      <trkpt lat="48.81326" lon="2.40902">
        <ele>30.60000038147</ele>
        <time>2016-07-25T18:56:16.000Z</time>
      </trkpt>
      <trkpt lat="48.81308" lon="2.40897">
        <ele>30.799999237061</ele>
        <time>2016-07-25T18:56:20.000Z</time>
      </trkpt>
      <trkpt lat="48.81303" lon="2.40897">
        <ele>30.799999237061</ele>
        <time>2016-07-25T18:56:21.000Z</time>
      </trkpt>
      <trkpt lat="48.81283" lon="2.4089">
        <ele>31.200000762939</ele>
        <time>2016-07-25T18:56:25.000Z</time>
      </trkpt>
      <trkpt lat="48.81261" lon="2.40885">
        <ele>31</ele>
        <time>2016-07-25T18:56:29.000Z</time>
      </trkpt>
      <trkpt lat="48.81238" lon="2.40878">
        <ele>30.60000038147</ele>
        <time>2016-07-25T18:56:33.000Z</time>
      </trkpt>
      <trkpt lat="48.81215" lon="2.40872">
        <ele>30.60000038147</ele>
        <time>2016-07-25T18:56:37.000Z</time>
      </trkpt>
      <trkpt lat="48.81191" lon="2.40865">
        <ele>30.60000038147</ele>
        <time>2016-07-25T18:56:41.000Z</time>
      </trkpt>
      <trkpt lat="48.81168" lon="2.40861">
        <ele>31</ele>
        <time>2016-07-25T18:56:45.000Z</time>
      </trkpt>
      <trkpt lat="48.81145" lon="2.40854">
        <ele>31.200000762939</ele>
        <time>2016-07-25T18:56:49.000Z</time>
      </trkpt>
      <trkpt lat="48.81123" lon="2.40845">
        <ele>31.60000038147</ele>
        <time>2016-07-25T18:56:53.000Z</time>
      </trkpt>
      <trkpt lat="48.811" lon="2.40837">
        <ele>31.799999237061</ele>
        <time>2016-07-25T18:56:57.000Z</time>
      </trkpt>
      <trkpt lat="48.81082" lon="2.40831">
        <ele>31.39999961853</ele>
        <time>2016-07-25T18:57:00.000Z</time>
      </trkpt>
      <trkpt lat="48.8106" lon="2.40825">
        <ele>31</ele>
        <time>2016-07-25T18:57:04.000Z</time>
      </trkpt>
      <trkpt lat="48.81038" lon="2.40818">
        <ele>30.799999237061</ele>
        <time>2016-07-25T18:57:08.000Z</time>
      </trkpt>
      <trkpt lat="48.81014" lon="2.40813">
        <ele>30.200000762939</ele>
        <time>2016-07-25T18:57:12.000Z</time>
      </trkpt>
      <trkpt lat="48.80997" lon="2.4081">
        <ele>29.799999237061</ele>
        <time>2016-07-25T18:57:15.000Z</time>
      </trkpt>
      <trkpt lat="48.80979" lon="2.40804">
        <ele>29.60000038147</ele>
        <time>2016-07-25T18:57:18.000Z</time>
      </trkpt>
      <trkpt lat="48.80956" lon="2.40798">
        <ele>29.60000038147</ele>
        <time>2016-07-25T18:57:22.000Z</time>
      </trkpt>
      <trkpt lat="48.80938" lon="2.40793">
        <ele>29.60000038147</ele>
        <time>2016-07-25T18:57:25.000Z</time>
      </trkpt>
      <trkpt lat="48.80915" lon="2.40787">
        <ele>30.799999237061</ele>
        <time>2016-07-25T18:57:29.000Z</time>
      </trkpt>
      <trkpt lat="48.80893" lon="2.40781">
        <ele>32.200000762939</ele>
        <time>2016-07-25T18:57:33.000Z</time>
      </trkpt>
      <trkpt lat="48.80887" lon="2.40781">
        <ele>32.400001525879</ele>
        <time>2016-07-25T18:57:34.000Z</time>
      </trkpt>
      <trkpt lat="48.80866" lon="2.40778">
        <ele>32.599998474121</ele>
        <time>2016-07-25T18:57:38.000Z</time>
      </trkpt>
      <trkpt lat="48.80844" lon="2.40778">
        <ele>32.400001525879</ele>
        <time>2016-07-25T18:57:42.000Z</time>
      </trkpt>
      <trkpt lat="48.8082" lon="2.40775">
        <ele>31.799999237061</ele>
        <time>2016-07-25T18:57:46.000Z</time>
      </trkpt>
      <trkpt lat="48.80814" lon="2.40775">
        <ele>31.799999237061</ele>
        <time>2016-07-25T18:57:47.000Z</time>
      </trkpt>
      <trkpt lat="48.80791" lon="2.40777">
        <ele>31.39999961853</ele>
        <time>2016-07-25T18:57:51.000Z</time>
      </trkpt>
      <trkpt lat="48.80769" lon="2.40778">
        <ele>31.39999961853</ele>
        <time>2016-07-25T18:57:55.000Z</time>
      </trkpt>
      <trkpt lat="48.80747" lon="2.40774">
        <ele>32</ele>
        <time>2016-07-25T18:57:59.000Z</time>
      </trkpt>
      <trkpt lat="48.80726" lon="2.40772">
        <ele>32.599998474121</ele>
        <time>2016-07-25T18:58:04.000Z</time>
      </trkpt>
      <trkpt lat="48.80717" lon="2.40775">
        <ele>32.599998474121</ele>
        <time>2016-07-25T18:58:06.000Z</time>
      </trkpt>
      <trkpt lat="48.80699" lon="2.40783">
        <ele>32.400001525879</ele>
        <time>2016-07-25T18:58:11.000Z</time>
      </trkpt>
      <trkpt lat="48.80685" lon="2.40781">
        <ele>32.400001525879</ele>
        <time>2016-07-25T18:58:17.000Z</time>
      </trkpt>
      <trkpt lat="48.80673" lon="2.4078">
        <ele>32.200000762939</ele>
        <time>2016-07-25T18:58:24.000Z</time>
      </trkpt>
      <trkpt lat="48.80666" lon="2.40779">
        <ele>32.200000762939</ele>
        <time>2016-07-25T18:58:27.000Z</time>
      </trkpt>
      <trkpt lat="48.80652" lon="2.40779">
        <ele>32.200000762939</ele>
        <time>2016-07-25T18:58:31.000Z</time>
      </trkpt>
      <trkpt lat="48.80643" lon="2.40778">
        <ele>32</ele>
        <time>2016-07-25T18:58:34.000Z</time>
      </trkpt>
      <trkpt lat="48.80638" lon="2.40778">
        <ele>32</ele>
        <time>2016-07-25T18:58:36.000Z</time>
      </trkpt>
      <trkpt lat="48.8062" lon="2.40786">
        <ele>32</ele>
        <time>2016-07-25T18:58:43.000Z</time>
      </trkpt>
      <trkpt lat="48.80599" lon="2.40788">
        <ele>32</ele>
        <time>2016-07-25T18:58:49.000Z</time>
      </trkpt>
      <trkpt lat="48.80578" lon="2.40794">
        <ele>31.60000038147</ele>
        <time>2016-07-25T18:58:54.000Z</time>
      </trkpt>
      <trkpt lat="48.80556" lon="2.40798">
        <ele>31.799999237061</ele>
        <time>2016-07-25T18:58:59.000Z</time>
      </trkpt>
      <trkpt lat="48.80535" lon="2.40805">
        <ele>32.400001525879</ele>
        <time>2016-07-25T18:59:03.000Z</time>
      </trkpt>
      <trkpt lat="48.80515" lon="2.40819">
        <ele>33.200000762939</ele>
        <time>2016-07-25T18:59:07.000Z</time>
      </trkpt>
      <trkpt lat="48.80495" lon="2.40832">
        <ele>34.200000762939</ele>
        <time>2016-07-25T18:59:11.000Z</time>
      </trkpt>
      <trkpt lat="48.80475" lon="2.40846">
        <ele>34.799999237061</ele>
        <time>2016-07-25T18:59:15.000Z</time>
      </trkpt>
      <trkpt lat="48.8047" lon="2.4085">
        <ele>34.799999237061</ele>
        <time>2016-07-25T18:59:16.000Z</time>
      </trkpt>
      <trkpt lat="48.80449" lon="2.40866">
        <ele>35.799999237061</ele>
        <time>2016-07-25T18:59:20.000Z</time>
      </trkpt>
      <trkpt lat="48.80431" lon="2.40877">
        <ele>36.200000762939</ele>
        <time>2016-07-25T18:59:23.000Z</time>
      </trkpt>
      <trkpt lat="48.80414" lon="2.40888">
        <ele>35.799999237061</ele>
        <time>2016-07-25T18:59:26.000Z</time>
      </trkpt>
      <trkpt lat="48.80396" lon="2.40901">
        <ele>35.200000762939</ele>
        <time>2016-07-25T18:59:29.000Z</time>
      </trkpt>
      <trkpt lat="48.8038" lon="2.40916">
        <ele>34.599998474121</ele>
        <time>2016-07-25T18:59:32.000Z</time>
      </trkpt>
      <trkpt lat="48.80365" lon="2.40933">
        <ele>33.400001525879</ele>
        <time>2016-07-25T18:59:35.000Z</time>
      </trkpt>
      <trkpt lat="48.80349" lon="2.40952">
        <ele>33</ele>
        <time>2016-07-25T18:59:38.000Z</time>
      </trkpt>
      <trkpt lat="48.80335" lon="2.4097">
        <ele>32.400001525879</ele>
        <time>2016-07-25T18:59:41.000Z</time>
      </trkpt>
      <trkpt lat="48.80321" lon="2.40989">
        <ele>32.200000762939</ele>
        <time>2016-07-25T18:59:44.000Z</time>
      </trkpt>
      <trkpt lat="48.80307" lon="2.41008">
        <ele>31.799999237061</ele>
        <time>2016-07-25T18:59:47.000Z</time>
      </trkpt>
      <trkpt lat="48.80292" lon="2.41027">
        <ele>31.200000762939</ele>
        <time>2016-07-25T18:59:50.000Z</time>
      </trkpt>
      <trkpt lat="48.80277" lon="2.41045">
        <ele>30.39999961853</ele>
        <time>2016-07-25T18:59:53.000Z</time>
      </trkpt>
      <trkpt lat="48.80262" lon="2.41063">
        <ele>29.60000038147</ele>
        <time>2016-07-25T18:59:56.000Z</time>
      </trkpt>
      <trkpt lat="48.80247" lon="2.41081">
        <ele>30.200000762939</ele>
        <time>2016-07-25T18:59:59.000Z</time>
      </trkpt>
      <trkpt lat="48.8023" lon="2.41098">
        <ele>31.200000762939</ele>
        <time>2016-07-25T19:00:02.000Z</time>
      </trkpt>
      <trkpt lat="48.80214" lon="2.41117">
        <ele>32.200000762939</ele>
        <time>2016-07-25T19:00:05.000Z</time>
      </trkpt>
      <trkpt lat="48.80197" lon="2.41138">
        <ele>33.200000762939</ele>
        <time>2016-07-25T19:00:08.000Z</time>
      </trkpt>
      <trkpt lat="48.80181" lon="2.41156">
        <ele>34</ele>
        <time>2016-07-25T19:00:11.000Z</time>
      </trkpt>
      <trkpt lat="48.80161" lon="2.41175">
        <ele>33.200000762939</ele>
        <time>2016-07-25T19:00:14.000Z</time>
      </trkpt>
      <trkpt lat="48.80143" lon="2.41194">
        <ele>32</ele>
        <time>2016-07-25T19:00:17.000Z</time>
      </trkpt>
      <trkpt lat="48.80125" lon="2.41217">
        <ele>33</ele>
        <time>2016-07-25T19:00:20.000Z</time>
      </trkpt>
      <trkpt lat="48.80105" lon="2.41239">
        <ele>34.799999237061</ele>
        <time>2016-07-25T19:00:23.000Z</time>
      </trkpt>
      <trkpt lat="48.8009" lon="2.41256">
        <ele>34.400001525879</ele>
        <time>2016-07-25T19:00:25.000Z</time>
      </trkpt>
      <trkpt lat="48.80075" lon="2.41271">
        <ele>33.200000762939</ele>
        <time>2016-07-25T19:00:27.000Z</time>
      </trkpt>
      <trkpt lat="48.80059" lon="2.41286">
        <ele>32.200000762939</ele>
        <time>2016-07-25T19:00:29.000Z</time>
      </trkpt>
      <trkpt lat="48.80037" lon="2.41307">
        <ele>31.200000762939</ele>
        <time>2016-07-25T19:00:32.000Z</time>
      </trkpt>
      <trkpt lat="48.80014" lon="2.41327">
        <ele>30.39999961853</ele>
        <time>2016-07-25T19:00:35.000Z</time>
      </trkpt>
      <trkpt lat="48.79991" lon="2.41345">
        <ele>31.799999237061</ele>
        <time>2016-07-25T19:00:38.000Z</time>
      </trkpt>
      <trkpt lat="48.79969" lon="2.41365">
        <ele>33.200000762939</ele>
        <time>2016-07-25T19:00:41.000Z</time>
      </trkpt>
      <trkpt lat="48.79946" lon="2.41384">
        <ele>34</ele>
        <time>2016-07-25T19:00:44.000Z</time>
      </trkpt>
      <trkpt lat="48.79926" lon="2.41405">
        <ele>34</ele>
        <time>2016-07-25T19:00:47.000Z</time>
      </trkpt>
      <trkpt lat="48.79906" lon="2.41423">
        <ele>34</ele>
        <time>2016-07-25T19:00:50.000Z</time>
      </trkpt>
      <trkpt lat="48.79886" lon="2.41441">
        <ele>33.400001525879</ele>
        <time>2016-07-25T19:00:53.000Z</time>
      </trkpt>
      <trkpt lat="48.79866" lon="2.41459">
        <ele>32.799999237061</ele>
        <time>2016-07-25T19:00:56.000Z</time>
      </trkpt>
      <trkpt lat="48.79848" lon="2.41476">
        <ele>32</ele>
        <time>2016-07-25T19:00:59.000Z</time>
      </trkpt>
      <trkpt lat="48.79829" lon="2.41494">
        <ele>32.200000762939</ele>
        <time>2016-07-25T19:01:02.000Z</time>
      </trkpt>
      <trkpt lat="48.7981" lon="2.41511">
        <ele>33</ele>
        <time>2016-07-25T19:01:05.000Z</time>
      </trkpt>
      <trkpt lat="48.79798" lon="2.41523">
        <ele>33.400001525879</ele>
        <time>2016-07-25T19:01:07.000Z</time>
      </trkpt>
      <trkpt lat="48.7978" lon="2.41541">
        <ele>34</ele>
        <time>2016-07-25T19:01:10.000Z</time>
      </trkpt>
      <trkpt lat="48.79763" lon="2.41557">
        <ele>34.599998474121</ele>
        <time>2016-07-25T19:01:13.000Z</time>
      </trkpt>
      <trkpt lat="48.79749" lon="2.41576">
        <ele>34.400001525879</ele>
        <time>2016-07-25T19:01:16.000Z</time>
      </trkpt>
      <trkpt lat="48.79736" lon="2.41589">
        <ele>34</ele>
        <time>2016-07-25T19:01:19.000Z</time>
      </trkpt>
      <trkpt lat="48.7972" lon="2.41604">
        <ele>33.599998474121</ele>
        <time>2016-07-25T19:01:23.000Z</time>
      </trkpt>
      <trkpt lat="48.79707" lon="2.41617">
        <ele>33.799999237061</ele>
        <time>2016-07-25T19:01:27.000Z</time>
      </trkpt>
      <trkpt lat="48.79689" lon="2.41628">
        <ele>35</ele>
        <time>2016-07-25T19:01:33.000Z</time>
      </trkpt>
      <trkpt lat="48.79669" lon="2.41629">
        <ele>36</ele>
        <time>2016-07-25T19:01:40.000Z</time>
      </trkpt>
      <trkpt lat="48.79658" lon="2.41631">
        <ele>36.400001525879</ele>
        <time>2016-07-25T19:01:44.000Z</time>
      </trkpt>
      <trkpt lat="48.79645" lon="2.41634">
        <ele>37</ele>
        <time>2016-07-25T19:01:49.000Z</time>
      </trkpt>
      <trkpt lat="48.79642" lon="2.41635">
        <ele>37</ele>
        <time>2016-07-25T19:01:51.000Z</time>
      </trkpt>
      <trkpt lat="48.79642" lon="2.41656">
        <ele>36.799999237061</ele>
        <time>2016-07-25T19:02:00.000Z</time>
      </trkpt>
      <trkpt lat="48.79642" lon="2.41672">
        <ele>36.200000762939</ele>
        <time>2016-07-25T19:03:40.000Z</time>
      </trkpt>
      <trkpt lat="48.79634" lon="2.41689">
        <ele>35.599998474121</ele>
        <time>2016-07-25T19:04:04.000Z</time>
      </trkpt>
      <trkpt lat="48.79623" lon="2.41709">
        <ele>36</ele>
        <time>2016-07-25T19:04:18.000Z</time>
      </trkpt>
      <trkpt lat="48.79622" lon="2.41714">
        <ele>36</ele>
        <time>2016-07-25T19:04:21.000Z</time>
      </trkpt>
      <trkpt lat="48.79632" lon="2.41724">
        <ele>35</ele>
        <time>2016-07-25T19:05:19.000Z</time>
      </trkpt>
      <trkpt lat="48.79643" lon="2.41737">
        <ele>34</ele>
        <time>2016-07-25T19:05:28.000Z</time>
      </trkpt>
      <trkpt lat="48.79637" lon="2.41737">
        <ele>34.400001525879</ele>
        <time>2016-07-25T19:06:36.000Z</time>
      </trkpt>
      <trkpt lat="48.79625" lon="2.41761">
        <ele>35.400001525879</ele>
        <time>2016-07-25T19:06:46.000Z</time>
      </trkpt>
      <trkpt lat="48.79614" lon="2.41784">
        <ele>36.200000762939</ele>
        <time>2016-07-25T19:06:51.000Z</time>
      </trkpt>
      <trkpt lat="48.79604" lon="2.4181">
        <ele>37</ele>
        <time>2016-07-25T19:06:57.000Z</time>
      </trkpt>
      <trkpt lat="48.79595" lon="2.41835">
        <ele>36.799999237061</ele>
        <time>2016-07-25T19:07:01.000Z</time>
      </trkpt>
      <trkpt lat="48.79587" lon="2.41859">
        <ele>35</ele>
        <time>2016-07-25T19:07:05.000Z</time>
      </trkpt>
      <trkpt lat="48.79575" lon="2.41883">
        <ele>33</ele>
        <time>2016-07-25T19:07:09.000Z</time>
      </trkpt>
      <trkpt lat="48.79561" lon="2.41904">
        <ele>32.599998474121</ele>
        <time>2016-07-25T19:07:13.000Z</time>
      </trkpt>
      <trkpt lat="48.79544" lon="2.41924">
        <ele>33</ele>
        <time>2016-07-25T19:07:18.000Z</time>
      </trkpt>
      <trkpt lat="48.79528" lon="2.41941">
        <ele>32.799999237061</ele>
        <time>2016-07-25T19:07:22.000Z</time>
      </trkpt>
      <trkpt lat="48.79512" lon="2.41959">
        <ele>32.200000762939</ele>
        <time>2016-07-25T19:07:26.000Z</time>
      </trkpt>
      <trkpt lat="48.79497" lon="2.41974">
        <ele>31.799999237061</ele>
        <time>2016-07-25T19:07:30.000Z</time>
      </trkpt>
      <trkpt lat="48.79481" lon="2.41992">
        <ele>32.200000762939</ele>
        <time>2016-07-25T19:07:34.000Z</time>
      </trkpt>
      <trkpt lat="48.79466" lon="2.4201">
        <ele>32.599998474121</ele>
        <time>2016-07-25T19:07:38.000Z</time>
      </trkpt>
      <trkpt lat="48.7945" lon="2.42028">
        <ele>32.599998474121</ele>
        <time>2016-07-25T19:07:42.000Z</time>
      </trkpt>
      <trkpt lat="48.79434" lon="2.42045">
        <ele>31.799999237061</ele>
        <time>2016-07-25T19:07:46.000Z</time>
      </trkpt>
      <trkpt lat="48.79418" lon="2.42062">
        <ele>31.200000762939</ele>
        <time>2016-07-25T19:07:50.000Z</time>
      </trkpt>
      <trkpt lat="48.79414" lon="2.42066">
        <ele>31.39999961853</ele>
        <time>2016-07-25T19:07:51.000Z</time>
      </trkpt>
      <trkpt lat="48.79397" lon="2.42082">
        <ele>32.400001525879</ele>
        <time>2016-07-25T19:07:55.000Z</time>
      </trkpt>
      <trkpt lat="48.79393" lon="2.42084">
        <ele>32.799999237061</ele>
        <time>2016-07-25T19:07:56.000Z</time>
      </trkpt>
      <trkpt lat="48.79373" lon="2.42096">
        <ele>34</ele>
        <time>2016-07-25T19:08:00.000Z</time>
      </trkpt>
      <trkpt lat="48.79353" lon="2.42106">
        <ele>36.400001525879</ele>
        <time>2016-07-25T19:08:04.000Z</time>
      </trkpt>
      <trkpt lat="48.79332" lon="2.42117">
        <ele>37.400001525879</ele>
        <time>2016-07-25T19:08:08.000Z</time>
      </trkpt>
      <trkpt lat="48.7931" lon="2.42128">
        <ele>37.599998474121</ele>
        <time>2016-07-25T19:08:12.000Z</time>
      </trkpt>
      <trkpt lat="48.79288" lon="2.42136">
        <ele>35.400001525879</ele>
        <time>2016-07-25T19:08:16.000Z</time>
      </trkpt>
      <trkpt lat="48.79266" lon="2.42145">
        <ele>33.599998474121</ele>
        <time>2016-07-25T19:08:20.000Z</time>
      </trkpt>
      <trkpt lat="48.79244" lon="2.4215">
        <ele>33.400001525879</ele>
        <time>2016-07-25T19:08:24.000Z</time>
      </trkpt>
      <trkpt lat="48.79223" lon="2.42155">
        <ele>33.200000762939</ele>
        <time>2016-07-25T19:08:28.000Z</time>
      </trkpt>
      <trkpt lat="48.79203" lon="2.4216">
        <ele>33.200000762939</ele>
        <time>2016-07-25T19:08:32.000Z</time>
      </trkpt>
      <trkpt lat="48.79185" lon="2.4216">
        <ele>33.200000762939</ele>
        <time>2016-07-25T19:08:36.000Z</time>
      </trkpt>
      <trkpt lat="48.79167" lon="2.42166">
        <ele>32.799999237061</ele>
        <time>2016-07-25T19:08:40.000Z</time>
      </trkpt>
      <trkpt lat="48.7915" lon="2.42175">
        <ele>32.400001525879</ele>
        <time>2016-07-25T19:08:44.000Z</time>
      </trkpt>
      <trkpt lat="48.79131" lon="2.4218">
        <ele>32.200000762939</ele>
        <time>2016-07-25T19:08:49.000Z</time>
      </trkpt>
      <trkpt lat="48.79113" lon="2.42181">
        <ele>32</ele>
        <time>2016-07-25T19:08:54.000Z</time>
      </trkpt>
      <trkpt lat="48.79094" lon="2.4218">
        <ele>32</ele>
        <time>2016-07-25T19:09:00.000Z</time>
      </trkpt>
      <trkpt lat="48.79083" lon="2.42177">
        <ele>32</ele>
        <time>2016-07-25T19:09:03.000Z</time>
      </trkpt>
      <trkpt lat="48.79076" lon="2.42175">
        <ele>32</ele>
        <time>2016-07-25T19:09:05.000Z</time>
      </trkpt>
      <trkpt lat="48.79058" lon="2.4217">
        <ele>32</ele>
        <time>2016-07-25T19:09:10.000Z</time>
      </trkpt>
      <trkpt lat="48.79045" lon="2.42168">
        <ele>32</ele>
        <time>2016-07-25T19:09:14.000Z</time>
      </trkpt>
      <trkpt lat="48.79039" lon="2.42168">
        <ele>32</ele>
        <time>2016-07-25T19:09:17.000Z</time>
      </trkpt>
      <trkpt lat="48.79041" lon="2.4217">
        <ele>32</ele>
        <time>2016-07-25T19:11:08.000Z</time>
      </trkpt>
      <trkpt lat="48.79025" lon="2.4217">
        <ele>32</ele>
        <time>2016-07-25T19:11:35.000Z</time>
      </trkpt>
      <trkpt lat="48.79007" lon="2.42169">
        <ele>32</ele>
        <time>2016-07-25T19:11:40.000Z</time>
      </trkpt>
      <trkpt lat="48.78997" lon="2.42167">
        <ele>32.200000762939</ele>
        <time>2016-07-25T19:11:42.000Z</time>
      </trkpt>
      <trkpt lat="48.78978" lon="2.4216">
        <ele>32.599998474121</ele>
        <time>2016-07-25T19:11:46.000Z</time>
      </trkpt>
      <trkpt lat="48.78959" lon="2.42152">
        <ele>32.799999237061</ele>
        <time>2016-07-25T19:11:52.000Z</time>
      </trkpt>
      <trkpt lat="48.7894" lon="2.42145">
        <ele>33</ele>
        <time>2016-07-25T19:12:00.000Z</time>
      </trkpt>
      <trkpt lat="48.7893" lon="2.42143">
        <ele>32.799999237061</ele>
        <time>2016-07-25T19:12:05.000Z</time>
      </trkpt>
      <trkpt lat="48.78921" lon="2.42138">
        <ele>32.799999237061</ele>
        <time>2016-07-25T19:12:11.000Z</time>
      </trkpt>
      <trkpt lat="48.78909" lon="2.42129">
        <ele>32.599998474121</ele>
        <time>2016-07-25T19:12:58.000Z</time>
      </trkpt>
      <trkpt lat="48.78891" lon="2.42124">
        <ele>32.400001525879</ele>
        <time>2016-07-25T19:13:05.000Z</time>
      </trkpt>
      <trkpt lat="48.78873" lon="2.42117">
        <ele>32.200000762939</ele>
        <time>2016-07-25T19:13:10.000Z</time>
      </trkpt>
      <trkpt lat="48.78852" lon="2.42108">
        <ele>32</ele>
        <time>2016-07-25T19:13:15.000Z</time>
      </trkpt>
      <trkpt lat="48.78835" lon="2.42101">
        <ele>31.799999237061</ele>
        <time>2016-07-25T19:13:19.000Z</time>
      </trkpt>
      <trkpt lat="48.78816" lon="2.42093">
        <ele>31.60000038147</ele>
        <time>2016-07-25T19:13:23.000Z</time>
      </trkpt>
      <trkpt lat="48.78799" lon="2.42085">
        <ele>31.39999961853</ele>
        <time>2016-07-25T19:13:27.000Z</time>
      </trkpt>
      <trkpt lat="48.78779" lon="2.42075">
        <ele>31.200000762939</ele>
        <time>2016-07-25T19:13:32.000Z</time>
      </trkpt>
      <trkpt lat="48.78762" lon="2.42066">
        <ele>31.200000762939</ele>
        <time>2016-07-25T19:13:36.000Z</time>
      </trkpt>
      <trkpt lat="48.78744" lon="2.42054">
        <ele>31.39999961853</ele>
        <time>2016-07-25T19:13:40.000Z</time>
      </trkpt>
      <trkpt lat="48.78725" lon="2.42042">
        <ele>31.200000762939</ele>
        <time>2016-07-25T19:13:44.000Z</time>
      </trkpt>
      <trkpt lat="48.78705" lon="2.42029">
        <ele>31</ele>
        <time>2016-07-25T19:13:48.000Z</time>
      </trkpt>
      <trkpt lat="48.78685" lon="2.42017">
        <ele>31</ele>
        <time>2016-07-25T19:13:52.000Z</time>
      </trkpt>
      <trkpt lat="48.78665" lon="2.42008">
        <ele>31.799999237061</ele>
        <time>2016-07-25T19:13:56.000Z</time>
      </trkpt>
      <trkpt lat="48.78645" lon="2.41998">
        <ele>32.599998474121</ele>
        <time>2016-07-25T19:14:00.000Z</time>
      </trkpt>
      <trkpt lat="48.78626" lon="2.41987">
        <ele>33</ele>
        <time>2016-07-25T19:14:04.000Z</time>
      </trkpt>
      <trkpt lat="48.78607" lon="2.41975">
        <ele>33.599998474121</ele>
        <time>2016-07-25T19:14:08.000Z</time>
      </trkpt>
      <trkpt lat="48.78589" lon="2.41963">
        <ele>33.200000762939</ele>
        <time>2016-07-25T19:14:12.000Z</time>
      </trkpt>
      <trkpt lat="48.78572" lon="2.41954">
        <ele>33</ele>
        <time>2016-07-25T19:14:16.000Z</time>
      </trkpt>
      <trkpt lat="48.78561" lon="2.41946">
        <ele>32.599998474121</ele>
        <time>2016-07-25T19:14:18.000Z</time>
      </trkpt>
      <trkpt lat="48.78544" lon="2.41932">
        <ele>32.400001525879</ele>
        <time>2016-07-25T19:14:21.000Z</time>
      </trkpt>
      <trkpt lat="48.78524" lon="2.41919">
        <ele>32</ele>
        <time>2016-07-25T19:14:25.000Z</time>
      </trkpt>
      <trkpt lat="48.78503" lon="2.41907">
        <ele>32.200000762939</ele>
        <time>2016-07-25T19:14:29.000Z</time>
      </trkpt>
      <trkpt lat="48.78487" lon="2.41897">
        <ele>32.200000762939</ele>
        <time>2016-07-25T19:14:32.000Z</time>
      </trkpt>
      <trkpt lat="48.78466" lon="2.41882">
        <ele>32.200000762939</ele>
        <time>2016-07-25T19:14:36.000Z</time>
      </trkpt>
      <trkpt lat="48.78446" lon="2.41869">
        <ele>32.400001525879</ele>
        <time>2016-07-25T19:14:40.000Z</time>
      </trkpt>
      <trkpt lat="48.78426" lon="2.41856">
        <ele>32.599998474121</ele>
        <time>2016-07-25T19:14:44.000Z</time>
      </trkpt>
      <trkpt lat="48.78407" lon="2.41845">
        <ele>33</ele>
        <time>2016-07-25T19:14:48.000Z</time>
      </trkpt>
      <trkpt lat="48.78388" lon="2.41833">
        <ele>33.200000762939</ele>
        <time>2016-07-25T19:14:52.000Z</time>
      </trkpt>
      <trkpt lat="48.7837" lon="2.41821">
        <ele>33.599998474121</ele>
        <time>2016-07-25T19:14:56.000Z</time>
      </trkpt>
      <trkpt lat="48.78352" lon="2.41807">
        <ele>33.799999237061</ele>
        <time>2016-07-25T19:15:00.000Z</time>
      </trkpt>
      <trkpt lat="48.78348" lon="2.41804">
        <ele>33.799999237061</ele>
        <time>2016-07-25T19:15:01.000Z</time>
      </trkpt>
      <trkpt lat="48.7833" lon="2.41789">
        <ele>34</ele>
        <time>2016-07-25T19:15:06.000Z</time>
      </trkpt>
      <trkpt lat="48.78311" lon="2.41776">
        <ele>34.400001525879</ele>
        <time>2016-07-25T19:15:11.000Z</time>
      </trkpt>
      <trkpt lat="48.78294" lon="2.41765">
        <ele>34.599998474121</ele>
        <time>2016-07-25T19:15:15.000Z</time>
      </trkpt>
      <trkpt lat="48.78277" lon="2.41753">
        <ele>35</ele>
        <time>2016-07-25T19:15:19.000Z</time>
      </trkpt>
      <trkpt lat="48.78264" lon="2.41745">
        <ele>35</ele>
        <time>2016-07-25T19:15:22.000Z</time>
      </trkpt>
      <trkpt lat="48.78245" lon="2.41735">
        <ele>34.799999237061</ele>
        <time>2016-07-25T19:15:26.000Z</time>
      </trkpt>
      <trkpt lat="48.78225" lon="2.41721">
        <ele>34.599998474121</ele>
        <time>2016-07-25T19:15:30.000Z</time>
      </trkpt>
      <trkpt lat="48.78206" lon="2.41707">
        <ele>34.599998474121</ele>
        <time>2016-07-25T19:15:34.000Z</time>
      </trkpt>
      <trkpt lat="48.78188" lon="2.41694">
        <ele>34.400001525879</ele>
        <time>2016-07-25T19:15:38.000Z</time>
      </trkpt>
      <trkpt lat="48.78169" lon="2.4168">
        <ele>34</ele>
        <time>2016-07-25T19:15:42.000Z</time>
      </trkpt>
      <trkpt lat="48.78156" lon="2.41669">
        <ele>33.599998474121</ele>
        <time>2016-07-25T19:15:45.000Z</time>
      </trkpt>
      <trkpt lat="48.78149" lon="2.41663">
        <ele>33.599998474121</ele>
        <time>2016-07-25T19:15:47.000Z</time>
      </trkpt>
      <trkpt lat="48.7813" lon="2.4165">
        <ele>33.400001525879</ele>
        <time>2016-07-25T19:15:52.000Z</time>
      </trkpt>
      <trkpt lat="48.78123" lon="2.41646">
        <ele>33.400001525879</ele>
        <time>2016-07-25T19:15:54.000Z</time>
      </trkpt>
      <trkpt lat="48.78103" lon="2.41637">
        <ele>33.400001525879</ele>
        <time>2016-07-25T19:16:00.000Z</time>
      </trkpt>
      <trkpt lat="48.78084" lon="2.41623">
        <ele>33.799999237061</ele>
        <time>2016-07-25T19:16:04.000Z</time>
      </trkpt>
      <trkpt lat="48.78066" lon="2.4161">
        <ele>34.200000762939</ele>
        <time>2016-07-25T19:16:08.000Z</time>
      </trkpt>
      <trkpt lat="48.78061" lon="2.41606">
        <ele>34.200000762939</ele>
        <time>2016-07-25T19:16:09.000Z</time>
      </trkpt>
      <trkpt lat="48.78047" lon="2.41593">
        <ele>34.599998474121</ele>
        <time>2016-07-25T19:16:12.000Z</time>
      </trkpt>
      <trkpt lat="48.78027" lon="2.41577">
        <ele>35</ele>
        <time>2016-07-25T19:16:16.000Z</time>
      </trkpt>
      <trkpt lat="48.78008" lon="2.41564">
        <ele>35.400001525879</ele>
        <time>2016-07-25T19:16:20.000Z</time>
      </trkpt>
      <trkpt lat="48.77988" lon="2.41551">
        <ele>35.799999237061</ele>
        <time>2016-07-25T19:16:24.000Z</time>
      </trkpt>
      <trkpt lat="48.77968" lon="2.41537">
        <ele>36.200000762939</ele>
        <time>2016-07-25T19:16:28.000Z</time>
      </trkpt>
      <trkpt lat="48.77948" lon="2.41522">
        <ele>36.799999237061</ele>
        <time>2016-07-25T19:16:32.000Z</time>
      </trkpt>
      <trkpt lat="48.77943" lon="2.41519">
        <ele>36.799999237061</ele>
        <time>2016-07-25T19:16:33.000Z</time>
      </trkpt>
      <trkpt lat="48.77924" lon="2.41505">
        <ele>36.400001525879</ele>
        <time>2016-07-25T19:16:37.000Z</time>
      </trkpt>
      <trkpt lat="48.77904" lon="2.41487">
        <ele>35.599998474121</ele>
        <time>2016-07-25T19:16:41.000Z</time>
      </trkpt>
      <trkpt lat="48.77884" lon="2.41475">
        <ele>35</ele>
        <time>2016-07-25T19:16:45.000Z</time>
      </trkpt>
      <trkpt lat="48.77864" lon="2.41461">
        <ele>34.400001525879</ele>
        <time>2016-07-25T19:16:49.000Z</time>
      </trkpt>
      <trkpt lat="48.77844" lon="2.41449">
        <ele>33.799999237061</ele>
        <time>2016-07-25T19:16:53.000Z</time>
      </trkpt>
      <trkpt lat="48.77825" lon="2.4144">
        <ele>33.400001525879</ele>
        <time>2016-07-25T19:16:57.000Z</time>
      </trkpt>
      <trkpt lat="48.77808" lon="2.41426">
        <ele>33</ele>
        <time>2016-07-25T19:17:01.000Z</time>
      </trkpt>
      <trkpt lat="48.77791" lon="2.41413">
        <ele>32.799999237061</ele>
        <time>2016-07-25T19:17:05.000Z</time>
      </trkpt>
      <trkpt lat="48.77787" lon="2.41411">
        <ele>32.599998474121</ele>
        <time>2016-07-25T19:17:06.000Z</time>
      </trkpt>
      <trkpt lat="48.77771" lon="2.414">
        <ele>32.200000762939</ele>
        <time>2016-07-25T19:17:10.000Z</time>
      </trkpt>
      <trkpt lat="48.77755" lon="2.41387">
        <ele>32.400001525879</ele>
        <time>2016-07-25T19:17:14.000Z</time>
      </trkpt>
      <trkpt lat="48.77739" lon="2.41372">
        <ele>32.599998474121</ele>
        <time>2016-07-25T19:17:18.000Z</time>
      </trkpt>
      <trkpt lat="48.77723" lon="2.41354">
        <ele>32.799999237061</ele>
        <time>2016-07-25T19:17:22.000Z</time>
      </trkpt>
      <trkpt lat="48.77715" lon="2.41345">
        <ele>32.799999237061</ele>
        <time>2016-07-25T19:17:24.000Z</time>
      </trkpt>
      <trkpt lat="48.77703" lon="2.4133">
        <ele>33</ele>
        <time>2016-07-25T19:17:27.000Z</time>
      </trkpt>
      <trkpt lat="48.77685" lon="2.4131">
        <ele>33</ele>
        <time>2016-07-25T19:17:31.000Z</time>
      </trkpt>
      <trkpt lat="48.77668" lon="2.4129">
        <ele>32.799999237061</ele>
        <time>2016-07-25T19:17:35.000Z</time>
      </trkpt>
      <trkpt lat="48.77651" lon="2.4127">
        <ele>32.599998474121</ele>
        <time>2016-07-25T19:17:39.000Z</time>
      </trkpt>
      <trkpt lat="48.77633" lon="2.41249">
        <ele>32.400001525879</ele>
        <time>2016-07-25T19:17:43.000Z</time>
      </trkpt>
      <trkpt lat="48.77614" lon="2.4123">
        <ele>32.200000762939</ele>
        <time>2016-07-25T19:17:47.000Z</time>
      </trkpt>
      <trkpt lat="48.77595" lon="2.41212">
        <ele>32.400001525879</ele>
        <time>2016-07-25T19:17:51.000Z</time>
      </trkpt>
      <trkpt lat="48.77576" lon="2.41195">
        <ele>33.400001525879</ele>
        <time>2016-07-25T19:17:55.000Z</time>
      </trkpt>
      <trkpt lat="48.77563" lon="2.41181">
        <ele>34</ele>
        <time>2016-07-25T19:17:58.000Z</time>
      </trkpt>
      <trkpt lat="48.77545" lon="2.41166">
        <ele>34.799999237061</ele>
        <time>2016-07-25T19:18:02.000Z</time>
      </trkpt>
      <trkpt lat="48.77528" lon="2.41156">
        <ele>35.799999237061</ele>
        <time>2016-07-25T19:18:06.000Z</time>
      </trkpt>
      <trkpt lat="48.7751" lon="2.41141">
        <ele>36.400001525879</ele>
        <time>2016-07-25T19:18:10.000Z</time>
      </trkpt>
      <trkpt lat="48.77494" lon="2.41128">
        <ele>36.799999237061</ele>
        <time>2016-07-25T19:18:14.000Z</time>
      </trkpt>
      <trkpt lat="48.77476" lon="2.41115">
        <ele>37.200000762939</ele>
        <time>2016-07-25T19:18:19.000Z</time>
      </trkpt>
      <trkpt lat="48.7747" lon="2.4111">
        <ele>37.200000762939</ele>
        <time>2016-07-25T19:18:21.000Z</time>
      </trkpt>
      <trkpt lat="48.77456" lon="2.41102">
        <ele>37.599998474121</ele>
        <time>2016-07-25T19:18:25.000Z</time>
      </trkpt>
      <trkpt lat="48.7744" lon="2.41088">
        <ele>37.799999237061</ele>
        <time>2016-07-25T19:18:30.000Z</time>
      </trkpt>
      <trkpt lat="48.77424" lon="2.41084">
        <ele>37.400001525879</ele>
        <time>2016-07-25T19:18:35.000Z</time>
      </trkpt>
      <trkpt lat="48.77417" lon="2.4108">
        <ele>37.400001525879</ele>
        <time>2016-07-25T19:18:37.000Z</time>
      </trkpt>
      <trkpt lat="48.77403" lon="2.41071">
        <ele>37.200000762939</ele>
        <time>2016-07-25T19:18:42.000Z</time>
      </trkpt>
      <trkpt lat="48.77398" lon="2.41068">
        <ele>37</ele>
        <time>2016-07-25T19:18:45.000Z</time>
      </trkpt>
      <trkpt lat="48.77396" lon="2.41067">
        <ele>37</ele>
        <time>2016-07-25T19:18:47.000Z</time>
      </trkpt>
      <trkpt lat="48.77383" lon="2.41071">
        <ele>36.400001525879</ele>
        <time>2016-07-25T19:19:53.000Z</time>
      </trkpt>
      <trkpt lat="48.77366" lon="2.41062">
        <ele>36.200000762939</ele>
        <time>2016-07-25T19:19:58.000Z</time>
      </trkpt>
      <trkpt lat="48.77356" lon="2.41059">
        <ele>35.799999237061</ele>
        <time>2016-07-25T19:20:00.000Z</time>
      </trkpt>
      <trkpt lat="48.77336" lon="2.41055">
        <ele>35.599998474121</ele>
        <time>2016-07-25T19:20:03.000Z</time>
      </trkpt>
      <trkpt lat="48.77313" lon="2.41052">
        <ele>34.799999237061</ele>
        <time>2016-07-25T19:20:06.000Z</time>
      </trkpt>
      <trkpt lat="48.77288" lon="2.41055">
        <ele>33.400001525879</ele>
        <time>2016-07-25T19:20:09.000Z</time>
      </trkpt>
      <trkpt lat="48.77264" lon="2.41058">
        <ele>32.400001525879</ele>
        <time>2016-07-25T19:20:12.000Z</time>
      </trkpt>
      <trkpt lat="48.7724" lon="2.41062">
        <ele>32.200000762939</ele>
        <time>2016-07-25T19:20:15.000Z</time>
      </trkpt>
      <trkpt lat="48.77219" lon="2.41065">
        <ele>32.599998474121</ele>
        <time>2016-07-25T19:20:18.000Z</time>
      </trkpt>
      <trkpt lat="48.77198" lon="2.4107">
        <ele>33</ele>
        <time>2016-07-25T19:20:21.000Z</time>
      </trkpt>
      <trkpt lat="48.77174" lon="2.41068">
        <ele>33.200000762939</ele>
        <time>2016-07-25T19:20:25.000Z</time>
      </trkpt>
      <trkpt lat="48.77151" lon="2.41071">
        <ele>32.599998474121</ele>
        <time>2016-07-25T19:20:29.000Z</time>
      </trkpt>
      <trkpt lat="48.77128" lon="2.4107">
        <ele>32</ele>
        <time>2016-07-25T19:20:33.000Z</time>
      </trkpt>
      <trkpt lat="48.77107" lon="2.41068">
        <ele>31.60000038147</ele>
        <time>2016-07-25T19:20:37.000Z</time>
      </trkpt>
      <trkpt lat="48.77087" lon="2.4107">
        <ele>31.799999237061</ele>
        <time>2016-07-25T19:20:41.000Z</time>
      </trkpt>
      <trkpt lat="48.77068" lon="2.41073">
        <ele>32.200000762939</ele>
        <time>2016-07-25T19:20:45.000Z</time>
      </trkpt>
      <trkpt lat="48.77045" lon="2.41075">
        <ele>32.599998474121</ele>
        <time>2016-07-25T19:20:50.000Z</time>
      </trkpt>
      <trkpt lat="48.77028" lon="2.41075">
        <ele>33</ele>
        <time>2016-07-25T19:20:54.000Z</time>
      </trkpt>
      <trkpt lat="48.77007" lon="2.41077">
        <ele>33.599998474121</ele>
        <time>2016-07-25T19:21:00.000Z</time>
      </trkpt>
      <trkpt lat="48.76989" lon="2.41079">
        <ele>34.200000762939</ele>
        <time>2016-07-25T19:21:04.000Z</time>
      </trkpt>
      <trkpt lat="48.76966" lon="2.4108">
        <ele>35</ele>
        <time>2016-07-25T19:21:08.000Z</time>
      </trkpt>
      <trkpt lat="48.76948" lon="2.41081">
        <ele>35.599998474121</ele>
        <time>2016-07-25T19:21:11.000Z</time>
      </trkpt>
      <trkpt lat="48.76925" lon="2.41084">
        <ele>35.799999237061</ele>
        <time>2016-07-25T19:21:15.000Z</time>
      </trkpt>
      <trkpt lat="48.76905" lon="2.41086">
        <ele>35.799999237061</ele>
        <time>2016-07-25T19:21:19.000Z</time>
      </trkpt>
      <trkpt lat="48.76888" lon="2.41089">
        <ele>35.400001525879</ele>
        <time>2016-07-25T19:21:23.000Z</time>
      </trkpt>
      <trkpt lat="48.76866" lon="2.41094">
        <ele>35.200000762939</ele>
        <time>2016-07-25T19:21:28.000Z</time>
      </trkpt>
      <trkpt lat="48.76852" lon="2.41094">
        <ele>35.400001525879</ele>
        <time>2016-07-25T19:21:31.000Z</time>
      </trkpt>
      <trkpt lat="48.7683" lon="2.41095">
        <ele>35.599998474121</ele>
        <time>2016-07-25T19:21:35.000Z</time>
      </trkpt>
      <trkpt lat="48.7681" lon="2.41096">
        <ele>35.799999237061</ele>
        <time>2016-07-25T19:21:39.000Z</time>
      </trkpt>
      <trkpt lat="48.76789" lon="2.41099">
        <ele>36</ele>
        <time>2016-07-25T19:21:43.000Z</time>
      </trkpt>
      <trkpt lat="48.76768" lon="2.41101">
        <ele>37.599998474121</ele>
        <time>2016-07-25T19:21:47.000Z</time>
      </trkpt>
      <trkpt lat="48.76746" lon="2.41103">
        <ele>38.400001525879</ele>
        <time>2016-07-25T19:21:51.000Z</time>
      </trkpt>
      <trkpt lat="48.76725" lon="2.41106">
        <ele>39.200000762939</ele>
        <time>2016-07-25T19:21:55.000Z</time>
      </trkpt>
      <trkpt lat="48.76704" lon="2.41109">
        <ele>39</ele>
        <time>2016-07-25T19:21:59.000Z</time>
      </trkpt>
      <trkpt lat="48.76683" lon="2.41113">
        <ele>37.599998474121</ele>
        <time>2016-07-25T19:22:03.000Z</time>
      </trkpt>
      <trkpt lat="48.76663" lon="2.41118">
        <ele>36.799999237061</ele>
        <time>2016-07-25T19:22:07.000Z</time>
      </trkpt>
      <trkpt lat="48.76645" lon="2.41125">
        <ele>35.799999237061</ele>
        <time>2016-07-25T19:22:11.000Z</time>
      </trkpt>
      <trkpt lat="48.76636" lon="2.4113">
        <ele>35.400001525879</ele>
        <time>2016-07-25T19:22:13.000Z</time>
      </trkpt>
      <trkpt lat="48.76625" lon="2.41131">
        <ele>35</ele>
        <time>2016-07-25T19:22:16.000Z</time>
      </trkpt>
      <trkpt lat="48.76607" lon="2.41143">
        <ele>33.599998474121</ele>
        <time>2016-07-25T19:22:21.000Z</time>
      </trkpt>
      <trkpt lat="48.76601" lon="2.41145">
        <ele>33.400001525879</ele>
        <time>2016-07-25T19:22:24.000Z</time>
      </trkpt>
      <trkpt lat="48.76594" lon="2.41129">
        <ele>34.400001525879</ele>
        <time>2016-07-25T19:22:39.000Z</time>
      </trkpt>
      <trkpt lat="48.76591" lon="2.41128">
        <ele>34.400001525879</ele>
        <time>2016-07-25T19:22:43.000Z</time>
      </trkpt>
      <trkpt lat="48.76582" lon="2.41129">
        <ele>34</ele>
        <time>2016-07-25T19:22:47.000Z</time>
      </trkpt>
      <trkpt lat="48.76563" lon="2.41128">
        <ele>34</ele>
        <time>2016-07-25T19:22:54.000Z</time>
      </trkpt>
      <trkpt lat="48.76556" lon="2.41134">
        <ele>34.400001525879</ele>
        <time>2016-07-25T19:22:59.000Z</time>
      </trkpt>
      <trkpt lat="48.76575" lon="2.41131">
        <ele>33.799999237061</ele>
        <time>2016-07-25T19:23:05.000Z</time>
      </trkpt>
      <trkpt lat="48.76594" lon="2.41124">
        <ele>34.799999237061</ele>
        <time>2016-07-25T19:23:13.000Z</time>
      </trkpt>
      <trkpt lat="48.76596" lon="2.41124">
        <ele>34.799999237061</ele>
        <time>2016-07-25T19:23:15.000Z</time>
      </trkpt>
      <trkpt lat="48.76599" lon="2.41132">
        <ele>34.200000762939</ele>
        <time>2016-07-25T19:23:20.000Z</time>
      </trkpt>
      <trkpt lat="48.76603" lon="2.41151">
        <ele>33</ele>
        <time>2016-07-25T19:24:15.000Z</time>
      </trkpt>
      <trkpt lat="48.76609" lon="2.41178">
        <ele>32.200000762939</ele>
        <time>2016-07-25T19:24:22.000Z</time>
      </trkpt>
      <trkpt lat="48.76618" lon="2.41207">
        <ele>32.599998474121</ele>
        <time>2016-07-25T19:24:28.000Z</time>
      </trkpt>
      <trkpt lat="48.76624" lon="2.41234">
        <ele>33</ele>
        <time>2016-07-25T19:24:33.000Z</time>
      </trkpt>
      <trkpt lat="48.7663" lon="2.41259">
        <ele>33.200000762939</ele>
        <time>2016-07-25T19:24:38.000Z</time>
      </trkpt>
      <trkpt lat="48.76636" lon="2.41285">
        <ele>33.200000762939</ele>
        <time>2016-07-25T19:24:43.000Z</time>
      </trkpt>
      <trkpt lat="48.76642" lon="2.41314">
        <ele>33.599998474121</ele>
        <time>2016-07-25T19:24:50.000Z</time>
      </trkpt>
      <trkpt lat="48.76651" lon="2.41318">
        <ele>34</ele>
        <time>2016-07-25T19:25:57.000Z</time>
      </trkpt>
      <trkpt lat="48.7665" lon="2.4131">
        <ele>33.799999237061</ele>
        <time>2016-07-25T19:26:03.000Z</time>
      </trkpt>
      <trkpt lat="48.76656" lon="2.41315">
        <ele>34</ele>
        <time>2016-07-25T19:26:12.000Z</time>
      </trkpt>
      <trkpt lat="48.76664" lon="2.41342">
        <ele>34.200000762939</ele>
        <time>2016-07-25T19:26:18.000Z</time>
      </trkpt>
      <trkpt lat="48.76673" lon="2.41369">
        <ele>34.200000762939</ele>
        <time>2016-07-25T19:26:23.000Z</time>
      </trkpt>
      <trkpt lat="48.76681" lon="2.41396">
        <ele>34</ele>
        <time>2016-07-25T19:26:28.000Z</time>
      </trkpt>
      <trkpt lat="48.76687" lon="2.41426">
        <ele>34.200000762939</ele>
        <time>2016-07-25T19:26:32.000Z</time>
      </trkpt>
      <trkpt lat="48.76695" lon="2.41456">
        <ele>34.799999237061</ele>
        <time>2016-07-25T19:26:36.000Z</time>
      </trkpt>
      <trkpt lat="48.76705" lon="2.41487">
        <ele>35.400001525879</ele>
        <time>2016-07-25T19:26:40.000Z</time>
      </trkpt>
      <trkpt lat="48.76713" lon="2.41513">
        <ele>35.400001525879</ele>
        <time>2016-07-25T19:26:43.000Z</time>
      </trkpt>
      <trkpt lat="48.76721" lon="2.41542">
        <ele>35</ele>
        <time>2016-07-25T19:26:46.000Z</time>
      </trkpt>
      <trkpt lat="48.76731" lon="2.41574">
        <ele>34.599998474121</ele>
        <time>2016-07-25T19:26:49.000Z</time>
      </trkpt>
      <trkpt lat="48.76741" lon="2.41607">
        <ele>34.599998474121</ele>
        <time>2016-07-25T19:26:52.000Z</time>
      </trkpt>
      <trkpt lat="48.76751" lon="2.41642">
        <ele>35</ele>
        <time>2016-07-25T19:26:55.000Z</time>
      </trkpt>
      <trkpt lat="48.76762" lon="2.41676">
        <ele>34.799999237061</ele>
        <time>2016-07-25T19:26:58.000Z</time>
      </trkpt>
      <trkpt lat="48.76772" lon="2.41708">
        <ele>34.400001525879</ele>
        <time>2016-07-25T19:27:01.000Z</time>
      </trkpt>
      <trkpt lat="48.76781" lon="2.41738">
        <ele>34</ele>
        <time>2016-07-25T19:27:04.000Z</time>
      </trkpt>
      <trkpt lat="48.76789" lon="2.41766">
        <ele>34</ele>
        <time>2016-07-25T19:27:07.000Z</time>
      </trkpt>
      <trkpt lat="48.76798" lon="2.41795">
        <ele>34</ele>
        <time>2016-07-25T19:27:10.000Z</time>
      </trkpt>
      <trkpt lat="48.76807" lon="2.4182">
        <ele>34</ele>
        <time>2016-07-25T19:27:13.000Z</time>
      </trkpt>
      <trkpt lat="48.76814" lon="2.41845">
        <ele>33.799999237061</ele>
        <time>2016-07-25T19:27:16.000Z</time>
      </trkpt>
      <trkpt lat="48.76822" lon="2.41871">
        <ele>33.599998474121</ele>
        <time>2016-07-25T19:27:19.000Z</time>
      </trkpt>
      <trkpt lat="48.7683" lon="2.41896">
        <ele>33.200000762939</ele>
        <time>2016-07-25T19:27:22.000Z</time>
      </trkpt>
      <trkpt lat="48.76838" lon="2.41921">
        <ele>33.200000762939</ele>
        <time>2016-07-25T19:27:25.000Z</time>
      </trkpt>
      <trkpt lat="48.76845" lon="2.41948">
        <ele>32.799999237061</ele>
        <time>2016-07-25T19:27:28.000Z</time>
      </trkpt>
      <trkpt lat="48.76853" lon="2.41974">
        <ele>32.400001525879</ele>
        <time>2016-07-25T19:27:31.000Z</time>
      </trkpt>
      <trkpt lat="48.76862" lon="2.41999">
        <ele>32</ele>
        <time>2016-07-25T19:27:34.000Z</time>
      </trkpt>
      <trkpt lat="48.76869" lon="2.42026">
        <ele>32.200000762939</ele>
        <time>2016-07-25T19:27:37.000Z</time>
      </trkpt>
      <trkpt lat="48.76872" lon="2.42035">
        <ele>32.400001525879</ele>
        <time>2016-07-25T19:27:38.000Z</time>
      </trkpt>
      <trkpt lat="48.7688" lon="2.42063">
        <ele>33</ele>
        <time>2016-07-25T19:27:41.000Z</time>
      </trkpt>
      <trkpt lat="48.76886" lon="2.4209">
        <ele>33.400001525879</ele>
        <time>2016-07-25T19:27:44.000Z</time>
      </trkpt>
      <trkpt lat="48.76894" lon="2.42116">
        <ele>33.400001525879</ele>
        <time>2016-07-25T19:27:47.000Z</time>
      </trkpt>
      <trkpt lat="48.76902" lon="2.42142">
        <ele>33.400001525879</ele>
        <time>2016-07-25T19:27:50.000Z</time>
      </trkpt>
      <trkpt lat="48.76911" lon="2.42174">
        <ele>33.200000762939</ele>
        <time>2016-07-25T19:27:54.000Z</time>
      </trkpt>
      <trkpt lat="48.76918" lon="2.42201">
        <ele>32.799999237061</ele>
        <time>2016-07-25T19:27:58.000Z</time>
      </trkpt>
      <trkpt lat="48.76926" lon="2.42225">
        <ele>32.400001525879</ele>
        <time>2016-07-25T19:28:02.000Z</time>
      </trkpt>
      <trkpt lat="48.7693" lon="2.42238">
        <ele>32.200000762939</ele>
        <time>2016-07-25T19:28:04.000Z</time>
      </trkpt>
      <trkpt lat="48.76934" lon="2.42251">
        <ele>32</ele>
        <time>2016-07-25T19:28:06.000Z</time>
      </trkpt>
      <trkpt lat="48.7694" lon="2.42272">
        <ele>32</ele>
        <time>2016-07-25T19:28:09.000Z</time>
      </trkpt>
      <trkpt lat="48.76944" lon="2.42289">
        <ele>32</ele>
        <time>2016-07-25T19:28:11.000Z</time>
      </trkpt>
      <trkpt lat="48.76953" lon="2.42313">
        <ele>31.799999237061</ele>
        <time>2016-07-25T19:28:14.000Z</time>
      </trkpt>
      <trkpt lat="48.7696" lon="2.42341">
        <ele>31.799999237061</ele>
        <time>2016-07-25T19:28:17.000Z</time>
      </trkpt>
      <trkpt lat="48.76968" lon="2.42369">
        <ele>32.200000762939</ele>
        <time>2016-07-25T19:28:20.000Z</time>
      </trkpt>
      <trkpt lat="48.76976" lon="2.42398">
        <ele>32.599998474121</ele>
        <time>2016-07-25T19:28:23.000Z</time>
      </trkpt>
      <trkpt lat="48.76985" lon="2.42428">
        <ele>33.200000762939</ele>
        <time>2016-07-25T19:28:26.000Z</time>
      </trkpt>
      <trkpt lat="48.76994" lon="2.4246">
        <ele>33.799999237061</ele>
        <time>2016-07-25T19:28:29.000Z</time>
      </trkpt>
      <trkpt lat="48.77003" lon="2.4249">
        <ele>34.200000762939</ele>
        <time>2016-07-25T19:28:32.000Z</time>
      </trkpt>
      <trkpt lat="48.77012" lon="2.42521">
        <ele>33.799999237061</ele>
        <time>2016-07-25T19:28:35.000Z</time>
      </trkpt>
      <trkpt lat="48.77022" lon="2.42553">
        <ele>33.400001525879</ele>
        <time>2016-07-25T19:28:38.000Z</time>
      </trkpt>
      <trkpt lat="48.7703" lon="2.42574">
        <ele>33</ele>
        <time>2016-07-25T19:28:40.000Z</time>
      </trkpt>
      <trkpt lat="48.77037" lon="2.42604">
        <ele>33.599998474121</ele>
        <time>2016-07-25T19:28:43.000Z</time>
      </trkpt>
      <trkpt lat="48.77047" lon="2.42634">
        <ele>34.200000762939</ele>
        <time>2016-07-25T19:28:46.000Z</time>
      </trkpt>
      <trkpt lat="48.77056" lon="2.42665">
        <ele>35</ele>
        <time>2016-07-25T19:28:49.000Z</time>
      </trkpt>
      <trkpt lat="48.77066" lon="2.42698">
        <ele>34.599998474121</ele>
        <time>2016-07-25T19:28:52.000Z</time>
      </trkpt>
      <trkpt lat="48.77075" lon="2.42731">
        <ele>34.400001525879</ele>
        <time>2016-07-25T19:28:55.000Z</time>
      </trkpt>
      <trkpt lat="48.77083" lon="2.42762">
        <ele>34.599998474121</ele>
        <time>2016-07-25T19:28:58.000Z</time>
      </trkpt>
      <trkpt lat="48.77091" lon="2.42793">
        <ele>34.799999237061</ele>
        <time>2016-07-25T19:29:01.000Z</time>
      </trkpt>
      <trkpt lat="48.771" lon="2.42823">
        <ele>35</ele>
        <time>2016-07-25T19:29:04.000Z</time>
      </trkpt>
      <trkpt lat="48.77111" lon="2.42855">
        <ele>34.400001525879</ele>
        <time>2016-07-25T19:29:07.000Z</time>
      </trkpt>
      <trkpt lat="48.77121" lon="2.42887">
        <ele>33.200000762939</ele>
        <time>2016-07-25T19:29:10.000Z</time>
      </trkpt>
      <trkpt lat="48.77129" lon="2.42919">
        <ele>32.400001525879</ele>
        <time>2016-07-25T19:29:13.000Z</time>
      </trkpt>
      <trkpt lat="48.77139" lon="2.42951">
        <ele>32.599998474121</ele>
        <time>2016-07-25T19:29:16.000Z</time>
      </trkpt>
      <trkpt lat="48.77148" lon="2.42984">
        <ele>31.799999237061</ele>
        <time>2016-07-25T19:29:19.000Z</time>
      </trkpt>
      <trkpt lat="48.77159" lon="2.43019">
        <ele>32.400001525879</ele>
        <time>2016-07-25T19:29:22.000Z</time>
      </trkpt>
      <trkpt lat="48.77167" lon="2.43043">
        <ele>33.400001525879</ele>
        <time>2016-07-25T19:29:24.000Z</time>
      </trkpt>
      <trkpt lat="48.77179" lon="2.43079">
        <ele>34.599998474121</ele>
        <time>2016-07-25T19:29:27.000Z</time>
      </trkpt>
      <trkpt lat="48.77189" lon="2.43112">
        <ele>35</ele>
        <time>2016-07-25T19:29:30.000Z</time>
      </trkpt>
      <trkpt lat="48.772" lon="2.43143">
        <ele>34.799999237061</ele>
        <time>2016-07-25T19:29:33.000Z</time>
      </trkpt>
      <trkpt lat="48.7721" lon="2.43173">
        <ele>34.799999237061</ele>
        <time>2016-07-25T19:29:36.000Z</time>
      </trkpt>
      <trkpt lat="48.7722" lon="2.43204">
        <ele>34.599998474121</ele>
        <time>2016-07-25T19:29:39.000Z</time>
      </trkpt>
      <trkpt lat="48.7723" lon="2.43235">
        <ele>34.200000762939</ele>
        <time>2016-07-25T19:29:42.000Z</time>
      </trkpt>
      <trkpt lat="48.77241" lon="2.43266">
        <ele>33.400001525879</ele>
        <time>2016-07-25T19:29:45.000Z</time>
      </trkpt>
      <trkpt lat="48.77252" lon="2.43298">
        <ele>32.200000762939</ele>
        <time>2016-07-25T19:29:48.000Z</time>
      </trkpt>
      <trkpt lat="48.77258" lon="2.43326">
        <ele>31.39999961853</ele>
        <time>2016-07-25T19:29:51.000Z</time>
      </trkpt>
      <trkpt lat="48.77267" lon="2.43353">
        <ele>31.39999961853</ele>
        <time>2016-07-25T19:29:54.000Z</time>
      </trkpt>
      <trkpt lat="48.77276" lon="2.43381">
        <ele>31.799999237061</ele>
        <time>2016-07-25T19:29:57.000Z</time>
      </trkpt>
      <trkpt lat="48.77284" lon="2.43409">
        <ele>32.200000762939</ele>
        <time>2016-07-25T19:30:00.000Z</time>
      </trkpt>
      <trkpt lat="48.77291" lon="2.43437">
        <ele>32.799999237061</ele>
        <time>2016-07-25T19:30:03.000Z</time>
      </trkpt>
      <trkpt lat="48.77299" lon="2.43467">
        <ele>33.799999237061</ele>
        <time>2016-07-25T19:30:07.000Z</time>
      </trkpt>
      <trkpt lat="48.77307" lon="2.43495">
        <ele>34.799999237061</ele>
        <time>2016-07-25T19:30:11.000Z</time>
      </trkpt>
      <trkpt lat="48.77313" lon="2.43522">
        <ele>35.200000762939</ele>
        <time>2016-07-25T19:30:16.000Z</time>
      </trkpt>
      <trkpt lat="48.77313" lon="2.43526">
        <ele>35.400001525879</ele>
        <time>2016-07-25T19:30:18.000Z</time>
      </trkpt>
      <trkpt lat="48.77312" lon="2.43525">
        <ele>35.400001525879</ele>
        <time>2016-07-25T19:32:03.000Z</time>
      </trkpt>
      <trkpt lat="48.77321" lon="2.43548">
        <ele>35.599998474121</ele>
        <time>2016-07-25T19:32:34.000Z</time>
      </trkpt>
      <trkpt lat="48.77329" lon="2.43577">
        <ele>36</ele>
        <time>2016-07-25T19:32:40.000Z</time>
      </trkpt>
      <trkpt lat="48.77338" lon="2.43607">
        <ele>35.400001525879</ele>
        <time>2016-07-25T19:32:45.000Z</time>
      </trkpt>
      <trkpt lat="48.77346" lon="2.43635">
        <ele>34.799999237061</ele>
        <time>2016-07-25T19:32:49.000Z</time>
      </trkpt>
      <trkpt lat="48.77355" lon="2.43666">
        <ele>34</ele>
        <time>2016-07-25T19:32:53.000Z</time>
      </trkpt>
      <trkpt lat="48.77363" lon="2.43692">
        <ele>34.400001525879</ele>
        <time>2016-07-25T19:32:56.000Z</time>
      </trkpt>
      <trkpt lat="48.77372" lon="2.43721">
        <ele>34.799999237061</ele>
        <time>2016-07-25T19:32:59.000Z</time>
      </trkpt>
      <trkpt lat="48.77381" lon="2.4375">
        <ele>35.400001525879</ele>
        <time>2016-07-25T19:33:02.000Z</time>
      </trkpt>
      <trkpt lat="48.77389" lon="2.43781">
        <ele>35.799999237061</ele>
        <time>2016-07-25T19:33:05.000Z</time>
      </trkpt>
      <trkpt lat="48.77397" lon="2.43809">
        <ele>36.200000762939</ele>
        <time>2016-07-25T19:33:08.000Z</time>
      </trkpt>
      <trkpt lat="48.77405" lon="2.43834">
        <ele>36.599998474121</ele>
        <time>2016-07-25T19:33:11.000Z</time>
      </trkpt>
      <trkpt lat="48.77415" lon="2.43864">
        <ele>36.799999237061</ele>
        <time>2016-07-25T19:33:15.000Z</time>
      </trkpt>
      <trkpt lat="48.77427" lon="2.43891">
        <ele>36.799999237061</ele>
        <time>2016-07-25T19:33:19.000Z</time>
      </trkpt>
      <trkpt lat="48.77442" lon="2.43916">
        <ele>37</ele>
        <time>2016-07-25T19:33:23.000Z</time>
      </trkpt>
      <trkpt lat="48.77455" lon="2.43935">
        <ele>37</ele>
        <time>2016-07-25T19:33:26.000Z</time>
      </trkpt>
      <trkpt lat="48.7747" lon="2.43952">
        <ele>37</ele>
        <time>2016-07-25T19:33:29.000Z</time>
      </trkpt>
      <trkpt lat="48.77488" lon="2.43969">
        <ele>37</ele>
        <time>2016-07-25T19:33:32.000Z</time>
      </trkpt>
      <trkpt lat="48.77508" lon="2.43987">
        <ele>37</ele>
        <time>2016-07-25T19:33:35.000Z</time>
      </trkpt>
      <trkpt lat="48.7753" lon="2.44006">
        <ele>36.799999237061</ele>
        <time>2016-07-25T19:33:38.000Z</time>
      </trkpt>
      <trkpt lat="48.77552" lon="2.44025">
        <ele>36</ele>
        <time>2016-07-25T19:33:41.000Z</time>
      </trkpt>
      <trkpt lat="48.77576" lon="2.44045">
        <ele>35.200000762939</ele>
        <time>2016-07-25T19:33:44.000Z</time>
      </trkpt>
      <trkpt lat="48.77598" lon="2.44066">
        <ele>34.400001525879</ele>
        <time>2016-07-25T19:33:47.000Z</time>
      </trkpt>
      <trkpt lat="48.77614" lon="2.44081">
        <ele>34.400001525879</ele>
        <time>2016-07-25T19:33:49.000Z</time>
      </trkpt>
      <trkpt lat="48.7763" lon="2.44095">
        <ele>35.599998474121</ele>
        <time>2016-07-25T19:33:51.000Z</time>
      </trkpt>
      <trkpt lat="48.77646" lon="2.44109">
        <ele>36.599998474121</ele>
        <time>2016-07-25T19:33:53.000Z</time>
      </trkpt>
      <trkpt lat="48.77668" lon="2.4413">
        <ele>38.200000762939</ele>
        <time>2016-07-25T19:33:56.000Z</time>
      </trkpt>
      <trkpt lat="48.77689" lon="2.44149">
        <ele>39.599998474121</ele>
        <time>2016-07-25T19:33:59.000Z</time>
      </trkpt>
      <trkpt lat="48.77709" lon="2.44165">
        <ele>39.200000762939</ele>
        <time>2016-07-25T19:34:02.000Z</time>
      </trkpt>
      <trkpt lat="48.7773" lon="2.44183">
        <ele>39.200000762939</ele>
        <time>2016-07-25T19:34:05.000Z</time>
      </trkpt>
      <trkpt lat="48.77751" lon="2.442">
        <ele>39</ele>
        <time>2016-07-25T19:34:08.000Z</time>
      </trkpt>
      <trkpt lat="48.77772" lon="2.44217">
        <ele>38.799999237061</ele>
        <time>2016-07-25T19:34:11.000Z</time>
      </trkpt>
      <trkpt lat="48.77792" lon="2.44234">
        <ele>38.799999237061</ele>
        <time>2016-07-25T19:34:14.000Z</time>
      </trkpt>
      <trkpt lat="48.77808" lon="2.4425">
        <ele>38.799999237061</ele>
        <time>2016-07-25T19:34:17.000Z</time>
      </trkpt>
      <trkpt lat="48.77827" lon="2.44267">
        <ele>39.200000762939</ele>
        <time>2016-07-25T19:34:20.000Z</time>
      </trkpt>
      <trkpt lat="48.77848" lon="2.44282">
        <ele>39.599998474121</ele>
        <time>2016-07-25T19:34:23.000Z</time>
      </trkpt>
      <trkpt lat="48.77868" lon="2.44299">
        <ele>39.400001525879</ele>
        <time>2016-07-25T19:34:26.000Z</time>
      </trkpt>
      <trkpt lat="48.77887" lon="2.44316">
        <ele>39</ele>
        <time>2016-07-25T19:34:29.000Z</time>
      </trkpt>
      <trkpt lat="48.77907" lon="2.44333">
        <ele>38.599998474121</ele>
        <time>2016-07-25T19:34:32.000Z</time>
      </trkpt>
      <trkpt lat="48.77926" lon="2.44347">
        <ele>37.400001525879</ele>
        <time>2016-07-25T19:34:35.000Z</time>
      </trkpt>
      <trkpt lat="48.77945" lon="2.44361">
        <ele>36.200000762939</ele>
        <time>2016-07-25T19:34:38.000Z</time>
      </trkpt>
      <trkpt lat="48.77963" lon="2.44376">
        <ele>35.599998474121</ele>
        <time>2016-07-25T19:34:41.000Z</time>
      </trkpt>
      <trkpt lat="48.77979" lon="2.44391">
        <ele>35</ele>
        <time>2016-07-25T19:34:44.000Z</time>
      </trkpt>
      <trkpt lat="48.77995" lon="2.44404">
        <ele>34.400001525879</ele>
        <time>2016-07-25T19:34:47.000Z</time>
      </trkpt>
      <trkpt lat="48.78011" lon="2.44416">
        <ele>33.599998474121</ele>
        <time>2016-07-25T19:34:50.000Z</time>
      </trkpt>
      <trkpt lat="48.78028" lon="2.4443">
        <ele>33.200000762939</ele>
        <time>2016-07-25T19:34:53.000Z</time>
      </trkpt>
      <trkpt lat="48.78046" lon="2.44446">
        <ele>33.200000762939</ele>
        <time>2016-07-25T19:34:56.000Z</time>
      </trkpt>
      <trkpt lat="48.78065" lon="2.44463">
        <ele>33</ele>
        <time>2016-07-25T19:34:59.000Z</time>
      </trkpt>
      <trkpt lat="48.78083" lon="2.44479">
        <ele>33</ele>
        <time>2016-07-25T19:35:02.000Z</time>
      </trkpt>
      <trkpt lat="48.78103" lon="2.44495">
        <ele>33</ele>
        <time>2016-07-25T19:35:05.000Z</time>
      </trkpt>
      <trkpt lat="48.78122" lon="2.4451">
        <ele>33</ele>
        <time>2016-07-25T19:35:08.000Z</time>
      </trkpt>
      <trkpt lat="48.78141" lon="2.44526">
        <ele>33</ele>
        <time>2016-07-25T19:35:11.000Z</time>
      </trkpt>
      <trkpt lat="48.78147" lon="2.44531">
        <ele>33</ele>
        <time>2016-07-25T19:35:12.000Z</time>
      </trkpt>
      <trkpt lat="48.78165" lon="2.44548">
        <ele>33</ele>
        <time>2016-07-25T19:35:15.000Z</time>
      </trkpt>
      <trkpt lat="48.78185" lon="2.44564">
        <ele>33</ele>
        <time>2016-07-25T19:35:18.000Z</time>
      </trkpt>
      <trkpt lat="48.78204" lon="2.44581">
        <ele>34</ele>
        <time>2016-07-25T19:35:21.000Z</time>
      </trkpt>
      <trkpt lat="48.78223" lon="2.44597">
        <ele>34.799999237061</ele>
        <time>2016-07-25T19:35:24.000Z</time>
      </trkpt>
      <trkpt lat="48.78243" lon="2.44613">
        <ele>35.599998474121</ele>
        <time>2016-07-25T19:35:27.000Z</time>
      </trkpt>
      <trkpt lat="48.78262" lon="2.4463">
        <ele>36.200000762939</ele>
        <time>2016-07-25T19:35:30.000Z</time>
      </trkpt>
      <trkpt lat="48.78281" lon="2.44646">
        <ele>36.799999237061</ele>
        <time>2016-07-25T19:35:33.000Z</time>
      </trkpt>
      <trkpt lat="48.78299" lon="2.44662">
        <ele>37</ele>
        <time>2016-07-25T19:35:36.000Z</time>
      </trkpt>
      <trkpt lat="48.78319" lon="2.44677">
        <ele>37.200000762939</ele>
        <time>2016-07-25T19:35:39.000Z</time>
      </trkpt>
      <trkpt lat="48.78336" lon="2.44693">
        <ele>37</ele>
        <time>2016-07-25T19:35:42.000Z</time>
      </trkpt>
      <trkpt lat="48.78355" lon="2.44709">
        <ele>37</ele>
        <time>2016-07-25T19:35:45.000Z</time>
      </trkpt>
      <trkpt lat="48.78375" lon="2.44725">
        <ele>35.599998474121</ele>
        <time>2016-07-25T19:35:48.000Z</time>
      </trkpt>
      <trkpt lat="48.78392" lon="2.4474">
        <ele>34.599998474121</ele>
        <time>2016-07-25T19:35:51.000Z</time>
      </trkpt>
      <trkpt lat="48.78411" lon="2.4476">
        <ele>33.799999237061</ele>
        <time>2016-07-25T19:35:55.000Z</time>
      </trkpt>
      <trkpt lat="48.7843" lon="2.44778">
        <ele>33.799999237061</ele>
        <time>2016-07-25T19:35:59.000Z</time>
      </trkpt>
      <trkpt lat="48.78434" lon="2.44782">
        <ele>34</ele>
        <time>2016-07-25T19:36:00.000Z</time>
      </trkpt>
      <trkpt lat="48.78452" lon="2.44799">
        <ele>34.599998474121</ele>
        <time>2016-07-25T19:36:04.000Z</time>
      </trkpt>
      <trkpt lat="48.78471" lon="2.44817">
        <ele>35.400001525879</ele>
        <time>2016-07-25T19:36:08.000Z</time>
      </trkpt>
      <trkpt lat="48.78488" lon="2.44833">
        <ele>36.200000762939</ele>
        <time>2016-07-25T19:36:11.000Z</time>
      </trkpt>
      <trkpt lat="48.78506" lon="2.44849">
        <ele>36.200000762939</ele>
        <time>2016-07-25T19:36:14.000Z</time>
      </trkpt>
      <trkpt lat="48.78524" lon="2.44865">
        <ele>36.400001525879</ele>
        <time>2016-07-25T19:36:17.000Z</time>
      </trkpt>
      <trkpt lat="48.78543" lon="2.44882">
        <ele>37.400001525879</ele>
        <time>2016-07-25T19:36:20.000Z</time>
      </trkpt>
      <trkpt lat="48.78563" lon="2.44898">
        <ele>38.400001525879</ele>
        <time>2016-07-25T19:36:23.000Z</time>
      </trkpt>
      <trkpt lat="48.78584" lon="2.44917">
        <ele>39.599998474121</ele>
        <time>2016-07-25T19:36:26.000Z</time>
      </trkpt>
      <trkpt lat="48.78605" lon="2.44936">
        <ele>42.599998474121</ele>
        <time>2016-07-25T19:36:29.000Z</time>
      </trkpt>
      <trkpt lat="48.78626" lon="2.44953">
        <ele>41.599998474121</ele>
        <time>2016-07-25T19:36:32.000Z</time>
      </trkpt>
      <trkpt lat="48.78644" lon="2.4497">
        <ele>41</ele>
        <time>2016-07-25T19:36:35.000Z</time>
      </trkpt>
      <trkpt lat="48.78662" lon="2.44986">
        <ele>40.200000762939</ele>
        <time>2016-07-25T19:36:38.000Z</time>
      </trkpt>
      <trkpt lat="48.78678" lon="2.45001">
        <ele>39.200000762939</ele>
        <time>2016-07-25T19:36:41.000Z</time>
      </trkpt>
      <trkpt lat="48.78697" lon="2.45016">
        <ele>37.400001525879</ele>
        <time>2016-07-25T19:36:45.000Z</time>
      </trkpt>
      <trkpt lat="48.78716" lon="2.45032">
        <ele>37</ele>
        <time>2016-07-25T19:36:50.000Z</time>
      </trkpt>
      <trkpt lat="48.78732" lon="2.45047">
        <ele>36.799999237061</ele>
        <time>2016-07-25T19:36:55.000Z</time>
      </trkpt>
      <trkpt lat="48.78749" lon="2.45062">
        <ele>36.400001525879</ele>
        <time>2016-07-25T19:37:02.000Z</time>
      </trkpt>
      <trkpt lat="48.78755" lon="2.45066">
        <ele>36.400001525879</ele>
        <time>2016-07-25T19:37:05.000Z</time>
      </trkpt>
      <trkpt lat="48.78763" lon="2.45072">
        <ele>36.200000762939</ele>
        <time>2016-07-25T19:37:09.000Z</time>
      </trkpt>
      <trkpt lat="48.78765" lon="2.45073">
        <ele>36.200000762939</ele>
        <time>2016-07-25T19:37:12.000Z</time>
      </trkpt>
      <trkpt lat="48.78768" lon="2.45068">
        <ele>36.200000762939</ele>
        <time>2016-07-25T19:39:01.000Z</time>
      </trkpt>
      <trkpt lat="48.78782" lon="2.45089">
        <ele>36</ele>
        <time>2016-07-25T19:39:19.000Z</time>
      </trkpt>
      <trkpt lat="48.78798" lon="2.45103">
        <ele>36</ele>
        <time>2016-07-25T19:39:26.000Z</time>
      </trkpt>
      <trkpt lat="48.78815" lon="2.45117">
        <ele>36</ele>
        <time>2016-07-25T19:39:33.000Z</time>
      </trkpt>
      <trkpt lat="48.78833" lon="2.45129">
        <ele>36</ele>
        <time>2016-07-25T19:39:39.000Z</time>
      </trkpt>
      <trkpt lat="48.78851" lon="2.45145">
        <ele>36.200000762939</ele>
        <time>2016-07-25T19:39:44.000Z</time>
      </trkpt>
      <trkpt lat="48.78873" lon="2.45155">
        <ele>36.200000762939</ele>
        <time>2016-07-25T19:39:49.000Z</time>
      </trkpt>
      <trkpt lat="48.78891" lon="2.45174">
        <ele>36.599998474121</ele>
        <time>2016-07-25T19:39:53.000Z</time>
      </trkpt>
      <trkpt lat="48.78906" lon="2.45194">
        <ele>36.400001525879</ele>
        <time>2016-07-25T19:39:57.000Z</time>
      </trkpt>
      <trkpt lat="48.78924" lon="2.45211">
        <ele>36.200000762939</ele>
        <time>2016-07-25T19:40:01.000Z</time>
      </trkpt>
      <trkpt lat="48.78943" lon="2.45228">
        <ele>36</ele>
        <time>2016-07-25T19:40:05.000Z</time>
      </trkpt>
      <trkpt lat="48.78957" lon="2.45238">
        <ele>36.200000762939</ele>
        <time>2016-07-25T19:40:08.000Z</time>
      </trkpt>
      <trkpt lat="48.78976" lon="2.45249">
        <ele>36.400001525879</ele>
        <time>2016-07-25T19:40:12.000Z</time>
      </trkpt>
      <trkpt lat="48.78993" lon="2.45258">
        <ele>36.599998474121</ele>
        <time>2016-07-25T19:40:16.000Z</time>
      </trkpt>
      <trkpt lat="48.79013" lon="2.4527">
        <ele>36.599998474121</ele>
        <time>2016-07-25T19:40:21.000Z</time>
      </trkpt>
      <trkpt lat="48.79029" lon="2.45285">
        <ele>36.599998474121</ele>
        <time>2016-07-25T19:40:26.000Z</time>
      </trkpt>
      <trkpt lat="48.79034" lon="2.45294">
        <ele>36.599998474121</ele>
        <time>2016-07-25T19:40:29.000Z</time>
      </trkpt>
      <trkpt lat="48.79038" lon="2.45302">
        <ele>36.599998474121</ele>
        <time>2016-07-25T19:40:31.000Z</time>
      </trkpt>
      <trkpt lat="48.79043" lon="2.45309">
        <ele>36.599998474121</ele>
        <time>2016-07-25T19:40:33.000Z</time>
      </trkpt>
      <trkpt lat="48.79053" lon="2.45326">
        <ele>36.400001525879</ele>
        <time>2016-07-25T19:40:38.000Z</time>
      </trkpt>
      <trkpt lat="48.79055" lon="2.45353">
        <ele>36</ele>
        <time>2016-07-25T19:40:46.000Z</time>
      </trkpt>
      <trkpt lat="48.79067" lon="2.45378">
        <ele>35.400001525879</ele>
        <time>2016-07-25T19:40:52.000Z</time>
      </trkpt>
      <trkpt lat="48.79076" lon="2.45404">
        <ele>35.400001525879</ele>
        <time>2016-07-25T19:40:57.000Z</time>
      </trkpt>
      <trkpt lat="48.79081" lon="2.45433">
        <ele>35.200000762939</ele>
        <time>2016-07-25T19:41:02.000Z</time>
      </trkpt>
      <trkpt lat="48.79089" lon="2.45459">
        <ele>35.200000762939</ele>
        <time>2016-07-25T19:41:06.000Z</time>
      </trkpt>
      <trkpt lat="48.79098" lon="2.45486">
        <ele>35</ele>
        <time>2016-07-25T19:41:10.000Z</time>
      </trkpt>
      <trkpt lat="48.79109" lon="2.4551">
        <ele>35.400001525879</ele>
        <time>2016-07-25T19:41:13.000Z</time>
      </trkpt>
      <trkpt lat="48.79117" lon="2.45528">
        <ele>36.200000762939</ele>
        <time>2016-07-25T19:41:15.000Z</time>
      </trkpt>
      <trkpt lat="48.7913" lon="2.45557">
        <ele>37.400001525879</ele>
        <time>2016-07-25T19:41:18.000Z</time>
      </trkpt>
      <trkpt lat="48.79143" lon="2.45583">
        <ele>38.599998474121</ele>
        <time>2016-07-25T19:41:21.000Z</time>
      </trkpt>
      <trkpt lat="48.79154" lon="2.4561">
        <ele>38</ele>
        <time>2016-07-25T19:41:24.000Z</time>
      </trkpt>
      <trkpt lat="48.79164" lon="2.45637">
        <ele>37.599998474121</ele>
        <time>2016-07-25T19:41:27.000Z</time>
      </trkpt>
      <trkpt lat="48.79172" lon="2.45663">
        <ele>37.799999237061</ele>
        <time>2016-07-25T19:41:30.000Z</time>
      </trkpt>
      <trkpt lat="48.7918" lon="2.4569">
        <ele>37.599998474121</ele>
        <time>2016-07-25T19:41:33.000Z</time>
      </trkpt>
      <trkpt lat="48.7919" lon="2.45713">
        <ele>37.599998474121</ele>
        <time>2016-07-25T19:41:36.000Z</time>
      </trkpt>
      <trkpt lat="48.79204" lon="2.45734">
        <ele>37.799999237061</ele>
        <time>2016-07-25T19:41:40.000Z</time>
      </trkpt>
      <trkpt lat="48.79209" lon="2.45744">
        <ele>38</ele>
        <time>2016-07-25T19:41:42.000Z</time>
      </trkpt>
      <trkpt lat="48.79221" lon="2.45774">
        <ele>38.799999237061</ele>
        <time>2016-07-25T19:41:47.000Z</time>
      </trkpt>
      <trkpt lat="48.7923" lon="2.458">
        <ele>39.599998474121</ele>
        <time>2016-07-25T19:41:51.000Z</time>
      </trkpt>
      <trkpt lat="48.79239" lon="2.4583">
        <ele>40.200000762939</ele>
        <time>2016-07-25T19:41:56.000Z</time>
      </trkpt>
      <trkpt lat="48.7925" lon="2.45859">
        <ele>41.200000762939</ele>
        <time>2016-07-25T19:42:01.000Z</time>
      </trkpt>
      <trkpt lat="48.7926" lon="2.45888">
        <ele>42</ele>
        <time>2016-07-25T19:42:06.000Z</time>
      </trkpt>
      <trkpt lat="48.79271" lon="2.45917">
        <ele>43</ele>
        <time>2016-07-25T19:42:11.000Z</time>
      </trkpt>
      <trkpt lat="48.79277" lon="2.45934">
        <ele>43.400001525879</ele>
        <time>2016-07-25T19:42:14.000Z</time>
      </trkpt>
      <trkpt lat="48.79288" lon="2.45959">
        <ele>44</ele>
        <time>2016-07-25T19:42:18.000Z</time>
      </trkpt>
      <trkpt lat="48.79294" lon="2.45974">
        <ele>44.200000762939</ele>
        <time>2016-07-25T19:42:20.000Z</time>
      </trkpt>
      <trkpt lat="48.79305" lon="2.46004">
        <ele>44.799999237061</ele>
        <time>2016-07-25T19:42:24.000Z</time>
      </trkpt>
      <trkpt lat="48.79311" lon="2.4602">
        <ele>45</ele>
        <time>2016-07-25T19:42:26.000Z</time>
      </trkpt>
      <trkpt lat="48.79321" lon="2.46047">
        <ele>45.200000762939</ele>
        <time>2016-07-25T19:42:30.000Z</time>
      </trkpt>
      <trkpt lat="48.79325" lon="2.46056">
        <ele>45.200000762939</ele>
        <time>2016-07-25T19:42:32.000Z</time>
      </trkpt>
      <trkpt lat="48.79334" lon="2.46081">
        <ele>45.599998474121</ele>
        <time>2016-07-25T19:42:38.000Z</time>
      </trkpt>
      <trkpt lat="48.79338" lon="2.46101">
        <ele>46.200000762939</ele>
        <time>2016-07-25T19:43:05.000Z</time>
      </trkpt>
      <trkpt lat="48.79352" lon="2.4612">
        <ele>47.200000762939</ele>
        <time>2016-07-25T19:43:44.000Z</time>
      </trkpt>
      <trkpt lat="48.79366" lon="2.46138">
        <ele>48</ele>
        <time>2016-07-25T19:43:50.000Z</time>
      </trkpt>
      <trkpt lat="48.7938" lon="2.46156">
        <ele>48.599998474121</ele>
        <time>2016-07-25T19:43:55.000Z</time>
      </trkpt>
      <trkpt lat="48.79396" lon="2.4617">
        <ele>49</ele>
        <time>2016-07-25T19:44:00.000Z</time>
      </trkpt>
      <trkpt lat="48.79414" lon="2.46184">
        <ele>49.200000762939</ele>
        <time>2016-07-25T19:44:05.000Z</time>
      </trkpt>
      <trkpt lat="48.79432" lon="2.46198">
        <ele>49.400001525879</ele>
        <time>2016-07-25T19:44:10.000Z</time>
      </trkpt>
      <trkpt lat="48.79449" lon="2.46211">
        <ele>49.400001525879</ele>
        <time>2016-07-25T19:44:15.000Z</time>
      </trkpt>
      <trkpt lat="48.79468" lon="2.46226">
        <ele>49.400001525879</ele>
        <time>2016-07-25T19:44:20.000Z</time>
      </trkpt>
      <trkpt lat="48.79487" lon="2.46242">
        <ele>49.400001525879</ele>
        <time>2016-07-25T19:44:25.000Z</time>
      </trkpt>
      <trkpt lat="48.79506" lon="2.4626">
        <ele>49.400001525879</ele>
        <time>2016-07-25T19:44:30.000Z</time>
      </trkpt>
      <trkpt lat="48.79524" lon="2.46275">
        <ele>49.400001525879</ele>
        <time>2016-07-25T19:44:34.000Z</time>
      </trkpt>
      <trkpt lat="48.79541" lon="2.46289">
        <ele>49.400001525879</ele>
        <time>2016-07-25T19:44:38.000Z</time>
      </trkpt>
      <trkpt lat="48.79559" lon="2.46308">
        <ele>49.599998474121</ele>
        <time>2016-07-25T19:44:43.000Z</time>
      </trkpt>
      <trkpt lat="48.79575" lon="2.46322">
        <ele>49.799999237061</ele>
        <time>2016-07-25T19:44:47.000Z</time>
      </trkpt>
      <trkpt lat="48.79585" lon="2.46334">
        <ele>50</ele>
        <time>2016-07-25T19:44:51.000Z</time>
      </trkpt>
      <trkpt lat="48.79589" lon="2.46339">
        <ele>50</ele>
        <time>2016-07-25T19:44:53.000Z</time>
      </trkpt>
      <trkpt lat="48.79601" lon="2.46346">
        <ele>49.799999237061</ele>
        <time>2016-07-25T19:44:58.000Z</time>
      </trkpt>
      <trkpt lat="48.79618" lon="2.46353">
        <ele>49.799999237061</ele>
        <time>2016-07-25T19:45:04.000Z</time>
      </trkpt>
      <trkpt lat="48.79637" lon="2.46362">
        <ele>49.599998474121</ele>
        <time>2016-07-25T19:45:10.000Z</time>
      </trkpt>
      <trkpt lat="48.79655" lon="2.46369">
        <ele>49.400001525879</ele>
        <time>2016-07-25T19:45:15.000Z</time>
      </trkpt>
      <trkpt lat="48.79675" lon="2.46379">
        <ele>49.200000762939</ele>
        <time>2016-07-25T19:45:22.000Z</time>
      </trkpt>
      <trkpt lat="48.79694" lon="2.46388">
        <ele>48.799999237061</ele>
        <time>2016-07-25T19:45:28.000Z</time>
      </trkpt>
      <trkpt lat="48.79713" lon="2.46398">
        <ele>48.200000762939</ele>
        <time>2016-07-25T19:45:34.000Z</time>
      </trkpt>
      <trkpt lat="48.79731" lon="2.46411">
        <ele>47.400001525879</ele>
        <time>2016-07-25T19:45:39.000Z</time>
      </trkpt>
      <trkpt lat="48.79747" lon="2.46428">
        <ele>46.799999237061</ele>
        <time>2016-07-25T19:45:44.000Z</time>
      </trkpt>
      <trkpt lat="48.79765" lon="2.46445">
        <ele>45.799999237061</ele>
        <time>2016-07-25T19:45:49.000Z</time>
      </trkpt>
      <trkpt lat="48.79784" lon="2.46461">
        <ele>44.799999237061</ele>
        <time>2016-07-25T19:45:54.000Z</time>
      </trkpt>
      <trkpt lat="48.79801" lon="2.46475">
        <ele>43.599998474121</ele>
        <time>2016-07-25T19:45:59.000Z</time>
      </trkpt>
      <trkpt lat="48.79817" lon="2.46489">
        <ele>42.400001525879</ele>
        <time>2016-07-25T19:46:03.000Z</time>
      </trkpt>
      <trkpt lat="48.79835" lon="2.46502">
        <ele>41.200000762939</ele>
        <time>2016-07-25T19:46:07.000Z</time>
      </trkpt>
      <trkpt lat="48.79851" lon="2.46517">
        <ele>39.799999237061</ele>
        <time>2016-07-25T19:46:11.000Z</time>
      </trkpt>
      <trkpt lat="48.79868" lon="2.46533">
        <ele>39.200000762939</ele>
        <time>2016-07-25T19:46:15.000Z</time>
      </trkpt>
      <trkpt lat="48.79883" lon="2.46551">
        <ele>38.799999237061</ele>
        <time>2016-07-25T19:46:19.000Z</time>
      </trkpt>
      <trkpt lat="48.79885" lon="2.46555">
        <ele>38.599998474121</ele>
        <time>2016-07-25T19:46:20.000Z</time>
      </trkpt>
      <trkpt lat="48.79894" lon="2.46574">
        <ele>38.200000762939</ele>
        <time>2016-07-25T19:46:24.000Z</time>
      </trkpt>
      <trkpt lat="48.79908" lon="2.46598">
        <ele>37.400001525879</ele>
        <time>2016-07-25T19:46:29.000Z</time>
      </trkpt>
      <trkpt lat="48.79914" lon="2.4661">
        <ele>37</ele>
        <time>2016-07-25T19:46:31.000Z</time>
      </trkpt>
      <trkpt lat="48.79919" lon="2.46627">
        <ele>36.400001525879</ele>
        <time>2016-07-25T19:46:34.000Z</time>
      </trkpt>
      <trkpt lat="48.79925" lon="2.46647">
        <ele>35.599998474121</ele>
        <time>2016-07-25T19:46:39.000Z</time>
      </trkpt>
      <trkpt lat="48.79933" lon="2.46665">
        <ele>35</ele>
        <time>2016-07-25T19:46:45.000Z</time>
      </trkpt>
      <trkpt lat="48.79936" lon="2.46691">
        <ele>34</ele>
        <time>2016-07-25T19:46:51.000Z</time>
      </trkpt>
      <trkpt lat="48.79941" lon="2.46723">
        <ele>33</ele>
        <time>2016-07-25T19:46:57.000Z</time>
      </trkpt>
      <trkpt lat="48.79943" lon="2.46751">
        <ele>32.200000762939</ele>
        <time>2016-07-25T19:47:02.000Z</time>
      </trkpt>
      <trkpt lat="48.79947" lon="2.46782">
        <ele>32.599998474121</ele>
        <time>2016-07-25T19:47:07.000Z</time>
      </trkpt>
      <trkpt lat="48.79951" lon="2.46813">
        <ele>33.200000762939</ele>
        <time>2016-07-25T19:47:12.000Z</time>
      </trkpt>
      <trkpt lat="48.79955" lon="2.4684">
        <ele>33.400001525879</ele>
        <time>2016-07-25T19:47:16.000Z</time>
      </trkpt>
      <trkpt lat="48.79958" lon="2.46872">
        <ele>32.799999237061</ele>
        <time>2016-07-25T19:47:21.000Z</time>
      </trkpt>
      <trkpt lat="48.79961" lon="2.46903">
        <ele>32.400001525879</ele>
        <time>2016-07-25T19:47:27.000Z</time>
      </trkpt>
      <trkpt lat="48.79963" lon="2.46935">
        <ele>32.200000762939</ele>
        <time>2016-07-25T19:47:33.000Z</time>
      </trkpt>
      <trkpt lat="48.79966" lon="2.46965">
        <ele>31.60000038147</ele>
        <time>2016-07-25T19:47:39.000Z</time>
      </trkpt>
      <trkpt lat="48.79971" lon="2.46996">
        <ele>30.60000038147</ele>
        <time>2016-07-25T19:47:45.000Z</time>
      </trkpt>
      <trkpt lat="48.79974" lon="2.47027">
        <ele>31.799999237061</ele>
        <time>2016-07-25T19:47:51.000Z</time>
      </trkpt>
      <trkpt lat="48.79978" lon="2.47055">
        <ele>32.400001525879</ele>
        <time>2016-07-25T19:47:57.000Z</time>
      </trkpt>
      <trkpt lat="48.79982" lon="2.47084">
        <ele>32.599998474121</ele>
        <time>2016-07-25T19:48:06.000Z</time>
      </trkpt>
      <trkpt lat="48.79982" lon="2.47089">
        <ele>32.799999237061</ele>
        <time>2016-07-25T19:48:09.000Z</time>
      </trkpt>
      <trkpt lat="48.79982" lon="2.47112">
        <ele>32.599998474121</ele>
        <time>2016-07-25T19:48:40.000Z</time>
      </trkpt>
      <trkpt lat="48.79978" lon="2.47136">
        <ele>33.200000762939</ele>
        <time>2016-07-25T19:48:44.000Z</time>
      </trkpt>
      <trkpt lat="48.79969" lon="2.4716">
        <ele>34.400001525879</ele>
        <time>2016-07-25T19:48:48.000Z</time>
      </trkpt>
      <trkpt lat="48.79956" lon="2.47184">
        <ele>34.799999237061</ele>
        <time>2016-07-25T19:48:53.000Z</time>
      </trkpt>
      <trkpt lat="48.79939" lon="2.47198">
        <ele>35.599998474121</ele>
        <time>2016-07-25T19:48:59.000Z</time>
      </trkpt>
      <trkpt lat="48.79926" lon="2.4718">
        <ele>34.599998474121</ele>
        <time>2016-07-25T19:49:03.000Z</time>
      </trkpt>
      <trkpt lat="48.79922" lon="2.47168">
        <ele>34</ele>
        <time>2016-07-25T19:49:05.000Z</time>
      </trkpt>
      <trkpt lat="48.79913" lon="2.47141">
        <ele>33</ele>
        <time>2016-07-25T19:49:10.000Z</time>
      </trkpt>
      <trkpt lat="48.79897" lon="2.47126">
        <ele>32.599998474121</ele>
        <time>2016-07-25T19:49:15.000Z</time>
      </trkpt>
      <trkpt lat="48.79876" lon="2.47123">
        <ele>32.400001525879</ele>
        <time>2016-07-25T19:49:21.000Z</time>
      </trkpt>
      <trkpt lat="48.79858" lon="2.47125">
        <ele>32.599998474121</ele>
        <time>2016-07-25T19:49:26.000Z</time>
      </trkpt>
      <trkpt lat="48.79837" lon="2.47126">
        <ele>32.400001525879</ele>
        <time>2016-07-25T19:49:31.000Z</time>
      </trkpt>
      <trkpt lat="48.79819" lon="2.47128">
        <ele>32.200000762939</ele>
        <time>2016-07-25T19:49:36.000Z</time>
      </trkpt>
      <trkpt lat="48.79797" lon="2.47134">
        <ele>32.200000762939</ele>
        <time>2016-07-25T19:49:41.000Z</time>
      </trkpt>
      <trkpt lat="48.79779" lon="2.47136">
        <ele>32</ele>
        <time>2016-07-25T19:49:45.000Z</time>
      </trkpt>
      <trkpt lat="48.79759" lon="2.47138">
        <ele>32.200000762939</ele>
        <time>2016-07-25T19:49:50.000Z</time>
      </trkpt>
      <trkpt lat="48.79754" lon="2.47138">
        <ele>32.200000762939</ele>
        <time>2016-07-25T19:49:51.000Z</time>
      </trkpt>
      <trkpt lat="48.79738" lon="2.47142">
        <ele>32.400001525879</ele>
        <time>2016-07-25T19:49:55.000Z</time>
      </trkpt>
      <trkpt lat="48.79719" lon="2.47144">
        <ele>32.200000762939</ele>
        <time>2016-07-25T19:50:00.000Z</time>
      </trkpt>
      <trkpt lat="48.79711" lon="2.47146">
        <ele>32</ele>
        <time>2016-07-25T19:50:02.000Z</time>
      </trkpt>
      <trkpt lat="48.7969" lon="2.47152">
        <ele>31.799999237061</ele>
        <time>2016-07-25T19:50:07.000Z</time>
      </trkpt>
      <trkpt lat="48.79669" lon="2.47158">
        <ele>31.60000038147</ele>
        <time>2016-07-25T19:50:12.000Z</time>
      </trkpt>
      <trkpt lat="48.79647" lon="2.47162">
        <ele>31</ele>
        <time>2016-07-25T19:50:17.000Z</time>
      </trkpt>
      <trkpt lat="48.79635" lon="2.47166">
        <ele>30.799999237061</ele>
        <time>2016-07-25T19:50:20.000Z</time>
      </trkpt>
      <trkpt lat="48.79626" lon="2.47168">
        <ele>30.60000038147</ele>
        <time>2016-07-25T19:50:22.000Z</time>
      </trkpt>
      <trkpt lat="48.79605" lon="2.47174">
        <ele>30.200000762939</ele>
        <time>2016-07-25T19:50:27.000Z</time>
      </trkpt>
      <trkpt lat="48.79589" lon="2.47181">
        <ele>31</ele>
        <time>2016-07-25T19:50:31.000Z</time>
      </trkpt>
      <trkpt lat="48.79576" lon="2.47183">
        <ele>31.39999961853</ele>
        <time>2016-07-25T19:50:34.000Z</time>
      </trkpt>
      <trkpt lat="48.79554" lon="2.47189">
        <ele>32</ele>
        <time>2016-07-25T19:50:39.000Z</time>
      </trkpt>
      <trkpt lat="48.79533" lon="2.47196">
        <ele>32.599998474121</ele>
        <time>2016-07-25T19:50:44.000Z</time>
      </trkpt>
      <trkpt lat="48.79513" lon="2.47202">
        <ele>33.200000762939</ele>
        <time>2016-07-25T19:50:49.000Z</time>
      </trkpt>
      <trkpt lat="48.79501" lon="2.47207">
        <ele>33.799999237061</ele>
        <time>2016-07-25T19:50:52.000Z</time>
      </trkpt>
      <trkpt lat="48.7948" lon="2.47214">
        <ele>34.400001525879</ele>
        <time>2016-07-25T19:50:57.000Z</time>
      </trkpt>
      <trkpt lat="48.7946" lon="2.4722">
        <ele>34</ele>
        <time>2016-07-25T19:51:01.000Z</time>
      </trkpt>
      <trkpt lat="48.79455" lon="2.47221">
        <ele>33.799999237061</ele>
        <time>2016-07-25T19:51:02.000Z</time>
      </trkpt>
      <trkpt lat="48.79446" lon="2.47223">
        <ele>33.799999237061</ele>
        <time>2016-07-25T19:51:04.000Z</time>
      </trkpt>
      <trkpt lat="48.79439" lon="2.47227">
        <ele>33.599998474121</ele>
        <time>2016-07-25T19:51:06.000Z</time>
      </trkpt>
      <trkpt lat="48.79421" lon="2.47235">
        <ele>33</ele>
        <time>2016-07-25T19:51:11.000Z</time>
      </trkpt>
      <trkpt lat="48.79402" lon="2.47242">
        <ele>33</ele>
        <time>2016-07-25T19:51:16.000Z</time>
      </trkpt>
      <trkpt lat="48.7939" lon="2.47246">
        <ele>33</ele>
        <time>2016-07-25T19:51:19.000Z</time>
      </trkpt>
      <trkpt lat="48.79369" lon="2.4725">
        <ele>33</ele>
        <time>2016-07-25T19:51:24.000Z</time>
      </trkpt>
      <trkpt lat="48.79349" lon="2.4725">
        <ele>33</ele>
        <time>2016-07-25T19:51:29.000Z</time>
      </trkpt>
      <trkpt lat="48.79332" lon="2.47249">
        <ele>33</ele>
        <time>2016-07-25T19:51:33.000Z</time>
      </trkpt>
      <trkpt lat="48.79324" lon="2.47248">
        <ele>33</ele>
        <time>2016-07-25T19:51:35.000Z</time>
      </trkpt>
      <trkpt lat="48.79303" lon="2.47245">
        <ele>32.799999237061</ele>
        <time>2016-07-25T19:51:41.000Z</time>
      </trkpt>
      <trkpt lat="48.79298" lon="2.47244">
        <ele>32.799999237061</ele>
        <time>2016-07-25T19:51:42.000Z</time>
      </trkpt>
      <trkpt lat="48.7928" lon="2.47243">
        <ele>32.799999237061</ele>
        <time>2016-07-25T19:51:46.000Z</time>
      </trkpt>
      <trkpt lat="48.79258" lon="2.47241">
        <ele>32.799999237061</ele>
        <time>2016-07-25T19:51:51.000Z</time>
      </trkpt>
      <trkpt lat="48.79245" lon="2.47241">
        <ele>33</ele>
        <time>2016-07-25T19:51:54.000Z</time>
      </trkpt>
      <trkpt lat="48.79227" lon="2.47242">
        <ele>33.200000762939</ele>
        <time>2016-07-25T19:51:58.000Z</time>
      </trkpt>
      <trkpt lat="48.79205" lon="2.47244">
        <ele>33.599998474121</ele>
        <time>2016-07-25T19:52:03.000Z</time>
      </trkpt>
      <trkpt lat="48.79186" lon="2.47246">
        <ele>33.799999237061</ele>
        <time>2016-07-25T19:52:07.000Z</time>
      </trkpt>
      <trkpt lat="48.79166" lon="2.47249">
        <ele>33.400001525879</ele>
        <time>2016-07-25T19:52:12.000Z</time>
      </trkpt>
      <trkpt lat="48.79146" lon="2.47252">
        <ele>33</ele>
        <time>2016-07-25T19:52:16.000Z</time>
      </trkpt>
      <trkpt lat="48.79128" lon="2.47255">
        <ele>32.599998474121</ele>
        <time>2016-07-25T19:52:20.000Z</time>
      </trkpt>
      <trkpt lat="48.7911" lon="2.47258">
        <ele>32.200000762939</ele>
        <time>2016-07-25T19:52:24.000Z</time>
      </trkpt>
      <trkpt lat="48.79096" lon="2.47263">
        <ele>32.200000762939</ele>
        <time>2016-07-25T19:52:27.000Z</time>
      </trkpt>
      <trkpt lat="48.79075" lon="2.47276">
        <ele>32</ele>
        <time>2016-07-25T19:52:32.000Z</time>
      </trkpt>
      <trkpt lat="48.7906" lon="2.4729">
        <ele>32</ele>
        <time>2016-07-25T19:52:36.000Z</time>
      </trkpt>
      <trkpt lat="48.79042" lon="2.47308">
        <ele>31.799999237061</ele>
        <time>2016-07-25T19:52:41.000Z</time>
      </trkpt>
      <trkpt lat="48.79024" lon="2.47325">
        <ele>31.799999237061</ele>
        <time>2016-07-25T19:52:46.000Z</time>
      </trkpt>
      <trkpt lat="48.79008" lon="2.47342">
        <ele>32.200000762939</ele>
        <time>2016-07-25T19:52:51.000Z</time>
      </trkpt>
      <trkpt lat="48.78992" lon="2.47358">
        <ele>32.400001525879</ele>
        <time>2016-07-25T19:52:57.000Z</time>
      </trkpt>
      <trkpt lat="48.78986" lon="2.47364">
        <ele>32.400001525879</ele>
        <time>2016-07-25T19:52:59.000Z</time>
      </trkpt>
      <trkpt lat="48.78968" lon="2.47377">
        <ele>32.599998474121</ele>
        <time>2016-07-25T19:53:04.000Z</time>
      </trkpt>
      <trkpt lat="48.78952" lon="2.47393">
        <ele>32.799999237061</ele>
        <time>2016-07-25T19:53:09.000Z</time>
      </trkpt>
      <trkpt lat="48.78944" lon="2.47402">
        <ele>32.799999237061</ele>
        <time>2016-07-25T19:53:12.000Z</time>
      </trkpt>
      <trkpt lat="48.7893" lon="2.47413">
        <ele>33</ele>
        <time>2016-07-25T19:53:16.000Z</time>
      </trkpt>
      <trkpt lat="48.78919" lon="2.47423">
        <ele>32.799999237061</ele>
        <time>2016-07-25T19:53:19.000Z</time>
      </trkpt>
      <trkpt lat="48.78911" lon="2.4743">
        <ele>32.799999237061</ele>
        <time>2016-07-25T19:53:21.000Z</time>
      </trkpt>
      <trkpt lat="48.78893" lon="2.47449">
        <ele>32.799999237061</ele>
        <time>2016-07-25T19:53:26.000Z</time>
      </trkpt>
      <trkpt lat="48.78877" lon="2.47465">
        <ele>33.400001525879</ele>
        <time>2016-07-25T19:53:30.000Z</time>
      </trkpt>
      <trkpt lat="48.78861" lon="2.47481">
        <ele>34.200000762939</ele>
        <time>2016-07-25T19:53:34.000Z</time>
      </trkpt>
      <trkpt lat="48.78845" lon="2.47498">
        <ele>35</ele>
        <time>2016-07-25T19:53:38.000Z</time>
      </trkpt>
      <trkpt lat="48.78829" lon="2.47514">
        <ele>34.400001525879</ele>
        <time>2016-07-25T19:53:42.000Z</time>
      </trkpt>
      <trkpt lat="48.78822" lon="2.47523">
        <ele>34</ele>
        <time>2016-07-25T19:53:44.000Z</time>
      </trkpt>
      <trkpt lat="48.78815" lon="2.47531">
        <ele>33.799999237061</ele>
        <time>2016-07-25T19:53:46.000Z</time>
      </trkpt>
      <trkpt lat="48.78799" lon="2.47551">
        <ele>33.599998474121</ele>
        <time>2016-07-25T19:53:51.000Z</time>
      </trkpt>
      <trkpt lat="48.78787" lon="2.47573">
        <ele>33.799999237061</ele>
        <time>2016-07-25T19:53:56.000Z</time>
      </trkpt>
      <trkpt lat="48.78784" lon="2.47578">
        <ele>33.799999237061</ele>
        <time>2016-07-25T19:53:57.000Z</time>
      </trkpt>
      <trkpt lat="48.78772" lon="2.47601">
        <ele>34</ele>
        <time>2016-07-25T19:54:01.000Z</time>
      </trkpt>
      <trkpt lat="48.7876" lon="2.47624">
        <ele>34</ele>
        <time>2016-07-25T19:54:05.000Z</time>
      </trkpt>
      <trkpt lat="48.78749" lon="2.47651">
        <ele>34</ele>
        <time>2016-07-25T19:54:09.000Z</time>
      </trkpt>
      <trkpt lat="48.78737" lon="2.47679">
        <ele>34.200000762939</ele>
        <time>2016-07-25T19:54:13.000Z</time>
      </trkpt>
      <trkpt lat="48.78725" lon="2.47708">
        <ele>33.599998474121</ele>
        <time>2016-07-25T19:54:17.000Z</time>
      </trkpt>
      <trkpt lat="48.78714" lon="2.47735">
        <ele>33.599998474121</ele>
        <time>2016-07-25T19:54:21.000Z</time>
      </trkpt>
      <trkpt lat="48.78704" lon="2.47761">
        <ele>33.799999237061</ele>
        <time>2016-07-25T19:54:25.000Z</time>
      </trkpt>
      <trkpt lat="48.78693" lon="2.47788">
        <ele>34</ele>
        <time>2016-07-25T19:54:29.000Z</time>
      </trkpt>
      <trkpt lat="48.78681" lon="2.47812">
        <ele>34.400001525879</ele>
        <time>2016-07-25T19:54:33.000Z</time>
      </trkpt>
      <trkpt lat="48.78671" lon="2.47838">
        <ele>35.200000762939</ele>
        <time>2016-07-25T19:54:37.000Z</time>
      </trkpt>
      <trkpt lat="48.78664" lon="2.47857">
        <ele>35.799999237061</ele>
        <time>2016-07-25T19:54:40.000Z</time>
      </trkpt>
      <trkpt lat="48.78657" lon="2.47885">
        <ele>36.200000762939</ele>
        <time>2016-07-25T19:54:44.000Z</time>
      </trkpt>
      <trkpt lat="48.78654" lon="2.47892">
        <ele>36.200000762939</ele>
        <time>2016-07-25T19:54:45.000Z</time>
      </trkpt>
      <trkpt lat="48.78645" lon="2.47921">
        <ele>36.200000762939</ele>
        <time>2016-07-25T19:54:49.000Z</time>
      </trkpt>
      <trkpt lat="48.78635" lon="2.47946">
        <ele>37.200000762939</ele>
        <time>2016-07-25T19:54:53.000Z</time>
      </trkpt>
      <trkpt lat="48.78633" lon="2.47953">
        <ele>37</ele>
        <time>2016-07-25T19:54:54.000Z</time>
      </trkpt>
      <trkpt lat="48.78624" lon="2.4798">
        <ele>35.400001525879</ele>
        <time>2016-07-25T19:54:58.000Z</time>
      </trkpt>
      <trkpt lat="48.78622" lon="2.47987">
        <ele>35</ele>
        <time>2016-07-25T19:54:59.000Z</time>
      </trkpt>
      <trkpt lat="48.78613" lon="2.48017">
        <ele>34.400001525879</ele>
        <time>2016-07-25T19:55:03.000Z</time>
      </trkpt>
      <trkpt lat="48.78605" lon="2.48047">
        <ele>34</ele>
        <time>2016-07-25T19:55:07.000Z</time>
      </trkpt>
      <trkpt lat="48.78596" lon="2.48076">
        <ele>33.400001525879</ele>
        <time>2016-07-25T19:55:11.000Z</time>
      </trkpt>
      <trkpt lat="48.78588" lon="2.48107">
        <ele>33.599998474121</ele>
        <time>2016-07-25T19:55:15.000Z</time>
      </trkpt>
      <trkpt lat="48.78583" lon="2.48135">
        <ele>33.400001525879</ele>
        <time>2016-07-25T19:55:19.000Z</time>
      </trkpt>
      <trkpt lat="48.78581" lon="2.48143">
        <ele>33.400001525879</ele>
        <time>2016-07-25T19:55:20.000Z</time>
      </trkpt>
      <trkpt lat="48.78576" lon="2.48173">
        <ele>33.200000762939</ele>
        <time>2016-07-25T19:55:24.000Z</time>
      </trkpt>
      <trkpt lat="48.78572" lon="2.48204">
        <ele>32.799999237061</ele>
        <time>2016-07-25T19:55:28.000Z</time>
      </trkpt>
      <trkpt lat="48.7857" lon="2.4822">
        <ele>32.599998474121</ele>
        <time>2016-07-25T19:55:30.000Z</time>
      </trkpt>
      <trkpt lat="48.78565" lon="2.48252">
        <ele>32.599998474121</ele>
        <time>2016-07-25T19:55:34.000Z</time>
      </trkpt>
      <trkpt lat="48.7856" lon="2.4828">
        <ele>32.799999237061</ele>
        <time>2016-07-25T19:55:38.000Z</time>
      </trkpt>
      <trkpt lat="48.78554" lon="2.4831">
        <ele>33.200000762939</ele>
        <time>2016-07-25T19:55:42.000Z</time>
      </trkpt>
      <trkpt lat="48.78548" lon="2.48341">
        <ele>33.400001525879</ele>
        <time>2016-07-25T19:55:46.000Z</time>
      </trkpt>
      <trkpt lat="48.78546" lon="2.48356">
        <ele>33.200000762939</ele>
        <time>2016-07-25T19:55:48.000Z</time>
      </trkpt>
      <trkpt lat="48.7854" lon="2.48379">
        <ele>33.200000762939</ele>
        <time>2016-07-25T19:55:51.000Z</time>
      </trkpt>
      <trkpt lat="48.78532" lon="2.48409">
        <ele>33.200000762939</ele>
        <time>2016-07-25T19:55:55.000Z</time>
      </trkpt>
      <trkpt lat="48.78528" lon="2.48433">
        <ele>33.400001525879</ele>
        <time>2016-07-25T19:55:58.000Z</time>
      </trkpt>
      <trkpt lat="48.7852" lon="2.48465">
        <ele>34.200000762939</ele>
        <time>2016-07-25T19:56:02.000Z</time>
      </trkpt>
      <trkpt lat="48.78511" lon="2.48498">
        <ele>34.799999237061</ele>
        <time>2016-07-25T19:56:06.000Z</time>
      </trkpt>
      <trkpt lat="48.78501" lon="2.48527">
        <ele>34.400001525879</ele>
        <time>2016-07-25T19:56:10.000Z</time>
      </trkpt>
      <trkpt lat="48.78496" lon="2.48542">
        <ele>34.200000762939</ele>
        <time>2016-07-25T19:56:12.000Z</time>
      </trkpt>
      <trkpt lat="48.78488" lon="2.4857">
        <ele>33.799999237061</ele>
        <time>2016-07-25T19:56:16.000Z</time>
      </trkpt>
      <trkpt lat="48.78486" lon="2.48578">
        <ele>33.599998474121</ele>
        <time>2016-07-25T19:56:17.000Z</time>
      </trkpt>
      <trkpt lat="48.78479" lon="2.48605">
        <ele>33.400001525879</ele>
        <time>2016-07-25T19:56:21.000Z</time>
      </trkpt>
      <trkpt lat="48.78473" lon="2.48632">
        <ele>33.400001525879</ele>
        <time>2016-07-25T19:56:25.000Z</time>
      </trkpt>
      <trkpt lat="48.78472" lon="2.4864">
        <ele>33.400001525879</ele>
        <time>2016-07-25T19:56:26.000Z</time>
      </trkpt>
      <trkpt lat="48.78469" lon="2.4867">
        <ele>33.400001525879</ele>
        <time>2016-07-25T19:56:30.000Z</time>
      </trkpt>
      <trkpt lat="48.78469" lon="2.48698">
        <ele>33.799999237061</ele>
        <time>2016-07-25T19:56:34.000Z</time>
      </trkpt>
      <trkpt lat="48.78468" lon="2.48717">
        <ele>33.400001525879</ele>
        <time>2016-07-25T19:56:37.000Z</time>
      </trkpt>
      <trkpt lat="48.78466" lon="2.4873">
        <ele>33.200000762939</ele>
        <time>2016-07-25T19:56:39.000Z</time>
      </trkpt>
      <trkpt lat="48.78464" lon="2.48759">
        <ele>33</ele>
        <time>2016-07-25T19:56:43.000Z</time>
      </trkpt>
      <trkpt lat="48.78464" lon="2.48765">
        <ele>33</ele>
        <time>2016-07-25T19:56:44.000Z</time>
      </trkpt>
      <trkpt lat="48.78464" lon="2.48798">
        <ele>33</ele>
        <time>2016-07-25T19:56:49.000Z</time>
      </trkpt>
      <trkpt lat="48.78463" lon="2.48828">
        <ele>33</ele>
        <time>2016-07-25T19:56:53.000Z</time>
      </trkpt>
      <trkpt lat="48.78462" lon="2.48857">
        <ele>32.599998474121</ele>
        <time>2016-07-25T19:56:57.000Z</time>
      </trkpt>
      <trkpt lat="48.78461" lon="2.48887">
        <ele>33.200000762939</ele>
        <time>2016-07-25T19:57:01.000Z</time>
      </trkpt>
      <trkpt lat="48.78458" lon="2.48917">
        <ele>34</ele>
        <time>2016-07-25T19:57:05.000Z</time>
      </trkpt>
      <trkpt lat="48.78457" lon="2.48946">
        <ele>34.200000762939</ele>
        <time>2016-07-25T19:57:09.000Z</time>
      </trkpt>
      <trkpt lat="48.78455" lon="2.48974">
        <ele>34.400001525879</ele>
        <time>2016-07-25T19:57:13.000Z</time>
      </trkpt>
      <trkpt lat="48.78454" lon="2.49003">
        <ele>34.799999237061</ele>
        <time>2016-07-25T19:57:17.000Z</time>
      </trkpt>
      <trkpt lat="48.78454" lon="2.4903">
        <ele>34.400001525879</ele>
        <time>2016-07-25T19:57:21.000Z</time>
      </trkpt>
      <trkpt lat="48.78454" lon="2.49043">
        <ele>34.200000762939</ele>
        <time>2016-07-25T19:57:23.000Z</time>
      </trkpt>
      <trkpt lat="48.78455" lon="2.49072">
        <ele>33.400001525879</ele>
        <time>2016-07-25T19:57:27.000Z</time>
      </trkpt>
      <trkpt lat="48.78455" lon="2.49101">
        <ele>33.200000762939</ele>
        <time>2016-07-25T19:57:31.000Z</time>
      </trkpt>
      <trkpt lat="48.78455" lon="2.49129">
        <ele>33.599998474121</ele>
        <time>2016-07-25T19:57:35.000Z</time>
      </trkpt>
      <trkpt lat="48.78457" lon="2.49158">
        <ele>33.799999237061</ele>
        <time>2016-07-25T19:57:39.000Z</time>
      </trkpt>
      <trkpt lat="48.78456" lon="2.49185">
        <ele>34</ele>
        <time>2016-07-25T19:57:43.000Z</time>
      </trkpt>
      <trkpt lat="48.78457" lon="2.49214">
        <ele>33.599998474121</ele>
        <time>2016-07-25T19:57:47.000Z</time>
      </trkpt>
      <trkpt lat="48.7846" lon="2.4925">
        <ele>33.200000762939</ele>
        <time>2016-07-25T19:57:51.000Z</time>
      </trkpt>
      <trkpt lat="48.7846" lon="2.49277">
        <ele>33.400001525879</ele>
        <time>2016-07-25T19:57:54.000Z</time>
      </trkpt>
      <trkpt lat="48.7846" lon="2.49287">
        <ele>33.400001525879</ele>
        <time>2016-07-25T19:57:55.000Z</time>
      </trkpt>
      <trkpt lat="48.78461" lon="2.49318">
        <ele>33</ele>
        <time>2016-07-25T19:57:58.000Z</time>
      </trkpt>
      <trkpt lat="48.78463" lon="2.49351">
        <ele>33.400001525879</ele>
        <time>2016-07-25T19:58:01.000Z</time>
      </trkpt>
      <trkpt lat="48.78466" lon="2.49384">
        <ele>34</ele>
        <time>2016-07-25T19:58:04.000Z</time>
      </trkpt>
      <trkpt lat="48.78469" lon="2.49415">
        <ele>34.400001525879</ele>
        <time>2016-07-25T19:58:07.000Z</time>
      </trkpt>
      <trkpt lat="48.78473" lon="2.49444">
        <ele>34.400001525879</ele>
        <time>2016-07-25T19:58:10.000Z</time>
      </trkpt>
      <trkpt lat="48.78475" lon="2.4946">
        <ele>34.200000762939</ele>
        <time>2016-07-25T19:58:12.000Z</time>
      </trkpt>
      <trkpt lat="48.78477" lon="2.49475">
        <ele>34</ele>
        <time>2016-07-25T19:58:14.000Z</time>
      </trkpt>
      <trkpt lat="48.78482" lon="2.49497">
        <ele>33.599998474121</ele>
        <time>2016-07-25T19:58:18.000Z</time>
      </trkpt>
      <trkpt lat="48.78484" lon="2.49514">
        <ele>33.200000762939</ele>
        <time>2016-07-25T19:58:23.000Z</time>
      </trkpt>
      <trkpt lat="48.78485" lon="2.49522">
        <ele>33</ele>
        <time>2016-07-25T19:58:28.000Z</time>
      </trkpt>
      <trkpt lat="48.78489" lon="2.49531">
        <ele>33</ele>
        <time>2016-07-25T20:00:05.000Z</time>
      </trkpt>
      <trkpt lat="48.78489" lon="2.49561">
        <ele>32.400001525879</ele>
        <time>2016-07-25T20:00:13.000Z</time>
      </trkpt>
      <trkpt lat="48.78486" lon="2.49594">
        <ele>33.200000762939</ele>
        <time>2016-07-25T20:00:18.000Z</time>
      </trkpt>
      <trkpt lat="48.78487" lon="2.49628">
        <ele>34</ele>
        <time>2016-07-25T20:00:22.000Z</time>
      </trkpt>
      <trkpt lat="48.7849" lon="2.49656">
        <ele>34.799999237061</ele>
        <time>2016-07-25T20:00:25.000Z</time>
      </trkpt>
      <trkpt lat="48.78493" lon="2.49683">
        <ele>35.200000762939</ele>
        <time>2016-07-25T20:00:28.000Z</time>
      </trkpt>
      <trkpt lat="48.78496" lon="2.4971">
        <ele>35.599998474121</ele>
        <time>2016-07-25T20:00:31.000Z</time>
      </trkpt>
      <trkpt lat="48.78498" lon="2.49738">
        <ele>35.799999237061</ele>
        <time>2016-07-25T20:00:34.000Z</time>
      </trkpt>
      <trkpt lat="48.785" lon="2.49771">
        <ele>35.200000762939</ele>
        <time>2016-07-25T20:00:38.000Z</time>
      </trkpt>
      <trkpt lat="48.78501" lon="2.49804">
        <ele>34.400001525879</ele>
        <time>2016-07-25T20:00:42.000Z</time>
      </trkpt>
      <trkpt lat="48.78503" lon="2.49834">
        <ele>34</ele>
        <time>2016-07-25T20:00:46.000Z</time>
      </trkpt>
      <trkpt lat="48.78505" lon="2.49859">
        <ele>34.400001525879</ele>
        <time>2016-07-25T20:00:49.000Z</time>
      </trkpt>
      <trkpt lat="48.78506" lon="2.49891">
        <ele>34.599998474121</ele>
        <time>2016-07-25T20:00:53.000Z</time>
      </trkpt>
      <trkpt lat="48.78507" lon="2.49899">
        <ele>34.799999237061</ele>
        <time>2016-07-25T20:00:54.000Z</time>
      </trkpt>
      <trkpt lat="48.78509" lon="2.49923">
        <ele>35.400001525879</ele>
        <time>2016-07-25T20:00:57.000Z</time>
      </trkpt>
      <trkpt lat="48.7851" lon="2.49955">
        <ele>36.200000762939</ele>
        <time>2016-07-25T20:01:01.000Z</time>
      </trkpt>
      <trkpt lat="48.7851" lon="2.49979">
        <ele>36.799999237061</ele>
        <time>2016-07-25T20:01:04.000Z</time>
      </trkpt>
      <trkpt lat="48.7851" lon="2.50011">
        <ele>36.599998474121</ele>
        <time>2016-07-25T20:01:08.000Z</time>
      </trkpt>
      <trkpt lat="48.7851" lon="2.50038">
        <ele>35.599998474121</ele>
        <time>2016-07-25T20:01:12.000Z</time>
      </trkpt>
      <trkpt lat="48.78509" lon="2.50051">
        <ele>35.200000762939</ele>
        <time>2016-07-25T20:01:14.000Z</time>
      </trkpt>
      <trkpt lat="48.78506" lon="2.50083">
        <ele>34</ele>
        <time>2016-07-25T20:01:18.000Z</time>
      </trkpt>
      <trkpt lat="48.78503" lon="2.50117">
        <ele>34</ele>
        <time>2016-07-25T20:01:22.000Z</time>
      </trkpt>
      <trkpt lat="48.785" lon="2.50153">
        <ele>34</ele>
        <time>2016-07-25T20:01:26.000Z</time>
      </trkpt>
      <trkpt lat="48.785" lon="2.50185">
        <ele>34.200000762939</ele>
        <time>2016-07-25T20:01:29.000Z</time>
      </trkpt>
      <trkpt lat="48.78499" lon="2.50214">
        <ele>34.799999237061</ele>
        <time>2016-07-25T20:01:32.000Z</time>
      </trkpt>
      <trkpt lat="48.78496" lon="2.50243">
        <ele>35.200000762939</ele>
        <time>2016-07-25T20:01:35.000Z</time>
      </trkpt>
      <trkpt lat="48.78494" lon="2.50279">
        <ele>35</ele>
        <time>2016-07-25T20:01:39.000Z</time>
      </trkpt>
      <trkpt lat="48.78492" lon="2.50306">
        <ele>34.599998474121</ele>
        <time>2016-07-25T20:01:42.000Z</time>
      </trkpt>
      <trkpt lat="48.7849" lon="2.50323">
        <ele>34.400001525879</ele>
        <time>2016-07-25T20:01:44.000Z</time>
      </trkpt>
      <trkpt lat="48.78487" lon="2.5035">
        <ele>34.200000762939</ele>
        <time>2016-07-25T20:01:47.000Z</time>
      </trkpt>
      <trkpt lat="48.78485" lon="2.50377">
        <ele>34.200000762939</ele>
        <time>2016-07-25T20:01:50.000Z</time>
      </trkpt>
      <trkpt lat="48.78482" lon="2.50406">
        <ele>34</ele>
        <time>2016-07-25T20:01:53.000Z</time>
      </trkpt>
      <trkpt lat="48.78481" lon="2.50436">
        <ele>34.200000762939</ele>
        <time>2016-07-25T20:01:56.000Z</time>
      </trkpt>
      <trkpt lat="48.78477" lon="2.50468">
        <ele>34.599998474121</ele>
        <time>2016-07-25T20:02:00.000Z</time>
      </trkpt>
      <trkpt lat="48.78476" lon="2.50475">
        <ele>34.599998474121</ele>
        <time>2016-07-25T20:02:01.000Z</time>
      </trkpt>
      <trkpt lat="48.78474" lon="2.50504">
        <ele>34.799999237061</ele>
        <time>2016-07-25T20:02:04.000Z</time>
      </trkpt>
      <trkpt lat="48.78472" lon="2.5054">
        <ele>34.400001525879</ele>
        <time>2016-07-25T20:02:08.000Z</time>
      </trkpt>
      <trkpt lat="48.7847" lon="2.50575">
        <ele>34.400001525879</ele>
        <time>2016-07-25T20:02:12.000Z</time>
      </trkpt>
      <trkpt lat="48.78468" lon="2.50603">
        <ele>34.200000762939</ele>
        <time>2016-07-25T20:02:15.000Z</time>
      </trkpt>
      <trkpt lat="48.78465" lon="2.5063">
        <ele>33.599998474121</ele>
        <time>2016-07-25T20:02:18.000Z</time>
      </trkpt>
      <trkpt lat="48.78462" lon="2.50662">
        <ele>32.799999237061</ele>
        <time>2016-07-25T20:02:21.000Z</time>
      </trkpt>
      <trkpt lat="48.78462" lon="2.5067">
        <ele>32.599998474121</ele>
        <time>2016-07-25T20:02:22.000Z</time>
      </trkpt>
      <trkpt lat="48.78461" lon="2.50704">
        <ele>33.200000762939</ele>
        <time>2016-07-25T20:02:27.000Z</time>
      </trkpt>
      <trkpt lat="48.78461" lon="2.50708">
        <ele>33.400001525879</ele>
        <time>2016-07-25T20:02:28.000Z</time>
      </trkpt>
      <trkpt lat="48.78462" lon="2.50727">
        <ele>33.599998474121</ele>
        <time>2016-07-25T20:02:32.000Z</time>
      </trkpt>
      <trkpt lat="48.78469" lon="2.50752">
        <ele>34</ele>
        <time>2016-07-25T20:02:52.000Z</time>
      </trkpt>
      <trkpt lat="48.78468" lon="2.5078">
        <ele>33.799999237061</ele>
        <time>2016-07-25T20:02:58.000Z</time>
      </trkpt>
      <trkpt lat="48.78469" lon="2.50811">
        <ele>34.400001525879</ele>
        <time>2016-07-25T20:03:04.000Z</time>
      </trkpt>
      <trkpt lat="48.78467" lon="2.50838">
        <ele>35</ele>
        <time>2016-07-25T20:03:08.000Z</time>
      </trkpt>
      <trkpt lat="48.78465" lon="2.50869">
        <ele>35.400001525879</ele>
        <time>2016-07-25T20:03:12.000Z</time>
      </trkpt>
      <trkpt lat="48.78463" lon="2.50899">
        <ele>35.400001525879</ele>
        <time>2016-07-25T20:03:16.000Z</time>
      </trkpt>
      <trkpt lat="48.78464" lon="2.50929">
        <ele>35.400001525879</ele>
        <time>2016-07-25T20:03:20.000Z</time>
      </trkpt>
      <trkpt lat="48.78465" lon="2.50947">
        <ele>35.599998474121</ele>
        <time>2016-07-25T20:03:23.000Z</time>
      </trkpt>
      <trkpt lat="48.78463" lon="2.50967">
        <ele>35.599998474121</ele>
        <time>2016-07-25T20:03:26.000Z</time>
      </trkpt>
      <trkpt lat="48.78463" lon="2.50982">
        <ele>35.599998474121</ele>
        <time>2016-07-25T20:03:28.000Z</time>
      </trkpt>
      <trkpt lat="48.78464" lon="2.51016">
        <ele>35.400001525879</ele>
        <time>2016-07-25T20:03:32.000Z</time>
      </trkpt>
      <trkpt lat="48.78469" lon="2.51047">
        <ele>35.200000762939</ele>
        <time>2016-07-25T20:03:36.000Z</time>
      </trkpt>
      <trkpt lat="48.78477" lon="2.51079">
        <ele>35</ele>
        <time>2016-07-25T20:03:40.000Z</time>
      </trkpt>
      <trkpt lat="48.78488" lon="2.51107">
        <ele>34.599998474121</ele>
        <time>2016-07-25T20:03:44.000Z</time>
      </trkpt>
      <trkpt lat="48.78501" lon="2.51132">
        <ele>34.400001525879</ele>
        <time>2016-07-25T20:03:48.000Z</time>
      </trkpt>
      <trkpt lat="48.78515" lon="2.51158">
        <ele>34</ele>
        <time>2016-07-25T20:03:52.000Z</time>
      </trkpt>
      <trkpt lat="48.78522" lon="2.51171">
        <ele>34</ele>
        <time>2016-07-25T20:03:54.000Z</time>
      </trkpt>
      <trkpt lat="48.78535" lon="2.51196">
        <ele>33.799999237061</ele>
        <time>2016-07-25T20:03:58.000Z</time>
      </trkpt>
      <trkpt lat="48.78549" lon="2.51224">
        <ele>33.599998474121</ele>
        <time>2016-07-25T20:04:02.000Z</time>
      </trkpt>
      <trkpt lat="48.78566" lon="2.51249">
        <ele>33.599998474121</ele>
        <time>2016-07-25T20:04:06.000Z</time>
      </trkpt>
      <trkpt lat="48.78582" lon="2.51275">
        <ele>34.400001525879</ele>
        <time>2016-07-25T20:04:10.000Z</time>
      </trkpt>
      <trkpt lat="48.78585" lon="2.51282">
        <ele>34.599998474121</ele>
        <time>2016-07-25T20:04:11.000Z</time>
      </trkpt>
      <trkpt lat="48.78598" lon="2.51304">
        <ele>35.400001525879</ele>
        <time>2016-07-25T20:04:14.000Z</time>
      </trkpt>
      <trkpt lat="48.78612" lon="2.51328">
        <ele>36</ele>
        <time>2016-07-25T20:04:17.000Z</time>
      </trkpt>
      <trkpt lat="48.78625" lon="2.5135">
        <ele>36.400001525879</ele>
        <time>2016-07-25T20:04:20.000Z</time>
      </trkpt>
      <trkpt lat="48.78637" lon="2.51371">
        <ele>36.799999237061</ele>
        <time>2016-07-25T20:04:23.000Z</time>
      </trkpt>
      <trkpt lat="48.7864" lon="2.51379">
        <ele>36.799999237061</ele>
        <time>2016-07-25T20:04:24.000Z</time>
      </trkpt>
      <trkpt lat="48.78646" lon="2.51406">
        <ele>37</ele>
        <time>2016-07-25T20:04:27.000Z</time>
      </trkpt>
      <trkpt lat="48.78651" lon="2.51441">
        <ele>36.200000762939</ele>
        <time>2016-07-25T20:04:31.000Z</time>
      </trkpt>
      <trkpt lat="48.78655" lon="2.51476">
        <ele>35.200000762939</ele>
        <time>2016-07-25T20:04:35.000Z</time>
      </trkpt>
      <trkpt lat="48.78656" lon="2.5151">
        <ele>35</ele>
        <time>2016-07-25T20:04:39.000Z</time>
      </trkpt>
      <trkpt lat="48.78658" lon="2.51538">
        <ele>35</ele>
        <time>2016-07-25T20:04:42.000Z</time>
      </trkpt>
      <trkpt lat="48.78665" lon="2.51573">
        <ele>35.200000762939</ele>
        <time>2016-07-25T20:04:45.000Z</time>
      </trkpt>
      <trkpt lat="48.78674" lon="2.51606">
        <ele>35.599998474121</ele>
        <time>2016-07-25T20:04:48.000Z</time>
      </trkpt>
      <trkpt lat="48.78684" lon="2.51636">
        <ele>35.799999237061</ele>
        <time>2016-07-25T20:04:51.000Z</time>
      </trkpt>
      <trkpt lat="48.78694" lon="2.51665">
        <ele>36</ele>
        <time>2016-07-25T20:04:54.000Z</time>
      </trkpt>
      <trkpt lat="48.78704" lon="2.51696">
        <ele>35.799999237061</ele>
        <time>2016-07-25T20:04:57.000Z</time>
      </trkpt>
      <trkpt lat="48.78715" lon="2.51725">
        <ele>35.599998474121</ele>
        <time>2016-07-25T20:05:00.000Z</time>
      </trkpt>
      <trkpt lat="48.78729" lon="2.51751">
        <ele>35.599998474121</ele>
        <time>2016-07-25T20:05:03.000Z</time>
      </trkpt>
      <trkpt lat="48.78744" lon="2.51776">
        <ele>35.400001525879</ele>
        <time>2016-07-25T20:05:06.000Z</time>
      </trkpt>
      <trkpt lat="48.78754" lon="2.5179">
        <ele>35.200000762939</ele>
        <time>2016-07-25T20:05:08.000Z</time>
      </trkpt>
      <trkpt lat="48.7877" lon="2.51808">
        <ele>35</ele>
        <time>2016-07-25T20:05:11.000Z</time>
      </trkpt>
      <trkpt lat="48.78784" lon="2.51829">
        <ele>35.200000762939</ele>
        <time>2016-07-25T20:05:14.000Z</time>
      </trkpt>
      <trkpt lat="48.78793" lon="2.51843">
        <ele>35.400001525879</ele>
        <time>2016-07-25T20:05:16.000Z</time>
      </trkpt>
      <trkpt lat="48.78811" lon="2.51862">
        <ele>36.200000762939</ele>
        <time>2016-07-25T20:05:19.000Z</time>
      </trkpt>
      <trkpt lat="48.78828" lon="2.5188">
        <ele>36.799999237061</ele>
        <time>2016-07-25T20:05:22.000Z</time>
      </trkpt>
      <trkpt lat="48.78847" lon="2.51903">
        <ele>37.599998474121</ele>
        <time>2016-07-25T20:05:25.000Z</time>
      </trkpt>
      <trkpt lat="48.78865" lon="2.51923">
        <ele>37.799999237061</ele>
        <time>2016-07-25T20:05:28.000Z</time>
      </trkpt>
      <trkpt lat="48.78871" lon="2.51927">
        <ele>37.599998474121</ele>
        <time>2016-07-25T20:05:29.000Z</time>
      </trkpt>
      <trkpt lat="48.78882" lon="2.51938">
        <ele>37.400001525879</ele>
        <time>2016-07-25T20:05:31.000Z</time>
      </trkpt>
      <trkpt lat="48.78899" lon="2.51963">
        <ele>37</ele>
        <time>2016-07-25T20:05:35.000Z</time>
      </trkpt>
      <trkpt lat="48.78917" lon="2.51981">
        <ele>36.400001525879</ele>
        <time>2016-07-25T20:05:38.000Z</time>
      </trkpt>
      <trkpt lat="48.78935" lon="2.52">
        <ele>36</ele>
        <time>2016-07-25T20:05:41.000Z</time>
      </trkpt>
      <trkpt lat="48.78953" lon="2.52018">
        <ele>35.799999237061</ele>
        <time>2016-07-25T20:05:44.000Z</time>
      </trkpt>
      <trkpt lat="48.78965" lon="2.52029">
        <ele>35.599998474121</ele>
        <time>2016-07-25T20:05:46.000Z</time>
      </trkpt>
      <trkpt lat="48.78988" lon="2.52047">
        <ele>35.400001525879</ele>
        <time>2016-07-25T20:05:49.000Z</time>
      </trkpt>
      <trkpt lat="48.79009" lon="2.52062">
        <ele>35.200000762939</ele>
        <time>2016-07-25T20:05:52.000Z</time>
      </trkpt>
      <trkpt lat="48.79031" lon="2.52079">
        <ele>35</ele>
        <time>2016-07-25T20:05:55.000Z</time>
      </trkpt>
      <trkpt lat="48.79047" lon="2.52084">
        <ele>35</ele>
        <time>2016-07-25T20:05:57.000Z</time>
      </trkpt>
      <trkpt lat="48.79069" lon="2.5208">
        <ele>35</ele>
        <time>2016-07-25T20:06:00.000Z</time>
      </trkpt>
      <trkpt lat="48.79084" lon="2.52077">
        <ele>35</ele>
        <time>2016-07-25T20:06:03.000Z</time>
      </trkpt>
      <trkpt lat="48.79092" lon="2.52084">
        <ele>35</ele>
        <time>2016-07-25T20:06:08.000Z</time>
      </trkpt>
      <trkpt lat="48.79091" lon="2.52087">
        <ele>35</ele>
        <time>2016-07-25T20:07:43.000Z</time>
      </trkpt>
      <trkpt lat="48.79112" lon="2.52096">
        <ele>34.599998474121</ele>
        <time>2016-07-25T20:07:51.000Z</time>
      </trkpt>
      <trkpt lat="48.79128" lon="2.52102">
        <ele>34.200000762939</ele>
        <time>2016-07-25T20:07:55.000Z</time>
      </trkpt>
      <trkpt lat="48.79146" lon="2.52094">
        <ele>34.200000762939</ele>
        <time>2016-07-25T20:07:59.000Z</time>
      </trkpt>
      <trkpt lat="48.79153" lon="2.52085">
        <ele>34.400001525879</ele>
        <time>2016-07-25T20:08:01.000Z</time>
      </trkpt>
      <trkpt lat="48.7916" lon="2.52072">
        <ele>34.599998474121</ele>
        <time>2016-07-25T20:08:03.000Z</time>
      </trkpt>
      <trkpt lat="48.79174" lon="2.52051">
        <ele>35</ele>
        <time>2016-07-25T20:08:07.000Z</time>
      </trkpt>
      <trkpt lat="48.79192" lon="2.52046">
        <ele>35</ele>
        <time>2016-07-25T20:08:11.000Z</time>
      </trkpt>
      <trkpt lat="48.79203" lon="2.52067">
        <ele>34.799999237061</ele>
        <time>2016-07-25T20:08:16.000Z</time>
      </trkpt>
      <trkpt lat="48.792" lon="2.52099">
        <ele>34</ele>
        <time>2016-07-25T20:08:21.000Z</time>
      </trkpt>
      <trkpt lat="48.79198" lon="2.52113">
        <ele>33.599998474121</ele>
        <time>2016-07-25T20:08:23.000Z</time>
      </trkpt>
      <trkpt lat="48.79207" lon="2.52143">
        <ele>33.200000762939</ele>
        <time>2016-07-25T20:08:28.000Z</time>
      </trkpt>
      <trkpt lat="48.79221" lon="2.52153">
        <ele>33.599998474121</ele>
        <time>2016-07-25T20:08:31.000Z</time>
      </trkpt>
      <trkpt lat="48.7924" lon="2.52162">
        <ele>34</ele>
        <time>2016-07-25T20:08:35.000Z</time>
      </trkpt>
      <trkpt lat="48.79263" lon="2.52172">
        <ele>34.799999237061</ele>
        <time>2016-07-25T20:08:39.000Z</time>
      </trkpt>
      <trkpt lat="48.79281" lon="2.52178">
        <ele>35</ele>
        <time>2016-07-25T20:08:42.000Z</time>
      </trkpt>
      <trkpt lat="48.793" lon="2.52184">
        <ele>35.200000762939</ele>
        <time>2016-07-25T20:08:45.000Z</time>
      </trkpt>
      <trkpt lat="48.79313" lon="2.52185">
        <ele>35.599998474121</ele>
        <time>2016-07-25T20:08:47.000Z</time>
      </trkpt>
      <trkpt lat="48.79332" lon="2.52187">
        <ele>36</ele>
        <time>2016-07-25T20:08:50.000Z</time>
      </trkpt>
      <trkpt lat="48.79351" lon="2.52188">
        <ele>36.400001525879</ele>
        <time>2016-07-25T20:08:53.000Z</time>
      </trkpt>
      <trkpt lat="48.79371" lon="2.5219">
        <ele>36.799999237061</ele>
        <time>2016-07-25T20:08:56.000Z</time>
      </trkpt>
      <trkpt lat="48.79389" lon="2.52189">
        <ele>37</ele>
        <time>2016-07-25T20:08:59.000Z</time>
      </trkpt>
      <trkpt lat="48.794" lon="2.52188">
        <ele>37</ele>
        <time>2016-07-25T20:09:01.000Z</time>
      </trkpt>
      <trkpt lat="48.79418" lon="2.52192">
        <ele>37</ele>
        <time>2016-07-25T20:09:06.000Z</time>
      </trkpt>
      <trkpt lat="48.7943" lon="2.52196">
        <ele>37</ele>
        <time>2016-07-25T20:09:10.000Z</time>
      </trkpt>
      <trkpt lat="48.79449" lon="2.52198">
        <ele>36.799999237061</ele>
        <time>2016-07-25T20:09:14.000Z</time>
      </trkpt>
      <trkpt lat="48.79471" lon="2.52202">
        <ele>36.599998474121</ele>
        <time>2016-07-25T20:09:18.000Z</time>
      </trkpt>
      <trkpt lat="48.79492" lon="2.52206">
        <ele>36.400001525879</ele>
        <time>2016-07-25T20:09:22.000Z</time>
      </trkpt>
      <trkpt lat="48.79514" lon="2.52208">
        <ele>36</ele>
        <time>2016-07-25T20:09:26.000Z</time>
      </trkpt>
      <trkpt lat="48.79529" lon="2.52209">
        <ele>35.799999237061</ele>
        <time>2016-07-25T20:09:29.000Z</time>
      </trkpt>
      <trkpt lat="48.79552" lon="2.52212">
        <ele>35.200000762939</ele>
        <time>2016-07-25T20:09:33.000Z</time>
      </trkpt>
      <trkpt lat="48.7957" lon="2.52215">
        <ele>34.799999237061</ele>
        <time>2016-07-25T20:09:36.000Z</time>
      </trkpt>
      <trkpt lat="48.79592" lon="2.52219">
        <ele>34.599998474121</ele>
        <time>2016-07-25T20:09:40.000Z</time>
      </trkpt>
      <trkpt lat="48.79613" lon="2.52222">
        <ele>34.599998474121</ele>
        <time>2016-07-25T20:09:44.000Z</time>
      </trkpt>
      <trkpt lat="48.79634" lon="2.52227">
        <ele>35</ele>
        <time>2016-07-25T20:09:48.000Z</time>
      </trkpt>
      <trkpt lat="48.79645" lon="2.52229">
        <ele>35.200000762939</ele>
        <time>2016-07-25T20:09:50.000Z</time>
      </trkpt>
      <trkpt lat="48.79666" lon="2.52233">
        <ele>35.599998474121</ele>
        <time>2016-07-25T20:09:54.000Z</time>
      </trkpt>
      <trkpt lat="48.79685" lon="2.52235">
        <ele>36</ele>
        <time>2016-07-25T20:09:58.000Z</time>
      </trkpt>
      <trkpt lat="48.79703" lon="2.5224">
        <ele>35.799999237061</ele>
        <time>2016-07-25T20:10:02.000Z</time>
      </trkpt>
      <trkpt lat="48.79708" lon="2.5224">
        <ele>35.799999237061</ele>
        <time>2016-07-25T20:10:03.000Z</time>
      </trkpt>
      <trkpt lat="48.79728" lon="2.52238">
        <ele>35.599998474121</ele>
        <time>2016-07-25T20:10:07.000Z</time>
      </trkpt>
      <trkpt lat="48.79749" lon="2.52235">
        <ele>35.200000762939</ele>
        <time>2016-07-25T20:10:12.000Z</time>
      </trkpt>
      <trkpt lat="48.79769" lon="2.52231">
        <ele>35.200000762939</ele>
        <time>2016-07-25T20:10:17.000Z</time>
      </trkpt>
      <trkpt lat="48.79791" lon="2.52225">
        <ele>35.799999237061</ele>
        <time>2016-07-25T20:10:22.000Z</time>
      </trkpt>
      <trkpt lat="48.79812" lon="2.5222">
        <ele>36.400001525879</ele>
        <time>2016-07-25T20:10:26.000Z</time>
      </trkpt>
      <trkpt lat="48.79822" lon="2.52219">
        <ele>36.599998474121</ele>
        <time>2016-07-25T20:10:28.000Z</time>
      </trkpt>
      <trkpt lat="48.79844" lon="2.52213">
        <ele>36.799999237061</ele>
        <time>2016-07-25T20:10:32.000Z</time>
      </trkpt>
      <trkpt lat="48.79867" lon="2.52206">
        <ele>36.799999237061</ele>
        <time>2016-07-25T20:10:36.000Z</time>
      </trkpt>
      <trkpt lat="48.79873" lon="2.52204">
        <ele>36.599998474121</ele>
        <time>2016-07-25T20:10:37.000Z</time>
      </trkpt>
      <trkpt lat="48.79891" lon="2.52201">
        <ele>36.200000762939</ele>
        <time>2016-07-25T20:10:40.000Z</time>
      </trkpt>
      <trkpt lat="48.79912" lon="2.52201">
        <ele>36</ele>
        <time>2016-07-25T20:10:43.000Z</time>
      </trkpt>
      <trkpt lat="48.79926" lon="2.52201">
        <ele>35.799999237061</ele>
        <time>2016-07-25T20:10:45.000Z</time>
      </trkpt>
      <trkpt lat="48.79947" lon="2.522">
        <ele>35.599998474121</ele>
        <time>2016-07-25T20:10:48.000Z</time>
      </trkpt>
      <trkpt lat="48.79966" lon="2.52201">
        <ele>35.599998474121</ele>
        <time>2016-07-25T20:10:51.000Z</time>
      </trkpt>
      <trkpt lat="48.79989" lon="2.52196">
        <ele>35.599998474121</ele>
        <time>2016-07-25T20:10:55.000Z</time>
      </trkpt>
      <trkpt lat="48.79995" lon="2.52194">
        <ele>35.599998474121</ele>
        <time>2016-07-25T20:10:56.000Z</time>
      </trkpt>
      <trkpt lat="48.80014" lon="2.52197">
        <ele>35.599998474121</ele>
        <time>2016-07-25T20:10:59.000Z</time>
      </trkpt>
      <trkpt lat="48.8002" lon="2.52199">
        <ele>35.599998474121</ele>
        <time>2016-07-25T20:11:00.000Z</time>
      </trkpt>
      <trkpt lat="48.80034" lon="2.52202">
        <ele>35.200000762939</ele>
        <time>2016-07-25T20:11:02.000Z</time>
      </trkpt>
      <trkpt lat="48.80053" lon="2.52204">
        <ele>34.799999237061</ele>
        <time>2016-07-25T20:11:05.000Z</time>
      </trkpt>
      <trkpt lat="48.80072" lon="2.52206">
        <ele>34.400001525879</ele>
        <time>2016-07-25T20:11:08.000Z</time>
      </trkpt>
      <trkpt lat="48.80092" lon="2.52209">
        <ele>34.200000762939</ele>
        <time>2016-07-25T20:11:11.000Z</time>
      </trkpt>
      <trkpt lat="48.80111" lon="2.52215">
        <ele>34</ele>
        <time>2016-07-25T20:11:14.000Z</time>
      </trkpt>
      <trkpt lat="48.80133" lon="2.52218">
        <ele>34.200000762939</ele>
        <time>2016-07-25T20:11:17.000Z</time>
      </trkpt>
      <trkpt lat="48.80153" lon="2.52222">
        <ele>34.200000762939</ele>
        <time>2016-07-25T20:11:20.000Z</time>
      </trkpt>
      <trkpt lat="48.80173" lon="2.52226">
        <ele>34.200000762939</ele>
        <time>2016-07-25T20:11:23.000Z</time>
      </trkpt>
      <trkpt lat="48.80193" lon="2.52227">
        <ele>34.400001525879</ele>
        <time>2016-07-25T20:11:26.000Z</time>
      </trkpt>
      <trkpt lat="48.80213" lon="2.52228">
        <ele>34.799999237061</ele>
        <time>2016-07-25T20:11:29.000Z</time>
      </trkpt>
      <trkpt lat="48.80234" lon="2.52228">
        <ele>35.400001525879</ele>
        <time>2016-07-25T20:11:32.000Z</time>
      </trkpt>
      <trkpt lat="48.80256" lon="2.52224">
        <ele>36</ele>
        <time>2016-07-25T20:11:35.000Z</time>
      </trkpt>
      <trkpt lat="48.80277" lon="2.52218">
        <ele>36.400001525879</ele>
        <time>2016-07-25T20:11:38.000Z</time>
      </trkpt>
      <trkpt lat="48.80291" lon="2.52215">
        <ele>36.599998474121</ele>
        <time>2016-07-25T20:11:40.000Z</time>
      </trkpt>
      <trkpt lat="48.80311" lon="2.52211">
        <ele>37</ele>
        <time>2016-07-25T20:11:43.000Z</time>
      </trkpt>
      <trkpt lat="48.8033" lon="2.52206">
        <ele>36.799999237061</ele>
        <time>2016-07-25T20:11:46.000Z</time>
      </trkpt>
      <trkpt lat="48.80352" lon="2.522">
        <ele>36.400001525879</ele>
        <time>2016-07-25T20:11:49.000Z</time>
      </trkpt>
      <trkpt lat="48.80372" lon="2.52195">
        <ele>36.200000762939</ele>
        <time>2016-07-25T20:11:52.000Z</time>
      </trkpt>
      <trkpt lat="48.80392" lon="2.52189">
        <ele>35.799999237061</ele>
        <time>2016-07-25T20:11:55.000Z</time>
      </trkpt>
      <trkpt lat="48.80411" lon="2.52181">
        <ele>35.599998474121</ele>
        <time>2016-07-25T20:11:58.000Z</time>
      </trkpt>
      <trkpt lat="48.80432" lon="2.52176">
        <ele>35.200000762939</ele>
        <time>2016-07-25T20:12:02.000Z</time>
      </trkpt>
      <trkpt lat="48.80453" lon="2.52171">
        <ele>35.200000762939</ele>
        <time>2016-07-25T20:12:06.000Z</time>
      </trkpt>
      <trkpt lat="48.80466" lon="2.52151">
        <ele>35.799999237061</ele>
        <time>2016-07-25T20:12:11.000Z</time>
      </trkpt>
      <trkpt lat="48.8047" lon="2.52148">
        <ele>36</ele>
        <time>2016-07-25T20:12:12.000Z</time>
      </trkpt>
      <trkpt lat="48.80486" lon="2.52137">
        <ele>36.599998474121</ele>
        <time>2016-07-25T20:12:16.000Z</time>
      </trkpt>
      <trkpt lat="48.80503" lon="2.52124">
        <ele>36.799999237061</ele>
        <time>2016-07-25T20:12:20.000Z</time>
      </trkpt>
      <trkpt lat="48.80516" lon="2.52114">
        <ele>37</ele>
        <time>2016-07-25T20:12:24.000Z</time>
      </trkpt>
      <trkpt lat="48.80536" lon="2.52099">
        <ele>36.799999237061</ele>
        <time>2016-07-25T20:12:39.000Z</time>
      </trkpt>
      <trkpt lat="48.80549" lon="2.52086">
        <ele>36.599998474121</ele>
        <time>2016-07-25T20:12:42.000Z</time>
      </trkpt>
      <trkpt lat="48.80567" lon="2.52067">
        <ele>36.400001525879</ele>
        <time>2016-07-25T20:12:46.000Z</time>
      </trkpt>
      <trkpt lat="48.80588" lon="2.5205">
        <ele>36.599998474121</ele>
        <time>2016-07-25T20:12:50.000Z</time>
      </trkpt>
      <trkpt lat="48.80604" lon="2.52033">
        <ele>37.200000762939</ele>
        <time>2016-07-25T20:12:53.000Z</time>
      </trkpt>
      <trkpt lat="48.80622" lon="2.52015">
        <ele>37</ele>
        <time>2016-07-25T20:12:56.000Z</time>
      </trkpt>
      <trkpt lat="48.8064" lon="2.51997">
        <ele>36.799999237061</ele>
        <time>2016-07-25T20:12:59.000Z</time>
      </trkpt>
      <trkpt lat="48.80656" lon="2.51981">
        <ele>36.200000762939</ele>
        <time>2016-07-25T20:13:02.000Z</time>
      </trkpt>
      <trkpt lat="48.80672" lon="2.51964">
        <ele>36.400001525879</ele>
        <time>2016-07-25T20:13:05.000Z</time>
      </trkpt>
      <trkpt lat="48.80688" lon="2.51946">
        <ele>37</ele>
        <time>2016-07-25T20:13:08.000Z</time>
      </trkpt>
      <trkpt lat="48.80704" lon="2.51928">
        <ele>37.599998474121</ele>
        <time>2016-07-25T20:13:11.000Z</time>
      </trkpt>
      <trkpt lat="48.8072" lon="2.51908">
        <ele>37.200000762939</ele>
        <time>2016-07-25T20:13:14.000Z</time>
      </trkpt>
      <trkpt lat="48.80737" lon="2.51888">
        <ele>36.400001525879</ele>
        <time>2016-07-25T20:13:17.000Z</time>
      </trkpt>
      <trkpt lat="48.80752" lon="2.51867">
        <ele>36.599998474121</ele>
        <time>2016-07-25T20:13:20.000Z</time>
      </trkpt>
      <trkpt lat="48.80756" lon="2.5186">
        <ele>36.599998474121</ele>
        <time>2016-07-25T20:13:21.000Z</time>
      </trkpt>
      <trkpt lat="48.80771" lon="2.51838">
        <ele>37</ele>
        <time>2016-07-25T20:13:24.000Z</time>
      </trkpt>
      <trkpt lat="48.80783" lon="2.51815">
        <ele>37.200000762939</ele>
        <time>2016-07-25T20:13:27.000Z</time>
      </trkpt>
      <trkpt lat="48.80794" lon="2.51792">
        <ele>37.200000762939</ele>
        <time>2016-07-25T20:13:30.000Z</time>
      </trkpt>
      <trkpt lat="48.80807" lon="2.51772">
        <ele>37.400001525879</ele>
        <time>2016-07-25T20:13:33.000Z</time>
      </trkpt>
      <trkpt lat="48.80818" lon="2.5175">
        <ele>37.599998474121</ele>
        <time>2016-07-25T20:13:36.000Z</time>
      </trkpt>
      <trkpt lat="48.80827" lon="2.51724">
        <ele>38.200000762939</ele>
        <time>2016-07-25T20:13:39.000Z</time>
      </trkpt>
      <trkpt lat="48.80831" lon="2.51717">
        <ele>38</ele>
        <time>2016-07-25T20:13:40.000Z</time>
      </trkpt>
      <trkpt lat="48.80842" lon="2.51692">
        <ele>37</ele>
        <time>2016-07-25T20:13:43.000Z</time>
      </trkpt>
      <trkpt lat="48.80851" lon="2.51666">
        <ele>36.200000762939</ele>
        <time>2016-07-25T20:13:46.000Z</time>
      </trkpt>
      <trkpt lat="48.80859" lon="2.51638">
        <ele>36.400001525879</ele>
        <time>2016-07-25T20:13:49.000Z</time>
      </trkpt>
      <trkpt lat="48.80866" lon="2.51609">
        <ele>36.799999237061</ele>
        <time>2016-07-25T20:13:52.000Z</time>
      </trkpt>
      <trkpt lat="48.8087" lon="2.51592">
        <ele>37</ele>
        <time>2016-07-25T20:13:54.000Z</time>
      </trkpt>
      <trkpt lat="48.80877" lon="2.51564">
        <ele>37.799999237061</ele>
        <time>2016-07-25T20:13:57.000Z</time>
      </trkpt>
      <trkpt lat="48.80884" lon="2.51537">
        <ele>38.400001525879</ele>
        <time>2016-07-25T20:14:00.000Z</time>
      </trkpt>
      <trkpt lat="48.80891" lon="2.51509">
        <ele>38.200000762939</ele>
        <time>2016-07-25T20:14:03.000Z</time>
      </trkpt>
      <trkpt lat="48.80897" lon="2.5148">
        <ele>38.200000762939</ele>
        <time>2016-07-25T20:14:06.000Z</time>
      </trkpt>
      <trkpt lat="48.80903" lon="2.51451">
        <ele>38</ele>
        <time>2016-07-25T20:14:09.000Z</time>
      </trkpt>
      <trkpt lat="48.80909" lon="2.51421">
        <ele>36.799999237061</ele>
        <time>2016-07-25T20:14:12.000Z</time>
      </trkpt>
      <trkpt lat="48.80913" lon="2.51389">
        <ele>36.799999237061</ele>
        <time>2016-07-25T20:14:15.000Z</time>
      </trkpt>
      <trkpt lat="48.80916" lon="2.51356">
        <ele>36.200000762939</ele>
        <time>2016-07-25T20:14:18.000Z</time>
      </trkpt>
      <trkpt lat="48.8092" lon="2.51322">
        <ele>35.599998474121</ele>
        <time>2016-07-25T20:14:21.000Z</time>
      </trkpt>
      <trkpt lat="48.80922" lon="2.51292">
        <ele>36.200000762939</ele>
        <time>2016-07-25T20:14:24.000Z</time>
      </trkpt>
      <trkpt lat="48.80925" lon="2.51257">
        <ele>37.400001525879</ele>
        <time>2016-07-25T20:14:27.000Z</time>
      </trkpt>
      <trkpt lat="48.80929" lon="2.51223">
        <ele>37.599998474121</ele>
        <time>2016-07-25T20:14:30.000Z</time>
      </trkpt>
      <trkpt lat="48.80932" lon="2.51188">
        <ele>38</ele>
        <time>2016-07-25T20:14:33.000Z</time>
      </trkpt>
      <trkpt lat="48.80935" lon="2.51152">
        <ele>38</ele>
        <time>2016-07-25T20:14:36.000Z</time>
      </trkpt>
      <trkpt lat="48.80937" lon="2.51118">
        <ele>38</ele>
        <time>2016-07-25T20:14:39.000Z</time>
      </trkpt>
      <trkpt lat="48.80941" lon="2.51089">
        <ele>37.799999237061</ele>
        <time>2016-07-25T20:14:42.000Z</time>
      </trkpt>
      <trkpt lat="48.80946" lon="2.51061">
        <ele>38</ele>
        <time>2016-07-25T20:14:45.000Z</time>
      </trkpt>
      <trkpt lat="48.80947" lon="2.51054">
        <ele>38.200000762939</ele>
        <time>2016-07-25T20:14:46.000Z</time>
      </trkpt>
      <trkpt lat="48.8095" lon="2.51027">
        <ele>38.400001525879</ele>
        <time>2016-07-25T20:14:50.000Z</time>
      </trkpt>
      <trkpt lat="48.80952" lon="2.51">
        <ele>38.799999237061</ele>
        <time>2016-07-25T20:14:55.000Z</time>
      </trkpt>
      <trkpt lat="48.80951" lon="2.50982">
        <ele>39.200000762939</ele>
        <time>2016-07-25T20:15:00.000Z</time>
      </trkpt>
      <trkpt lat="48.80951" lon="2.50976">
        <ele>39.400001525879</ele>
        <time>2016-07-25T20:15:03.000Z</time>
      </trkpt>
      <trkpt lat="48.80956" lon="2.50986">
        <ele>39.200000762939</ele>
        <time>2016-07-25T20:16:05.000Z</time>
      </trkpt>
      <trkpt lat="48.80957" lon="2.50975">
        <ele>39.400001525879</ele>
        <time>2016-07-25T20:18:14.000Z</time>
      </trkpt>
      <trkpt lat="48.80952" lon="2.50946">
        <ele>40.200000762939</ele>
        <time>2016-07-25T20:18:29.000Z</time>
      </trkpt>
      <trkpt lat="48.80956" lon="2.50915">
        <ele>40.200000762939</ele>
        <time>2016-07-25T20:18:36.000Z</time>
      </trkpt>
      <trkpt lat="48.80962" lon="2.50889">
        <ele>40.200000762939</ele>
        <time>2016-07-25T20:18:40.000Z</time>
      </trkpt>
      <trkpt lat="48.80972" lon="2.50857">
        <ele>39.799999237061</ele>
        <time>2016-07-25T20:18:44.000Z</time>
      </trkpt>
      <trkpt lat="48.80979" lon="2.5083">
        <ele>39.200000762939</ele>
        <time>2016-07-25T20:18:47.000Z</time>
      </trkpt>
      <trkpt lat="48.80983" lon="2.50812">
        <ele>39.599998474121</ele>
        <time>2016-07-25T20:18:49.000Z</time>
      </trkpt>
      <trkpt lat="48.80989" lon="2.50786">
        <ele>39.799999237061</ele>
        <time>2016-07-25T20:18:52.000Z</time>
      </trkpt>
      <trkpt lat="48.80994" lon="2.50753">
        <ele>39.599998474121</ele>
        <time>2016-07-25T20:18:56.000Z</time>
      </trkpt>
      <trkpt lat="48.80995" lon="2.50744">
        <ele>39.599998474121</ele>
        <time>2016-07-25T20:18:57.000Z</time>
      </trkpt>
      <trkpt lat="48.80997" lon="2.50719">
        <ele>40</ele>
        <time>2016-07-25T20:19:00.000Z</time>
      </trkpt>
      <trkpt lat="48.80998" lon="2.50686">
        <ele>41</ele>
        <time>2016-07-25T20:19:04.000Z</time>
      </trkpt>
      <trkpt lat="48.80998" lon="2.50671">
        <ele>41.599998474121</ele>
        <time>2016-07-25T20:19:06.000Z</time>
      </trkpt>
      <trkpt lat="48.80993" lon="2.50643">
        <ele>42.400001525879</ele>
        <time>2016-07-25T20:19:10.000Z</time>
      </trkpt>
      <trkpt lat="48.80994" lon="2.50623">
        <ele>42.400001525879</ele>
        <time>2016-07-25T20:19:13.000Z</time>
      </trkpt>
      <trkpt lat="48.80999" lon="2.50596">
        <ele>42</ele>
        <time>2016-07-25T20:19:17.000Z</time>
      </trkpt>
      <trkpt lat="48.81001" lon="2.50567">
        <ele>41.599998474121</ele>
        <time>2016-07-25T20:19:21.000Z</time>
      </trkpt>
      <trkpt lat="48.81005" lon="2.50539">
        <ele>41</ele>
        <time>2016-07-25T20:19:25.000Z</time>
      </trkpt>
      <trkpt lat="48.81005" lon="2.50525">
        <ele>40.799999237061</ele>
        <time>2016-07-25T20:19:27.000Z</time>
      </trkpt>
      <trkpt lat="48.81008" lon="2.50497">
        <ele>40.200000762939</ele>
        <time>2016-07-25T20:19:31.000Z</time>
      </trkpt>
      <trkpt lat="48.81012" lon="2.50468">
        <ele>40</ele>
        <time>2016-07-25T20:19:35.000Z</time>
      </trkpt>
      <trkpt lat="48.81015" lon="2.50441">
        <ele>39.799999237061</ele>
        <time>2016-07-25T20:19:39.000Z</time>
      </trkpt>
      <trkpt lat="48.81016" lon="2.50426">
        <ele>39.599998474121</ele>
        <time>2016-07-25T20:19:41.000Z</time>
      </trkpt>
      <trkpt lat="48.81016" lon="2.50411">
        <ele>39.799999237061</ele>
        <time>2016-07-25T20:19:43.000Z</time>
      </trkpt>
      <trkpt lat="48.8102" lon="2.50379">
        <ele>39.599998474121</ele>
        <time>2016-07-25T20:19:47.000Z</time>
      </trkpt>
      <trkpt lat="48.81021" lon="2.50372">
        <ele>39.599998474121</ele>
        <time>2016-07-25T20:19:48.000Z</time>
      </trkpt>
      <trkpt lat="48.81023" lon="2.50349">
        <ele>39.799999237061</ele>
        <time>2016-07-25T20:19:51.000Z</time>
      </trkpt>
      <trkpt lat="48.81023" lon="2.50316">
        <ele>40</ele>
        <time>2016-07-25T20:19:55.000Z</time>
      </trkpt>
      <trkpt lat="48.81025" lon="2.50287">
        <ele>40</ele>
        <time>2016-07-25T20:19:59.000Z</time>
      </trkpt>
      <trkpt lat="48.81024" lon="2.50279">
        <ele>40</ele>
        <time>2016-07-25T20:20:00.000Z</time>
      </trkpt>
      <trkpt lat="48.81024" lon="2.50247">
        <ele>39.799999237061</ele>
        <time>2016-07-25T20:20:04.000Z</time>
      </trkpt>
      <trkpt lat="48.81023" lon="2.50217">
        <ele>39.599998474121</ele>
        <time>2016-07-25T20:20:08.000Z</time>
      </trkpt>
      <trkpt lat="48.81023" lon="2.50184">
        <ele>39.200000762939</ele>
        <time>2016-07-25T20:20:12.000Z</time>
      </trkpt>
      <trkpt lat="48.81022" lon="2.50168">
        <ele>39</ele>
        <time>2016-07-25T20:20:14.000Z</time>
      </trkpt>
      <trkpt lat="48.8102" lon="2.50153">
        <ele>39.200000762939</ele>
        <time>2016-07-25T20:20:16.000Z</time>
      </trkpt>
      <trkpt lat="48.81021" lon="2.50124">
        <ele>39.599998474121</ele>
        <time>2016-07-25T20:20:20.000Z</time>
      </trkpt>
      <trkpt lat="48.8102" lon="2.50116">
        <ele>39.799999237061</ele>
        <time>2016-07-25T20:20:21.000Z</time>
      </trkpt>
      <trkpt lat="48.81016" lon="2.50086">
        <ele>40.400001525879</ele>
        <time>2016-07-25T20:20:25.000Z</time>
      </trkpt>
      <trkpt lat="48.81014" lon="2.50051">
        <ele>41.400001525879</ele>
        <time>2016-07-25T20:20:29.000Z</time>
      </trkpt>
      <trkpt lat="48.81012" lon="2.50024">
        <ele>42.200000762939</ele>
        <time>2016-07-25T20:20:32.000Z</time>
      </trkpt>
      <trkpt lat="48.81009" lon="2.49988">
        <ele>43</ele>
        <time>2016-07-25T20:20:36.000Z</time>
      </trkpt>
      <trkpt lat="48.81006" lon="2.49954">
        <ele>42.799999237061</ele>
        <time>2016-07-25T20:20:40.000Z</time>
      </trkpt>
      <trkpt lat="48.81003" lon="2.49923">
        <ele>42.599998474121</ele>
        <time>2016-07-25T20:20:44.000Z</time>
      </trkpt>
      <trkpt lat="48.81002" lon="2.49916">
        <ele>42.599998474121</ele>
        <time>2016-07-25T20:20:45.000Z</time>
      </trkpt>
      <trkpt lat="48.80999" lon="2.49885">
        <ele>43.400001525879</ele>
        <time>2016-07-25T20:20:49.000Z</time>
      </trkpt>
      <trkpt lat="48.80997" lon="2.49855">
        <ele>43.200000762939</ele>
        <time>2016-07-25T20:20:53.000Z</time>
      </trkpt>
      <trkpt lat="48.80997" lon="2.49827">
        <ele>42.799999237061</ele>
        <time>2016-07-25T20:20:57.000Z</time>
      </trkpt>
      <trkpt lat="48.80997" lon="2.49821">
        <ele>42.799999237061</ele>
        <time>2016-07-25T20:20:58.000Z</time>
      </trkpt>
      <trkpt lat="48.80996" lon="2.49796">
        <ele>42.799999237061</ele>
        <time>2016-07-25T20:21:02.000Z</time>
      </trkpt>
      <trkpt lat="48.80995" lon="2.49769">
        <ele>42.400001525879</ele>
        <time>2016-07-25T20:21:07.000Z</time>
      </trkpt>
      <trkpt lat="48.80996" lon="2.4974">
        <ele>42.200000762939</ele>
        <time>2016-07-25T20:21:11.000Z</time>
      </trkpt>
      <trkpt lat="48.81" lon="2.49713">
        <ele>41.799999237061</ele>
        <time>2016-07-25T20:21:15.000Z</time>
      </trkpt>
      <trkpt lat="48.81005" lon="2.49683">
        <ele>41.599998474121</ele>
        <time>2016-07-25T20:21:19.000Z</time>
      </trkpt>
      <trkpt lat="48.81008" lon="2.49661">
        <ele>41.400001525879</ele>
        <time>2016-07-25T20:21:22.000Z</time>
      </trkpt>
      <trkpt lat="48.81012" lon="2.49632">
        <ele>41.400001525879</ele>
        <time>2016-07-25T20:21:26.000Z</time>
      </trkpt>
      <trkpt lat="48.81013" lon="2.49625">
        <ele>41.599998474121</ele>
        <time>2016-07-25T20:21:27.000Z</time>
      </trkpt>
      <trkpt lat="48.81015" lon="2.49596">
        <ele>42.200000762939</ele>
        <time>2016-07-25T20:21:31.000Z</time>
      </trkpt>
      <trkpt lat="48.81018" lon="2.49567">
        <ele>42.200000762939</ele>
        <time>2016-07-25T20:21:35.000Z</time>
      </trkpt>
      <trkpt lat="48.81021" lon="2.49539">
        <ele>42</ele>
        <time>2016-07-25T20:21:39.000Z</time>
      </trkpt>
      <trkpt lat="48.81023" lon="2.49525">
        <ele>42</ele>
        <time>2016-07-25T20:21:41.000Z</time>
      </trkpt>
      <trkpt lat="48.81025" lon="2.49498">
        <ele>41.799999237061</ele>
        <time>2016-07-25T20:21:45.000Z</time>
      </trkpt>
      <trkpt lat="48.81026" lon="2.49476">
        <ele>41.599998474121</ele>
        <time>2016-07-25T20:21:48.000Z</time>
      </trkpt>
      <trkpt lat="48.8103" lon="2.49447">
        <ele>41.400001525879</ele>
        <time>2016-07-25T20:21:52.000Z</time>
      </trkpt>
      <trkpt lat="48.81036" lon="2.49417">
        <ele>41</ele>
        <time>2016-07-25T20:21:56.000Z</time>
      </trkpt>
      <trkpt lat="48.81042" lon="2.49389">
        <ele>39.799999237061</ele>
        <time>2016-07-25T20:22:00.000Z</time>
      </trkpt>
      <trkpt lat="48.81052" lon="2.49362">
        <ele>38.599998474121</ele>
        <time>2016-07-25T20:22:04.000Z</time>
      </trkpt>
      <trkpt lat="48.8106" lon="2.49328">
        <ele>38</ele>
        <time>2016-07-25T20:22:08.000Z</time>
      </trkpt>
      <trkpt lat="48.81067" lon="2.49301">
        <ele>37.400001525879</ele>
        <time>2016-07-25T20:22:11.000Z</time>
      </trkpt>
      <trkpt lat="48.81071" lon="2.49273">
        <ele>37.599998474121</ele>
        <time>2016-07-25T20:22:14.000Z</time>
      </trkpt>
      <trkpt lat="48.81076" lon="2.49243">
        <ele>37.799999237061</ele>
        <time>2016-07-25T20:22:17.000Z</time>
      </trkpt>
      <trkpt lat="48.81081" lon="2.49213">
        <ele>38.400001525879</ele>
        <time>2016-07-25T20:22:20.000Z</time>
      </trkpt>
      <trkpt lat="48.81086" lon="2.49183">
        <ele>38.400001525879</ele>
        <time>2016-07-25T20:22:23.000Z</time>
      </trkpt>
      <trkpt lat="48.81094" lon="2.49152">
        <ele>38.400001525879</ele>
        <time>2016-07-25T20:22:26.000Z</time>
      </trkpt>
      <trkpt lat="48.811" lon="2.49122">
        <ele>37.799999237061</ele>
        <time>2016-07-25T20:22:29.000Z</time>
      </trkpt>
      <trkpt lat="48.81102" lon="2.49102">
        <ele>37.400001525879</ele>
        <time>2016-07-25T20:22:31.000Z</time>
      </trkpt>
      <trkpt lat="48.81104" lon="2.49086">
        <ele>37</ele>
        <time>2016-07-25T20:22:33.000Z</time>
      </trkpt>
      <trkpt lat="48.81115" lon="2.49059">
        <ele>37</ele>
        <time>2016-07-25T20:22:37.000Z</time>
      </trkpt>
      <trkpt lat="48.81119" lon="2.49042">
        <ele>37.200000762939</ele>
        <time>2016-07-25T20:22:39.000Z</time>
      </trkpt>
      <trkpt lat="48.81125" lon="2.49017">
        <ele>37.400001525879</ele>
        <time>2016-07-25T20:22:42.000Z</time>
      </trkpt>
      <trkpt lat="48.81131" lon="2.48989">
        <ele>37.599998474121</ele>
        <time>2016-07-25T20:22:45.000Z</time>
      </trkpt>
      <trkpt lat="48.81137" lon="2.48962">
        <ele>37.599998474121</ele>
        <time>2016-07-25T20:22:48.000Z</time>
      </trkpt>
      <trkpt lat="48.81143" lon="2.48935">
        <ele>37.599998474121</ele>
        <time>2016-07-25T20:22:51.000Z</time>
      </trkpt>
      <trkpt lat="48.81148" lon="2.48907">
        <ele>37.799999237061</ele>
        <time>2016-07-25T20:22:54.000Z</time>
      </trkpt>
      <trkpt lat="48.81154" lon="2.48881">
        <ele>38.400001525879</ele>
        <time>2016-07-25T20:22:57.000Z</time>
      </trkpt>
      <trkpt lat="48.8116" lon="2.48855">
        <ele>38</ele>
        <time>2016-07-25T20:23:00.000Z</time>
      </trkpt>
      <trkpt lat="48.81167" lon="2.48827">
        <ele>37.400001525879</ele>
        <time>2016-07-25T20:23:03.000Z</time>
      </trkpt>
      <trkpt lat="48.81175" lon="2.48797">
        <ele>36.400001525879</ele>
        <time>2016-07-25T20:23:06.000Z</time>
      </trkpt>
      <trkpt lat="48.81183" lon="2.48768">
        <ele>36.200000762939</ele>
        <time>2016-07-25T20:23:09.000Z</time>
      </trkpt>
      <trkpt lat="48.81191" lon="2.48728">
        <ele>36</ele>
        <time>2016-07-25T20:23:12.000Z</time>
      </trkpt>
      <trkpt lat="48.81193" lon="2.48717">
        <ele>35.799999237061</ele>
        <time>2016-07-25T20:23:13.000Z</time>
      </trkpt>
      <trkpt lat="48.81199" lon="2.48688">
        <ele>35.799999237061</ele>
        <time>2016-07-25T20:23:16.000Z</time>
      </trkpt>
      <trkpt lat="48.81203" lon="2.4867">
        <ele>35.599998474121</ele>
        <time>2016-07-25T20:23:18.000Z</time>
      </trkpt>
      <trkpt lat="48.81207" lon="2.48634">
        <ele>35.200000762939</ele>
        <time>2016-07-25T20:23:22.000Z</time>
      </trkpt>
      <trkpt lat="48.8121" lon="2.48599">
        <ele>34.799999237061</ele>
        <time>2016-07-25T20:23:26.000Z</time>
      </trkpt>
      <trkpt lat="48.81211" lon="2.48591">
        <ele>35</ele>
        <time>2016-07-25T20:23:27.000Z</time>
      </trkpt>
      <trkpt lat="48.81217" lon="2.48556">
        <ele>35.400001525879</ele>
        <time>2016-07-25T20:23:31.000Z</time>
      </trkpt>
      <trkpt lat="48.81219" lon="2.48525">
        <ele>35.799999237061</ele>
        <time>2016-07-25T20:23:34.000Z</time>
      </trkpt>
      <trkpt lat="48.81221" lon="2.48498">
        <ele>36.400001525879</ele>
        <time>2016-07-25T20:23:37.000Z</time>
      </trkpt>
      <trkpt lat="48.81222" lon="2.48469">
        <ele>36</ele>
        <time>2016-07-25T20:23:40.000Z</time>
      </trkpt>
      <trkpt lat="48.81228" lon="2.48441">
        <ele>35.799999237061</ele>
        <time>2016-07-25T20:23:43.000Z</time>
      </trkpt>
      <trkpt lat="48.81235" lon="2.48406">
        <ele>36</ele>
        <time>2016-07-25T20:23:47.000Z</time>
      </trkpt>
      <trkpt lat="48.81237" lon="2.48386">
        <ele>36.599998474121</ele>
        <time>2016-07-25T20:23:49.000Z</time>
      </trkpt>
      <trkpt lat="48.81241" lon="2.48356">
        <ele>36.799999237061</ele>
        <time>2016-07-25T20:23:52.000Z</time>
      </trkpt>
      <trkpt lat="48.81245" lon="2.48329">
        <ele>36.599998474121</ele>
        <time>2016-07-25T20:23:55.000Z</time>
      </trkpt>
      <trkpt lat="48.8125" lon="2.48296">
        <ele>36.200000762939</ele>
        <time>2016-07-25T20:23:59.000Z</time>
      </trkpt>
      <trkpt lat="48.81258" lon="2.48263">
        <ele>36.200000762939</ele>
        <time>2016-07-25T20:24:03.000Z</time>
      </trkpt>
      <trkpt lat="48.8126" lon="2.48246">
        <ele>36.200000762939</ele>
        <time>2016-07-25T20:24:05.000Z</time>
      </trkpt>
      <trkpt lat="48.81266" lon="2.48212">
        <ele>36.200000762939</ele>
        <time>2016-07-25T20:24:09.000Z</time>
      </trkpt>
      <trkpt lat="48.81272" lon="2.48177">
        <ele>36</ele>
        <time>2016-07-25T20:24:13.000Z</time>
      </trkpt>
      <trkpt lat="48.81276" lon="2.4815">
        <ele>36</ele>
        <time>2016-07-25T20:24:16.000Z</time>
      </trkpt>
      <trkpt lat="48.81281" lon="2.48115">
        <ele>36</ele>
        <time>2016-07-25T20:24:20.000Z</time>
      </trkpt>
      <trkpt lat="48.81286" lon="2.4808">
        <ele>36.200000762939</ele>
        <time>2016-07-25T20:24:24.000Z</time>
      </trkpt>
      <trkpt lat="48.81287" lon="2.48072">
        <ele>36.599998474121</ele>
        <time>2016-07-25T20:24:25.000Z</time>
      </trkpt>
      <trkpt lat="48.8129" lon="2.48046">
        <ele>38.200000762939</ele>
        <time>2016-07-25T20:24:28.000Z</time>
      </trkpt>
      <trkpt lat="48.81295" lon="2.48013">
        <ele>39.400001525879</ele>
        <time>2016-07-25T20:24:32.000Z</time>
      </trkpt>
      <trkpt lat="48.81299" lon="2.47982">
        <ele>39</ele>
        <time>2016-07-25T20:24:37.000Z</time>
      </trkpt>
      <trkpt lat="48.81301" lon="2.47975">
        <ele>38.799999237061</ele>
        <time>2016-07-25T20:24:40.000Z</time>
      </trkpt>
      <trkpt lat="48.81302" lon="2.47977">
        <ele>38.799999237061</ele>
        <time>2016-07-25T20:26:44.000Z</time>
      </trkpt>
      <trkpt lat="48.81308" lon="2.47947">
        <ele>38.599998474121</ele>
        <time>2016-07-25T20:26:52.000Z</time>
      </trkpt>
      <trkpt lat="48.81319" lon="2.47921">
        <ele>37.400001525879</ele>
        <time>2016-07-25T20:26:56.000Z</time>
      </trkpt>
      <trkpt lat="48.81329" lon="2.47898">
        <ele>36.400001525879</ele>
        <time>2016-07-25T20:26:59.000Z</time>
      </trkpt>
      <trkpt lat="48.8134" lon="2.47874">
        <ele>36</ele>
        <time>2016-07-25T20:27:02.000Z</time>
      </trkpt>
      <trkpt lat="48.8135" lon="2.47852">
        <ele>35.799999237061</ele>
        <time>2016-07-25T20:27:05.000Z</time>
      </trkpt>
      <trkpt lat="48.8136" lon="2.47828">
        <ele>36.400001525879</ele>
        <time>2016-07-25T20:27:08.000Z</time>
      </trkpt>
      <trkpt lat="48.81372" lon="2.47798">
        <ele>37.599998474121</ele>
        <time>2016-07-25T20:27:12.000Z</time>
      </trkpt>
      <trkpt lat="48.81384" lon="2.47768">
        <ele>38.200000762939</ele>
        <time>2016-07-25T20:27:16.000Z</time>
      </trkpt>
      <trkpt lat="48.81397" lon="2.47739">
        <ele>37.200000762939</ele>
        <time>2016-07-25T20:27:20.000Z</time>
      </trkpt>
      <trkpt lat="48.81407" lon="2.4771">
        <ele>37.400001525879</ele>
        <time>2016-07-25T20:27:24.000Z</time>
      </trkpt>
      <trkpt lat="48.81415" lon="2.47683">
        <ele>36.599998474121</ele>
        <time>2016-07-25T20:27:28.000Z</time>
      </trkpt>
      <trkpt lat="48.81418" lon="2.47677">
        <ele>36.400001525879</ele>
        <time>2016-07-25T20:27:29.000Z</time>
      </trkpt>
      <trkpt lat="48.81423" lon="2.47659">
        <ele>36</ele>
        <time>2016-07-25T20:27:32.000Z</time>
      </trkpt>
      <trkpt lat="48.81432" lon="2.47632">
        <ele>36</ele>
        <time>2016-07-25T20:27:36.000Z</time>
      </trkpt>
      <trkpt lat="48.81436" lon="2.47618">
        <ele>36.200000762939</ele>
        <time>2016-07-25T20:27:38.000Z</time>
      </trkpt>
      <trkpt lat="48.81442" lon="2.47592">
        <ele>36.799999237061</ele>
        <time>2016-07-25T20:27:41.000Z</time>
      </trkpt>
      <trkpt lat="48.81451" lon="2.47566">
        <ele>37</ele>
        <time>2016-07-25T20:27:44.000Z</time>
      </trkpt>
      <trkpt lat="48.81462" lon="2.4754">
        <ele>37.200000762939</ele>
        <time>2016-07-25T20:27:47.000Z</time>
      </trkpt>
      <trkpt lat="48.81472" lon="2.47516">
        <ele>37.799999237061</ele>
        <time>2016-07-25T20:27:50.000Z</time>
      </trkpt>
      <trkpt lat="48.81482" lon="2.47492">
        <ele>38.799999237061</ele>
        <time>2016-07-25T20:27:53.000Z</time>
      </trkpt>
      <trkpt lat="48.8149" lon="2.47476">
        <ele>39.200000762939</ele>
        <time>2016-07-25T20:27:55.000Z</time>
      </trkpt>
      <trkpt lat="48.81502" lon="2.47451">
        <ele>38.599998474121</ele>
        <time>2016-07-25T20:27:58.000Z</time>
      </trkpt>
      <trkpt lat="48.81515" lon="2.47425">
        <ele>37.400001525879</ele>
        <time>2016-07-25T20:28:01.000Z</time>
      </trkpt>
      <trkpt lat="48.81528" lon="2.47398">
        <ele>37</ele>
        <time>2016-07-25T20:28:04.000Z</time>
      </trkpt>
      <trkpt lat="48.81538" lon="2.47372">
        <ele>37</ele>
        <time>2016-07-25T20:28:07.000Z</time>
      </trkpt>
      <trkpt lat="48.81545" lon="2.47356">
        <ele>37</ele>
        <time>2016-07-25T20:28:09.000Z</time>
      </trkpt>
      <trkpt lat="48.81555" lon="2.4733">
        <ele>36.200000762939</ele>
        <time>2016-07-25T20:28:12.000Z</time>
      </trkpt>
      <trkpt lat="48.81563" lon="2.47314">
        <ele>36</ele>
        <time>2016-07-25T20:28:14.000Z</time>
      </trkpt>
      <trkpt lat="48.81575" lon="2.47287">
        <ele>36</ele>
        <time>2016-07-25T20:28:17.000Z</time>
      </trkpt>
      <trkpt lat="48.81586" lon="2.47266">
        <ele>36.599998474121</ele>
        <time>2016-07-25T20:28:20.000Z</time>
      </trkpt>
      <trkpt lat="48.81598" lon="2.47243">
        <ele>37.200000762939</ele>
        <time>2016-07-25T20:28:23.000Z</time>
      </trkpt>
      <trkpt lat="48.81612" lon="2.47221">
        <ele>37.400001525879</ele>
        <time>2016-07-25T20:28:26.000Z</time>
      </trkpt>
      <trkpt lat="48.81626" lon="2.47202">
        <ele>37.599998474121</ele>
        <time>2016-07-25T20:28:29.000Z</time>
      </trkpt>
      <trkpt lat="48.81644" lon="2.47182">
        <ele>37.200000762939</ele>
        <time>2016-07-25T20:28:33.000Z</time>
      </trkpt>
      <trkpt lat="48.81658" lon="2.47165">
        <ele>36.799999237061</ele>
        <time>2016-07-25T20:28:36.000Z</time>
      </trkpt>
      <trkpt lat="48.81676" lon="2.47142">
        <ele>36.799999237061</ele>
        <time>2016-07-25T20:28:40.000Z</time>
      </trkpt>
      <trkpt lat="48.8169" lon="2.47124">
        <ele>37</ele>
        <time>2016-07-25T20:28:43.000Z</time>
      </trkpt>
      <trkpt lat="48.817" lon="2.47113">
        <ele>37.200000762939</ele>
        <time>2016-07-25T20:28:45.000Z</time>
      </trkpt>
      <trkpt lat="48.81709" lon="2.47102">
        <ele>37.599998474121</ele>
        <time>2016-07-25T20:28:47.000Z</time>
      </trkpt>
      <trkpt lat="48.81727" lon="2.4708">
        <ele>37.599998474121</ele>
        <time>2016-07-25T20:28:51.000Z</time>
      </trkpt>
      <trkpt lat="48.81742" lon="2.47062">
        <ele>37.599998474121</ele>
        <time>2016-07-25T20:28:54.000Z</time>
      </trkpt>
      <trkpt lat="48.81757" lon="2.47046">
        <ele>37.599998474121</ele>
        <time>2016-07-25T20:28:57.000Z</time>
      </trkpt>
      <trkpt lat="48.81772" lon="2.4703">
        <ele>37.599998474121</ele>
        <time>2016-07-25T20:29:00.000Z</time>
      </trkpt>
      <trkpt lat="48.81777" lon="2.47024">
        <ele>37.599998474121</ele>
        <time>2016-07-25T20:29:01.000Z</time>
      </trkpt>
      <trkpt lat="48.81788" lon="2.47003">
        <ele>37.799999237061</ele>
        <time>2016-07-25T20:29:04.000Z</time>
      </trkpt>
      <trkpt lat="48.81791" lon="2.46995">
        <ele>37.799999237061</ele>
        <time>2016-07-25T20:29:05.000Z</time>
      </trkpt>
      <trkpt lat="48.81793" lon="2.46988">
        <ele>38</ele>
        <time>2016-07-25T20:29:06.000Z</time>
      </trkpt>
      <trkpt lat="48.81797" lon="2.46958">
        <ele>38.799999237061</ele>
        <time>2016-07-25T20:29:10.000Z</time>
      </trkpt>
      <trkpt lat="48.81797" lon="2.46949">
        <ele>39</ele>
        <time>2016-07-25T20:29:11.000Z</time>
      </trkpt>
      <trkpt lat="48.81791" lon="2.46922">
        <ele>39.200000762939</ele>
        <time>2016-07-25T20:29:15.000Z</time>
      </trkpt>
      <trkpt lat="48.81783" lon="2.46896">
        <ele>41</ele>
        <time>2016-07-25T20:29:19.000Z</time>
      </trkpt>
      <trkpt lat="48.81773" lon="2.46868">
        <ele>43.400001525879</ele>
        <time>2016-07-25T20:29:24.000Z</time>
      </trkpt>
      <trkpt lat="48.81772" lon="2.46864">
        <ele>43.799999237061</ele>
        <time>2016-07-25T20:29:25.000Z</time>
      </trkpt>
      <trkpt lat="48.81768" lon="2.4685">
        <ele>45.200000762939</ele>
        <time>2016-07-25T20:29:29.000Z</time>
      </trkpt>
      <trkpt lat="48.81771" lon="2.46831">
        <ele>46.200000762939</ele>
        <time>2016-07-25T20:29:34.000Z</time>
      </trkpt>
      <trkpt lat="48.81772" lon="2.46828">
        <ele>46.400001525879</ele>
        <time>2016-07-25T20:29:35.000Z</time>
      </trkpt>
      <trkpt lat="48.81778" lon="2.46819">
        <ele>46.799999237061</ele>
        <time>2016-07-25T20:29:39.000Z</time>
      </trkpt>
      <trkpt lat="48.81787" lon="2.46811">
        <ele>47.200000762939</ele>
        <time>2016-07-25T20:29:45.000Z</time>
      </trkpt>
      <trkpt lat="48.81799" lon="2.46799">
        <ele>47.599998474121</ele>
        <time>2016-07-25T20:30:37.000Z</time>
      </trkpt>
      <trkpt lat="48.81791" lon="2.46784">
        <ele>49.200000762939</ele>
        <time>2016-07-25T20:31:07.000Z</time>
      </trkpt>
      <trkpt lat="48.81779" lon="2.46771">
        <ele>50.799999237061</ele>
        <time>2016-07-25T20:31:15.000Z</time>
      </trkpt>
      <trkpt lat="48.81767" lon="2.4675">
        <ele>53</ele>
        <time>2016-07-25T20:31:25.000Z</time>
      </trkpt>
      <trkpt lat="48.81753" lon="2.4673">
        <ele>53</ele>
        <time>2016-07-25T20:31:38.000Z</time>
      </trkpt>
      <trkpt lat="48.81744" lon="2.46715">
        <ele>53</ele>
        <time>2016-07-25T20:31:51.000Z</time>
      </trkpt>
      <trkpt lat="48.8173" lon="2.46702">
        <ele>53</ele>
        <time>2016-07-25T20:32:03.000Z</time>
      </trkpt>
      <trkpt lat="48.81724" lon="2.46693">
        <ele>53.200000762939</ele>
        <time>2016-07-25T20:32:08.000Z</time>
      </trkpt>
      <trkpt lat="48.81717" lon="2.4668">
        <ele>53.200000762939</ele>
        <time>2016-07-25T20:32:13.000Z</time>
      </trkpt>
      <trkpt lat="48.8171" lon="2.46662">
        <ele>53.400001525879</ele>
        <time>2016-07-25T20:32:34.000Z</time>
      </trkpt>
      <trkpt lat="48.81697" lon="2.4664">
        <ele>54.400001525879</ele>
        <time>2016-07-25T20:32:38.000Z</time>
      </trkpt>
      <trkpt lat="48.81682" lon="2.46617">
        <ele>55.400001525879</ele>
        <time>2016-07-25T20:32:42.000Z</time>
      </trkpt>
      <trkpt lat="48.81665" lon="2.46592">
        <ele>56.599998474121</ele>
        <time>2016-07-25T20:32:46.000Z</time>
      </trkpt>
      <trkpt lat="48.81649" lon="2.46568">
        <ele>56.599998474121</ele>
        <time>2016-07-25T20:32:50.000Z</time>
      </trkpt>
      <trkpt lat="48.81633" lon="2.46542">
        <ele>56</ele>
        <time>2016-07-25T20:32:54.000Z</time>
      </trkpt>
      <trkpt lat="48.81618" lon="2.46515">
        <ele>55.400001525879</ele>
        <time>2016-07-25T20:32:58.000Z</time>
      </trkpt>
      <trkpt lat="48.81605" lon="2.46494">
        <ele>55</ele>
        <time>2016-07-25T20:33:01.000Z</time>
      </trkpt>
      <trkpt lat="48.81594" lon="2.46472">
        <ele>54.599998474121</ele>
        <time>2016-07-25T20:33:04.000Z</time>
      </trkpt>
      <trkpt lat="48.81582" lon="2.46449">
        <ele>53.799999237061</ele>
        <time>2016-07-25T20:33:07.000Z</time>
      </trkpt>
      <trkpt lat="48.81569" lon="2.46428">
        <ele>53.200000762939</ele>
        <time>2016-07-25T20:33:10.000Z</time>
      </trkpt>
      <trkpt lat="48.81556" lon="2.46408">
        <ele>52.400001525879</ele>
        <time>2016-07-25T20:33:13.000Z</time>
      </trkpt>
      <trkpt lat="48.81545" lon="2.46386">
        <ele>51.599998474121</ele>
        <time>2016-07-25T20:33:16.000Z</time>
      </trkpt>
      <trkpt lat="48.81538" lon="2.46372">
        <ele>51.200000762939</ele>
        <time>2016-07-25T20:33:18.000Z</time>
      </trkpt>
      <trkpt lat="48.81525" lon="2.4635">
        <ele>50.200000762939</ele>
        <time>2016-07-25T20:33:22.000Z</time>
      </trkpt>
      <trkpt lat="48.81517" lon="2.4634">
        <ele>49.599998474121</ele>
        <time>2016-07-25T20:33:25.000Z</time>
      </trkpt>
      <trkpt lat="48.81512" lon="2.46333">
        <ele>49.200000762939</ele>
        <time>2016-07-25T20:33:27.000Z</time>
      </trkpt>
      <trkpt lat="48.81506" lon="2.46319">
        <ele>48.599998474121</ele>
        <time>2016-07-25T20:33:31.000Z</time>
      </trkpt>
      <trkpt lat="48.81504" lon="2.46309">
        <ele>48.599998474121</ele>
        <time>2016-07-25T20:33:37.000Z</time>
      </trkpt>
      <trkpt lat="48.81495" lon="2.46289">
        <ele>48</ele>
        <time>2016-07-25T20:33:47.000Z</time>
      </trkpt>
      <trkpt lat="48.81479" lon="2.4627">
        <ele>46.599998474121</ele>
        <time>2016-07-25T20:33:54.000Z</time>
      </trkpt>
      <trkpt lat="48.81466" lon="2.46248">
        <ele>45.599998474121</ele>
        <time>2016-07-25T20:33:59.000Z</time>
      </trkpt>
      <trkpt lat="48.81458" lon="2.46232">
        <ele>44.400001525879</ele>
        <time>2016-07-25T20:34:04.000Z</time>
      </trkpt>
      <trkpt lat="48.81465" lon="2.46213">
        <ele>44.599998474121</ele>
        <time>2016-07-25T20:34:08.000Z</time>
      </trkpt>
      <trkpt lat="48.81478" lon="2.46192">
        <ele>44.799999237061</ele>
        <time>2016-07-25T20:34:13.000Z</time>
      </trkpt>
      <trkpt lat="48.81494" lon="2.46168">
        <ele>43.799999237061</ele>
        <time>2016-07-25T20:34:18.000Z</time>
      </trkpt>
      <trkpt lat="48.81507" lon="2.46149">
        <ele>44.400001525879</ele>
        <time>2016-07-25T20:34:22.000Z</time>
      </trkpt>
      <trkpt lat="48.81522" lon="2.46127">
        <ele>44</ele>
        <time>2016-07-25T20:34:27.000Z</time>
      </trkpt>
      <trkpt lat="48.81538" lon="2.46102">
        <ele>45.200000762939</ele>
        <time>2016-07-25T20:34:32.000Z</time>
      </trkpt>
      <trkpt lat="48.81551" lon="2.46079">
        <ele>45.599998474121</ele>
        <time>2016-07-25T20:34:37.000Z</time>
      </trkpt>
      <trkpt lat="48.81566" lon="2.46054">
        <ele>47</ele>
        <time>2016-07-25T20:34:42.000Z</time>
      </trkpt>
      <trkpt lat="48.81578" lon="2.46028">
        <ele>47</ele>
        <time>2016-07-25T20:34:47.000Z</time>
      </trkpt>
      <trkpt lat="48.81579" lon="2.46024">
        <ele>47</ele>
        <time>2016-07-25T20:34:48.000Z</time>
      </trkpt>
      <trkpt lat="48.81581" lon="2.4602">
        <ele>46.799999237061</ele>
        <time>2016-07-25T20:34:50.000Z</time>
      </trkpt>
      <trkpt lat="48.81591" lon="2.45996">
        <ele>46.400001525879</ele>
        <time>2016-07-25T20:35:00.000Z</time>
      </trkpt>
      <trkpt lat="48.816" lon="2.4597">
        <ele>46.200000762939</ele>
        <time>2016-07-25T20:35:06.000Z</time>
      </trkpt>
      <trkpt lat="48.81604" lon="2.45959">
        <ele>46</ele>
        <time>2016-07-25T20:35:11.000Z</time>
      </trkpt>
      <trkpt lat="48.81607" lon="2.45928">
        <ele>45.599998474121</ele>
        <time>2016-07-25T20:35:31.000Z</time>
      </trkpt>
      <trkpt lat="48.81609" lon="2.459">
        <ele>44.200000762939</ele>
        <time>2016-07-25T20:35:36.000Z</time>
      </trkpt>
      <trkpt lat="48.81616" lon="2.4587">
        <ele>42.599998474121</ele>
        <time>2016-07-25T20:35:42.000Z</time>
      </trkpt>
      <trkpt lat="48.81619" lon="2.45866">
        <ele>42.599998474121</ele>
        <time>2016-07-25T20:35:44.000Z</time>
      </trkpt>
      <trkpt lat="48.81614" lon="2.45877">
        <ele>42.799999237061</ele>
        <time>2016-07-25T20:35:53.000Z</time>
      </trkpt>
      <trkpt lat="48.81613" lon="2.45884">
        <ele>43.400001525879</ele>
        <time>2016-07-25T20:35:57.000Z</time>
      </trkpt>
      <trkpt lat="48.81613" lon="2.45885">
        <ele>43.599998474121</ele>
        <time>2016-07-25T20:35:59.000Z</time>
      </trkpt>
      <trkpt lat="48.81608" lon="2.45889">
        <ele>43</ele>
        <time>2016-07-25T20:37:13.000Z</time>
      </trkpt>
      <trkpt lat="48.81609" lon="2.45888">
        <ele>43</ele>
        <time>2016-07-25T20:37:15.000Z</time>
      </trkpt>
      <trkpt lat="48.81609" lon="2.45888">
        <ele>43.200000762939</ele>
        <time>2016-07-25T20:39:06.000Z</time>
      </trkpt>
      <trkpt lat="48.81606" lon="2.4589">
        <ele>43</ele>
        <time>2016-07-25T20:41:39.000Z</time>
      </trkpt>
      <trkpt lat="48.81612" lon="2.45873">
        <ele>42.200000762939</ele>
        <time>2016-07-25T20:42:27.000Z</time>
      </trkpt>
      <trkpt lat="48.8162" lon="2.45844">
        <ele>40.799999237061</ele>
        <time>2016-07-25T20:42:34.000Z</time>
      </trkpt>
      <trkpt lat="48.81629" lon="2.4582">
        <ele>40.200000762939</ele>
        <time>2016-07-25T20:42:39.000Z</time>
      </trkpt>
      <trkpt lat="48.81638" lon="2.45789">
        <ele>40.599998474121</ele>
        <time>2016-07-25T20:42:44.000Z</time>
      </trkpt>
      <trkpt lat="48.81642" lon="2.45772">
        <ele>39.799999237061</ele>
        <time>2016-07-25T20:42:46.000Z</time>
      </trkpt>
      <trkpt lat="48.81649" lon="2.4574">
        <ele>38.799999237061</ele>
        <time>2016-07-25T20:42:50.000Z</time>
      </trkpt>
      <trkpt lat="48.81654" lon="2.45707">
        <ele>39.200000762939</ele>
        <time>2016-07-25T20:42:54.000Z</time>
      </trkpt>
      <trkpt lat="48.8166" lon="2.45673">
        <ele>39</ele>
        <time>2016-07-25T20:42:58.000Z</time>
      </trkpt>
      <trkpt lat="48.81663" lon="2.45657">
        <ele>39.400001525879</ele>
        <time>2016-07-25T20:43:00.000Z</time>
      </trkpt>
      <trkpt lat="48.81671" lon="2.45625">
        <ele>39.799999237061</ele>
        <time>2016-07-25T20:43:04.000Z</time>
      </trkpt>
      <trkpt lat="48.81677" lon="2.45591">
        <ele>39.799999237061</ele>
        <time>2016-07-25T20:43:08.000Z</time>
      </trkpt>
      <trkpt lat="48.81683" lon="2.45559">
        <ele>39.799999237061</ele>
        <time>2016-07-25T20:43:12.000Z</time>
      </trkpt>
      <trkpt lat="48.81686" lon="2.45543">
        <ele>39.599998474121</ele>
        <time>2016-07-25T20:43:14.000Z</time>
      </trkpt>
      <trkpt lat="48.81693" lon="2.45513">
        <ele>40</ele>
        <time>2016-07-25T20:43:18.000Z</time>
      </trkpt>
      <trkpt lat="48.81699" lon="2.45484">
        <ele>41</ele>
        <time>2016-07-25T20:43:22.000Z</time>
      </trkpt>
      <trkpt lat="48.81701" lon="2.45451">
        <ele>42.200000762939</ele>
        <time>2016-07-25T20:43:27.000Z</time>
      </trkpt>
      <trkpt lat="48.817" lon="2.45421">
        <ele>42.400001525879</ele>
        <time>2016-07-25T20:43:31.000Z</time>
      </trkpt>
      <trkpt lat="48.81702" lon="2.45389">
        <ele>43.599998474121</ele>
        <time>2016-07-25T20:43:35.000Z</time>
      </trkpt>
      <trkpt lat="48.8171" lon="2.45357">
        <ele>45.599998474121</ele>
        <time>2016-07-25T20:43:38.000Z</time>
      </trkpt>
      <trkpt lat="48.81718" lon="2.45329">
        <ele>45.400001525879</ele>
        <time>2016-07-25T20:43:41.000Z</time>
      </trkpt>
      <trkpt lat="48.81723" lon="2.45301">
        <ele>46</ele>
        <time>2016-07-25T20:43:45.000Z</time>
      </trkpt>
      <trkpt lat="48.81724" lon="2.45269">
        <ele>45.400001525879</ele>
        <time>2016-07-25T20:43:49.000Z</time>
      </trkpt>
      <trkpt lat="48.81732" lon="2.45242">
        <ele>43.200000762939</ele>
        <time>2016-07-25T20:43:53.000Z</time>
      </trkpt>
      <trkpt lat="48.8174" lon="2.45211">
        <ele>40.400001525879</ele>
        <time>2016-07-25T20:43:57.000Z</time>
      </trkpt>
      <trkpt lat="48.8175" lon="2.45182">
        <ele>39.200000762939</ele>
        <time>2016-07-25T20:44:01.000Z</time>
      </trkpt>
      <trkpt lat="48.81758" lon="2.45149">
        <ele>37.799999237061</ele>
        <time>2016-07-25T20:44:05.000Z</time>
      </trkpt>
      <trkpt lat="48.8176" lon="2.4514">
        <ele>37.599998474121</ele>
        <time>2016-07-25T20:44:06.000Z</time>
      </trkpt>
      <trkpt lat="48.81769" lon="2.45107">
        <ele>36.799999237061</ele>
        <time>2016-07-25T20:44:10.000Z</time>
      </trkpt>
      <trkpt lat="48.8177" lon="2.45098">
        <ele>36.400001525879</ele>
        <time>2016-07-25T20:44:11.000Z</time>
      </trkpt>
      <trkpt lat="48.81776" lon="2.45064">
        <ele>36.400001525879</ele>
        <time>2016-07-25T20:44:15.000Z</time>
      </trkpt>
      <trkpt lat="48.81779" lon="2.45045">
        <ele>36.599998474121</ele>
        <time>2016-07-25T20:44:17.000Z</time>
      </trkpt>
      <trkpt lat="48.81783" lon="2.45017">
        <ele>37</ele>
        <time>2016-07-25T20:44:20.000Z</time>
      </trkpt>
      <trkpt lat="48.81786" lon="2.44998">
        <ele>37.200000762939</ele>
        <time>2016-07-25T20:44:22.000Z</time>
      </trkpt>
      <trkpt lat="48.8179" lon="2.44969">
        <ele>38.400001525879</ele>
        <time>2016-07-25T20:44:25.000Z</time>
      </trkpt>
      <trkpt lat="48.81793" lon="2.44938">
        <ele>39.599998474121</ele>
        <time>2016-07-25T20:44:28.000Z</time>
      </trkpt>
      <trkpt lat="48.81796" lon="2.44906">
        <ele>39.599998474121</ele>
        <time>2016-07-25T20:44:31.000Z</time>
      </trkpt>
      <trkpt lat="48.81797" lon="2.44874">
        <ele>40.599998474121</ele>
        <time>2016-07-25T20:44:34.000Z</time>
      </trkpt>
      <trkpt lat="48.81799" lon="2.44843">
        <ele>41.200000762939</ele>
        <time>2016-07-25T20:44:37.000Z</time>
      </trkpt>
      <trkpt lat="48.81799" lon="2.44833">
        <ele>41.200000762939</ele>
        <time>2016-07-25T20:44:38.000Z</time>
      </trkpt>
      <trkpt lat="48.81798" lon="2.44804">
        <ele>41.200000762939</ele>
        <time>2016-07-25T20:44:41.000Z</time>
      </trkpt>
      <trkpt lat="48.81799" lon="2.44773">
        <ele>41.200000762939</ele>
        <time>2016-07-25T20:44:44.000Z</time>
      </trkpt>
      <trkpt lat="48.81799" lon="2.44741">
        <ele>40.799999237061</ele>
        <time>2016-07-25T20:44:47.000Z</time>
      </trkpt>
      <trkpt lat="48.81797" lon="2.44709">
        <ele>39.799999237061</ele>
        <time>2016-07-25T20:44:50.000Z</time>
      </trkpt>
      <trkpt lat="48.81796" lon="2.44677">
        <ele>39</ele>
        <time>2016-07-25T20:44:53.000Z</time>
      </trkpt>
      <trkpt lat="48.81797" lon="2.44666">
        <ele>39</ele>
        <time>2016-07-25T20:44:54.000Z</time>
      </trkpt>
      <trkpt lat="48.81797" lon="2.44634">
        <ele>39.599998474121</ele>
        <time>2016-07-25T20:44:57.000Z</time>
      </trkpt>
      <trkpt lat="48.81797" lon="2.44601">
        <ele>40.200000762939</ele>
        <time>2016-07-25T20:45:00.000Z</time>
      </trkpt>
      <trkpt lat="48.81797" lon="2.44567">
        <ele>40.400001525879</ele>
        <time>2016-07-25T20:45:03.000Z</time>
      </trkpt>
      <trkpt lat="48.81795" lon="2.44533">
        <ele>40.599998474121</ele>
        <time>2016-07-25T20:45:06.000Z</time>
      </trkpt>
      <trkpt lat="48.81795" lon="2.44499">
        <ele>41.599998474121</ele>
        <time>2016-07-25T20:45:09.000Z</time>
      </trkpt>
      <trkpt lat="48.81794" lon="2.44465">
        <ele>40.200000762939</ele>
        <time>2016-07-25T20:45:12.000Z</time>
      </trkpt>
      <trkpt lat="48.81793" lon="2.4443">
        <ele>39</ele>
        <time>2016-07-25T20:45:15.000Z</time>
      </trkpt>
      <trkpt lat="48.81794" lon="2.44396">
        <ele>39.599998474121</ele>
        <time>2016-07-25T20:45:18.000Z</time>
      </trkpt>
      <trkpt lat="48.81795" lon="2.44362">
        <ele>40.599998474121</ele>
        <time>2016-07-25T20:45:21.000Z</time>
      </trkpt>
      <trkpt lat="48.81795" lon="2.44327">
        <ele>40.799999237061</ele>
        <time>2016-07-25T20:45:24.000Z</time>
      </trkpt>
      <trkpt lat="48.81793" lon="2.44292">
        <ele>40</ele>
        <time>2016-07-25T20:45:27.000Z</time>
      </trkpt>
      <trkpt lat="48.81793" lon="2.4426">
        <ele>39.599998474121</ele>
        <time>2016-07-25T20:45:30.000Z</time>
      </trkpt>
      <trkpt lat="48.81792" lon="2.4423">
        <ele>39.400001525879</ele>
        <time>2016-07-25T20:45:33.000Z</time>
      </trkpt>
      <trkpt lat="48.81794" lon="2.442">
        <ele>39.799999237061</ele>
        <time>2016-07-25T20:45:36.000Z</time>
      </trkpt>
      <trkpt lat="48.81798" lon="2.44171">
        <ele>40.400001525879</ele>
        <time>2016-07-25T20:45:39.000Z</time>
      </trkpt>
      <trkpt lat="48.81802" lon="2.44142">
        <ele>40.400001525879</ele>
        <time>2016-07-25T20:45:42.000Z</time>
      </trkpt>
      <trkpt lat="48.81807" lon="2.44112">
        <ele>40.599998474121</ele>
        <time>2016-07-25T20:45:45.000Z</time>
      </trkpt>
      <trkpt lat="48.8181" lon="2.44093">
        <ele>41</ele>
        <time>2016-07-25T20:45:47.000Z</time>
      </trkpt>
      <trkpt lat="48.81815" lon="2.44065">
        <ele>42.200000762939</ele>
        <time>2016-07-25T20:45:50.000Z</time>
      </trkpt>
      <trkpt lat="48.81819" lon="2.4404">
        <ele>43.200000762939</ele>
        <time>2016-07-25T20:45:53.000Z</time>
      </trkpt>
      <trkpt lat="48.81825" lon="2.44012">
        <ele>43.400001525879</ele>
        <time>2016-07-25T20:45:56.000Z</time>
      </trkpt>
      <trkpt lat="48.81828" lon="2.4398">
        <ele>43.200000762939</ele>
        <time>2016-07-25T20:46:00.000Z</time>
      </trkpt>
      <trkpt lat="48.8183" lon="2.43951">
        <ele>43</ele>
        <time>2016-07-25T20:46:04.000Z</time>
      </trkpt>
      <trkpt lat="48.81829" lon="2.43919">
        <ele>42.599998474121</ele>
        <time>2016-07-25T20:46:08.000Z</time>
      </trkpt>
      <trkpt lat="48.81826" lon="2.43884">
        <ele>41.799999237061</ele>
        <time>2016-07-25T20:46:12.000Z</time>
      </trkpt>
      <trkpt lat="48.81825" lon="2.43855">
        <ele>41.200000762939</ele>
        <time>2016-07-25T20:46:15.000Z</time>
      </trkpt>
      <trkpt lat="48.81822" lon="2.43824">
        <ele>40.599998474121</ele>
        <time>2016-07-25T20:46:18.000Z</time>
      </trkpt>
      <trkpt lat="48.81821" lon="2.43804">
        <ele>40.200000762939</ele>
        <time>2016-07-25T20:46:20.000Z</time>
      </trkpt>
      <trkpt lat="48.81819" lon="2.43773">
        <ele>39</ele>
        <time>2016-07-25T20:46:23.000Z</time>
      </trkpt>
      <trkpt lat="48.81818" lon="2.43741">
        <ele>37.799999237061</ele>
        <time>2016-07-25T20:46:26.000Z</time>
      </trkpt>
      <trkpt lat="48.81819" lon="2.43708">
        <ele>37.599998474121</ele>
        <time>2016-07-25T20:46:29.000Z</time>
      </trkpt>
      <trkpt lat="48.81821" lon="2.43676">
        <ele>37</ele>
        <time>2016-07-25T20:46:32.000Z</time>
      </trkpt>
      <trkpt lat="48.81821" lon="2.43646">
        <ele>37.200000762939</ele>
        <time>2016-07-25T20:46:35.000Z</time>
      </trkpt>
      <trkpt lat="48.81823" lon="2.43619">
        <ele>38</ele>
        <time>2016-07-25T20:46:38.000Z</time>
      </trkpt>
      <trkpt lat="48.81822" lon="2.4359">
        <ele>38.599998474121</ele>
        <time>2016-07-25T20:46:41.000Z</time>
      </trkpt>
      <trkpt lat="48.81822" lon="2.43562">
        <ele>39</ele>
        <time>2016-07-25T20:46:44.000Z</time>
      </trkpt>
      <trkpt lat="48.8182" lon="2.43526">
        <ele>38.599998474121</ele>
        <time>2016-07-25T20:46:48.000Z</time>
      </trkpt>
      <trkpt lat="48.8182" lon="2.43497">
        <ele>37.799999237061</ele>
        <time>2016-07-25T20:46:51.000Z</time>
      </trkpt>
      <trkpt lat="48.8182" lon="2.43467">
        <ele>38.200000762939</ele>
        <time>2016-07-25T20:46:54.000Z</time>
      </trkpt>
      <trkpt lat="48.81819" lon="2.43437">
        <ele>38.799999237061</ele>
        <time>2016-07-25T20:46:57.000Z</time>
      </trkpt>
      <trkpt lat="48.81819" lon="2.43407">
        <ele>39.400001525879</ele>
        <time>2016-07-25T20:47:00.000Z</time>
      </trkpt>
      <trkpt lat="48.81819" lon="2.43377">
        <ele>39</ele>
        <time>2016-07-25T20:47:03.000Z</time>
      </trkpt>
      <trkpt lat="48.81818" lon="2.43346">
        <ele>39.200000762939</ele>
        <time>2016-07-25T20:47:06.000Z</time>
      </trkpt>
      <trkpt lat="48.81817" lon="2.43316">
        <ele>39.599998474121</ele>
        <time>2016-07-25T20:47:09.000Z</time>
      </trkpt>
      <trkpt lat="48.81817" lon="2.43288">
        <ele>39.599998474121</ele>
        <time>2016-07-25T20:47:12.000Z</time>
      </trkpt>
      <trkpt lat="48.81817" lon="2.43255">
        <ele>38.799999237061</ele>
        <time>2016-07-25T20:47:16.000Z</time>
      </trkpt>
      <trkpt lat="48.81818" lon="2.43225">
        <ele>38.400001525879</ele>
        <time>2016-07-25T20:47:21.000Z</time>
      </trkpt>
      <trkpt lat="48.81817" lon="2.43216">
        <ele>38.400001525879</ele>
        <time>2016-07-25T20:49:04.000Z</time>
      </trkpt>
      <trkpt lat="48.81816" lon="2.43189">
        <ele>38</ele>
        <time>2016-07-25T20:49:12.000Z</time>
      </trkpt>
      <trkpt lat="48.81815" lon="2.43157">
        <ele>37.599998474121</ele>
        <time>2016-07-25T20:49:19.000Z</time>
      </trkpt>
      <trkpt lat="48.81812" lon="2.43136">
        <ele>37.400001525879</ele>
        <time>2016-07-25T20:49:22.000Z</time>
      </trkpt>
      <trkpt lat="48.81811" lon="2.43107">
        <ele>37.599998474121</ele>
        <time>2016-07-25T20:49:26.000Z</time>
      </trkpt>
      <trkpt lat="48.8181" lon="2.43075">
        <ele>37.599998474121</ele>
        <time>2016-07-25T20:49:30.000Z</time>
      </trkpt>
      <trkpt lat="48.8181" lon="2.43043">
        <ele>37.200000762939</ele>
        <time>2016-07-25T20:49:34.000Z</time>
      </trkpt>
      <trkpt lat="48.81808" lon="2.4301">
        <ele>37</ele>
        <time>2016-07-25T20:49:38.000Z</time>
      </trkpt>
      <trkpt lat="48.81806" lon="2.42977">
        <ele>36.799999237061</ele>
        <time>2016-07-25T20:49:42.000Z</time>
      </trkpt>
      <trkpt lat="48.81804" lon="2.42943">
        <ele>36.799999237061</ele>
        <time>2016-07-25T20:49:46.000Z</time>
      </trkpt>
      <trkpt lat="48.81803" lon="2.42922">
        <ele>36.799999237061</ele>
        <time>2016-07-25T20:49:48.000Z</time>
      </trkpt>
      <trkpt lat="48.81802" lon="2.42891">
        <ele>37</ele>
        <time>2016-07-25T20:49:51.000Z</time>
      </trkpt>
      <trkpt lat="48.81801" lon="2.4287">
        <ele>36.799999237061</ele>
        <time>2016-07-25T20:49:53.000Z</time>
      </trkpt>
      <trkpt lat="48.818" lon="2.42837">
        <ele>36.599998474121</ele>
        <time>2016-07-25T20:49:56.000Z</time>
      </trkpt>
      <trkpt lat="48.81799" lon="2.42826">
        <ele>36.599998474121</ele>
        <time>2016-07-25T20:49:57.000Z</time>
      </trkpt>
      <trkpt lat="48.81798" lon="2.42794">
        <ele>36</ele>
        <time>2016-07-25T20:50:00.000Z</time>
      </trkpt>
      <trkpt lat="48.81798" lon="2.42761">
        <ele>36</ele>
        <time>2016-07-25T20:50:03.000Z</time>
      </trkpt>
      <trkpt lat="48.81798" lon="2.42729">
        <ele>36.799999237061</ele>
        <time>2016-07-25T20:50:06.000Z</time>
      </trkpt>
      <trkpt lat="48.81797" lon="2.42695">
        <ele>38</ele>
        <time>2016-07-25T20:50:09.000Z</time>
      </trkpt>
      <trkpt lat="48.81796" lon="2.42664">
        <ele>37.200000762939</ele>
        <time>2016-07-25T20:50:12.000Z</time>
      </trkpt>
      <trkpt lat="48.81795" lon="2.42634">
        <ele>36.400001525879</ele>
        <time>2016-07-25T20:50:15.000Z</time>
      </trkpt>
      <trkpt lat="48.81795" lon="2.42603">
        <ele>35.599998474121</ele>
        <time>2016-07-25T20:50:18.000Z</time>
      </trkpt>
      <trkpt lat="48.81794" lon="2.42571">
        <ele>35.599998474121</ele>
        <time>2016-07-25T20:50:21.000Z</time>
      </trkpt>
      <trkpt lat="48.81793" lon="2.42542">
        <ele>35.200000762939</ele>
        <time>2016-07-25T20:50:24.000Z</time>
      </trkpt>
      <trkpt lat="48.81795" lon="2.42516">
        <ele>35.599998474121</ele>
        <time>2016-07-25T20:50:27.000Z</time>
      </trkpt>
      <trkpt lat="48.81799" lon="2.42495">
        <ele>36.799999237061</ele>
        <time>2016-07-25T20:50:30.000Z</time>
      </trkpt>
      <trkpt lat="48.81807" lon="2.42468">
        <ele>37.599998474121</ele>
        <time>2016-07-25T20:50:34.000Z</time>
      </trkpt>
      <trkpt lat="48.81812" lon="2.42444">
        <ele>37.400001525879</ele>
        <time>2016-07-25T20:50:39.000Z</time>
      </trkpt>
      <trkpt lat="48.81816" lon="2.42432">
        <ele>37</ele>
        <time>2016-07-25T20:51:47.000Z</time>
      </trkpt>
      <trkpt lat="48.81816" lon="2.42402">
        <ele>35.799999237061</ele>
        <time>2016-07-25T20:51:55.000Z</time>
      </trkpt>
      <trkpt lat="48.81815" lon="2.4238">
        <ele>36</ele>
        <time>2016-07-25T20:51:58.000Z</time>
      </trkpt>
      <trkpt lat="48.81813" lon="2.42348">
        <ele>35.599998474121</ele>
        <time>2016-07-25T20:52:02.000Z</time>
      </trkpt>
      <trkpt lat="48.81813" lon="2.4234">
        <ele>35.599998474121</ele>
        <time>2016-07-25T20:52:03.000Z</time>
      </trkpt>
      <trkpt lat="48.81814" lon="2.4233">
        <ele>35.599998474121</ele>
        <time>2016-07-25T20:52:04.000Z</time>
      </trkpt>
      <trkpt lat="48.81814" lon="2.42299">
        <ele>35.799999237061</ele>
        <time>2016-07-25T20:52:08.000Z</time>
      </trkpt>
      <trkpt lat="48.81812" lon="2.42269">
        <ele>36.799999237061</ele>
        <time>2016-07-25T20:52:12.000Z</time>
      </trkpt>
      <trkpt lat="48.81812" lon="2.42238">
        <ele>38.200000762939</ele>
        <time>2016-07-25T20:52:16.000Z</time>
      </trkpt>
      <trkpt lat="48.81813" lon="2.42207">
        <ele>39.400001525879</ele>
        <time>2016-07-25T20:52:20.000Z</time>
      </trkpt>
      <trkpt lat="48.81816" lon="2.42176">
        <ele>41.599998474121</ele>
        <time>2016-07-25T20:52:24.000Z</time>
      </trkpt>
      <trkpt lat="48.81816" lon="2.42161">
        <ele>42.400001525879</ele>
        <time>2016-07-25T20:52:26.000Z</time>
      </trkpt>
      <trkpt lat="48.81818" lon="2.42129">
        <ele>42.400001525879</ele>
        <time>2016-07-25T20:52:30.000Z</time>
      </trkpt>
      <trkpt lat="48.81818" lon="2.42101">
        <ele>42.599998474121</ele>
        <time>2016-07-25T20:52:34.000Z</time>
      </trkpt>
      <trkpt lat="48.81818" lon="2.42081">
        <ele>42.599998474121</ele>
        <time>2016-07-25T20:52:37.000Z</time>
      </trkpt>
      <trkpt lat="48.81824" lon="2.42051">
        <ele>42.799999237061</ele>
        <time>2016-07-25T20:52:41.000Z</time>
      </trkpt>
      <trkpt lat="48.8183" lon="2.42028">
        <ele>43</ele>
        <time>2016-07-25T20:52:44.000Z</time>
      </trkpt>
      <trkpt lat="48.81829" lon="2.41999">
        <ele>42.200000762939</ele>
        <time>2016-07-25T20:52:51.000Z</time>
      </trkpt>
      <trkpt lat="48.81829" lon="2.41993">
        <ele>42</ele>
        <time>2016-07-25T20:52:54.000Z</time>
      </trkpt>
      <trkpt lat="48.8183" lon="2.4199">
        <ele>42</ele>
        <time>2016-07-25T20:52:57.000Z</time>
      </trkpt>
      <trkpt lat="48.81831" lon="2.41983">
        <ele>42</ele>
        <time>2016-07-25T20:53:00.000Z</time>
      </trkpt>
      <trkpt lat="48.81826" lon="2.41968">
        <ele>41</ele>
        <time>2016-07-25T20:53:21.000Z</time>
      </trkpt>
      <trkpt lat="48.81816" lon="2.41971">
        <ele>40.200000762939</ele>
        <time>2016-07-25T20:53:25.000Z</time>
      </trkpt>
      <trkpt lat="48.818" lon="2.41975">
        <ele>38.400001525879</ele>
        <time>2016-07-25T20:53:37.000Z</time>
      </trkpt>
      <trkpt lat="48.81786" lon="2.41969">
        <ele>36.799999237061</ele>
        <time>2016-07-25T20:53:44.000Z</time>
      </trkpt>
      <trkpt lat="48.81785" lon="2.41941">
        <ele>36</ele>
        <time>2016-07-25T20:53:51.000Z</time>
      </trkpt>
      <trkpt lat="48.81783" lon="2.4191">
        <ele>35.200000762939</ele>
        <time>2016-07-25T20:53:57.000Z</time>
      </trkpt>
      <trkpt lat="48.81782" lon="2.4188">
        <ele>35</ele>
        <time>2016-07-25T20:54:02.000Z</time>
      </trkpt>
      <trkpt lat="48.8178" lon="2.41848">
        <ele>35</ele>
        <time>2016-07-25T20:54:07.000Z</time>
      </trkpt>
      <trkpt lat="48.8178" lon="2.4182">
        <ele>34.799999237061</ele>
        <time>2016-07-25T20:54:11.000Z</time>
      </trkpt>
      <trkpt lat="48.8178" lon="2.4179">
        <ele>34.799999237061</ele>
        <time>2016-07-25T20:54:15.000Z</time>
      </trkpt>
      <trkpt lat="48.81781" lon="2.41756">
        <ele>35</ele>
        <time>2016-07-25T20:54:19.000Z</time>
      </trkpt>
      <trkpt lat="48.81782" lon="2.41728">
        <ele>35.799999237061</ele>
        <time>2016-07-25T20:54:22.000Z</time>
      </trkpt>
      <trkpt lat="48.81782" lon="2.41694">
        <ele>37</ele>
        <time>2016-07-25T20:54:26.000Z</time>
      </trkpt>
      <trkpt lat="48.81783" lon="2.41662">
        <ele>38.200000762939</ele>
        <time>2016-07-25T20:54:30.000Z</time>
      </trkpt>
      <trkpt lat="48.81791" lon="2.41607">
        <ele>41</ele>
        <time>2016-07-25T20:54:34.000Z</time>
      </trkpt>
      <trkpt lat="48.81797" lon="2.41577">
        <ele>40.400001525879</ele>
        <time>2016-07-25T20:54:37.000Z</time>
      </trkpt>
      <trkpt lat="48.818" lon="2.41567">
        <ele>40</ele>
        <time>2016-07-25T20:54:38.000Z</time>
      </trkpt>
      <trkpt lat="48.81805" lon="2.41538">
        <ele>38.599998474121</ele>
        <time>2016-07-25T20:54:42.000Z</time>
      </trkpt>
      <trkpt lat="48.81809" lon="2.41507">
        <ele>37.400001525879</ele>
        <time>2016-07-25T20:54:46.000Z</time>
      </trkpt>
      <trkpt lat="48.81821" lon="2.4148">
        <ele>36.799999237061</ele>
        <time>2016-07-25T20:54:51.000Z</time>
      </trkpt>
      <trkpt lat="48.81823" lon="2.41466">
        <ele>36.400001525879</ele>
        <time>2016-07-25T20:54:53.000Z</time>
      </trkpt>
      <trkpt lat="48.81819" lon="2.41434">
        <ele>36.200000762939</ele>
        <time>2016-07-25T20:54:57.000Z</time>
      </trkpt>
      <trkpt lat="48.81819" lon="2.41428">
        <ele>36.200000762939</ele>
        <time>2016-07-25T20:54:58.000Z</time>
      </trkpt>
      <trkpt lat="48.81821" lon="2.41412">
        <ele>36.400001525879</ele>
        <time>2016-07-25T20:55:01.000Z</time>
      </trkpt>
      <trkpt lat="48.81823" lon="2.4138">
        <ele>36</ele>
        <time>2016-07-25T20:55:07.000Z</time>
      </trkpt>
      <trkpt lat="48.81825" lon="2.41365">
        <ele>35.799999237061</ele>
        <time>2016-07-25T20:55:10.000Z</time>
      </trkpt>
      <trkpt lat="48.81828" lon="2.41338">
        <ele>35.200000762939</ele>
        <time>2016-07-25T20:55:15.000Z</time>
      </trkpt>
      <trkpt lat="48.8183" lon="2.41311">
        <ele>34.799999237061</ele>
        <time>2016-07-25T20:55:19.000Z</time>
      </trkpt>
      <trkpt lat="48.81831" lon="2.41303">
        <ele>34.799999237061</ele>
        <time>2016-07-25T20:55:20.000Z</time>
      </trkpt>
      <trkpt lat="48.81834" lon="2.41274">
        <ele>34.599998474121</ele>
        <time>2016-07-25T20:55:24.000Z</time>
      </trkpt>
      <trkpt lat="48.81837" lon="2.41254">
        <ele>34.400001525879</ele>
        <time>2016-07-25T20:55:27.000Z</time>
      </trkpt>
      <trkpt lat="48.81837" lon="2.41239">
        <ele>34.799999237061</ele>
        <time>2016-07-25T20:55:29.000Z</time>
      </trkpt>
      <trkpt lat="48.81839" lon="2.41218">
        <ele>35.400001525879</ele>
        <time>2016-07-25T20:55:32.000Z</time>
      </trkpt>
      <trkpt lat="48.81841" lon="2.41189">
        <ele>35.400001525879</ele>
        <time>2016-07-25T20:55:36.000Z</time>
      </trkpt>
      <trkpt lat="48.81841" lon="2.41167">
        <ele>35.400001525879</ele>
        <time>2016-07-25T20:55:39.000Z</time>
      </trkpt>
      <trkpt lat="48.81844" lon="2.41134">
        <ele>34.799999237061</ele>
        <time>2016-07-25T20:55:44.000Z</time>
      </trkpt>
      <trkpt lat="48.81849" lon="2.41104">
        <ele>35</ele>
        <time>2016-07-25T20:55:49.000Z</time>
      </trkpt>
      <trkpt lat="48.81851" lon="2.41099">
        <ele>35</ele>
        <time>2016-07-25T20:55:50.000Z</time>
      </trkpt>
      <trkpt lat="48.81862" lon="2.41084">
        <ele>35.599998474121</ele>
        <time>2016-07-25T20:55:55.000Z</time>
      </trkpt>
      <trkpt lat="48.81863" lon="2.4108">
        <ele>35.599998474121</ele>
        <time>2016-07-25T20:55:56.000Z</time>
      </trkpt>
      <trkpt lat="48.81865" lon="2.41065">
        <ele>36</ele>
        <time>2016-07-25T20:55:59.000Z</time>
      </trkpt>
      <trkpt lat="48.81863" lon="2.41042">
        <ele>36</ele>
        <time>2016-07-25T20:56:03.000Z</time>
      </trkpt>
      <trkpt lat="48.81865" lon="2.41009">
        <ele>36.599998474121</ele>
        <time>2016-07-25T20:56:08.000Z</time>
      </trkpt>
      <trkpt lat="48.81871" lon="2.40983">
        <ele>36.400001525879</ele>
        <time>2016-07-25T20:56:12.000Z</time>
      </trkpt>
      <trkpt lat="48.81877" lon="2.40957">
        <ele>35.799999237061</ele>
        <time>2016-07-25T20:56:16.000Z</time>
      </trkpt>
      <trkpt lat="48.81881" lon="2.4094">
        <ele>35.400001525879</ele>
        <time>2016-07-25T20:56:19.000Z</time>
      </trkpt>
      <trkpt lat="48.81889" lon="2.40909">
        <ele>36.200000762939</ele>
        <time>2016-07-25T20:56:24.000Z</time>
      </trkpt>
      <trkpt lat="48.81891" lon="2.40903">
        <ele>36.200000762939</ele>
        <time>2016-07-25T20:56:25.000Z</time>
      </trkpt>
      <trkpt lat="48.81897" lon="2.40871">
        <ele>36</ele>
        <time>2016-07-25T20:56:30.000Z</time>
      </trkpt>
      <trkpt lat="48.81898" lon="2.40857">
        <ele>36.200000762939</ele>
        <time>2016-07-25T20:56:32.000Z</time>
      </trkpt>
      <trkpt lat="48.81904" lon="2.40828">
        <ele>37</ele>
        <time>2016-07-25T20:56:36.000Z</time>
      </trkpt>
      <trkpt lat="48.81912" lon="2.408">
        <ele>38.599998474121</ele>
        <time>2016-07-25T20:56:40.000Z</time>
      </trkpt>
      <trkpt lat="48.81919" lon="2.40776">
        <ele>38.799999237061</ele>
        <time>2016-07-25T20:56:44.000Z</time>
      </trkpt>
      <trkpt lat="48.81925" lon="2.40754">
        <ele>39</ele>
        <time>2016-07-25T20:56:48.000Z</time>
      </trkpt>
      <trkpt lat="48.81932" lon="2.40724">
        <ele>37.799999237061</ele>
        <time>2016-07-25T20:56:53.000Z</time>
      </trkpt>
      <trkpt lat="48.81939" lon="2.40692">
        <ele>36</ele>
        <time>2016-07-25T20:56:58.000Z</time>
      </trkpt>
      <trkpt lat="48.8194" lon="2.40675">
        <ele>34.799999237061</ele>
        <time>2016-07-25T20:57:01.000Z</time>
      </trkpt>
      <trkpt lat="48.81943" lon="2.40647">
        <ele>33.400001525879</ele>
        <time>2016-07-25T20:57:06.000Z</time>
      </trkpt>
      <trkpt lat="48.81943" lon="2.40642">
        <ele>33</ele>
        <time>2016-07-25T20:57:07.000Z</time>
      </trkpt>
      <trkpt lat="48.81945" lon="2.40622">
        <ele>32.200000762939</ele>
        <time>2016-07-25T20:57:10.000Z</time>
      </trkpt>
      <trkpt lat="48.81951" lon="2.40594">
        <ele>31.200000762939</ele>
        <time>2016-07-25T20:57:14.000Z</time>
      </trkpt>
      <trkpt lat="48.81957" lon="2.40565">
        <ele>31.799999237061</ele>
        <time>2016-07-25T20:57:18.000Z</time>
      </trkpt>
      <trkpt lat="48.81966" lon="2.40539">
        <ele>32.799999237061</ele>
        <time>2016-07-25T20:57:21.000Z</time>
      </trkpt>
      <trkpt lat="48.81986" lon="2.40503">
        <ele>37.400001525879</ele>
        <time>2016-07-25T20:57:23.000Z</time>
      </trkpt>
      <trkpt lat="48.81998" lon="2.40472">
        <ele>40</ele>
        <time>2016-07-25T20:57:26.000Z</time>
      </trkpt>
      <trkpt lat="48.82005" lon="2.40442">
        <ele>38</ele>
        <time>2016-07-25T20:57:29.000Z</time>
      </trkpt>
      <trkpt lat="48.82009" lon="2.40432">
        <ele>37.400001525879</ele>
        <time>2016-07-25T20:57:30.000Z</time>
      </trkpt>
      <trkpt lat="48.8202" lon="2.404">
        <ele>36.599998474121</ele>
        <time>2016-07-25T20:57:34.000Z</time>
      </trkpt>
      <trkpt lat="48.82029" lon="2.40368">
        <ele>36.200000762939</ele>
        <time>2016-07-25T20:57:38.000Z</time>
      </trkpt>
      <trkpt lat="48.82037" lon="2.40342">
        <ele>36</ele>
        <time>2016-07-25T20:57:41.000Z</time>
      </trkpt>
      <trkpt lat="48.82044" lon="2.40316">
        <ele>36</ele>
        <time>2016-07-25T20:57:44.000Z</time>
      </trkpt>
      <trkpt lat="48.82049" lon="2.40288">
        <ele>35.599998474121</ele>
        <time>2016-07-25T20:57:47.000Z</time>
      </trkpt>
      <trkpt lat="48.82056" lon="2.40263">
        <ele>35.799999237061</ele>
        <time>2016-07-25T20:57:50.000Z</time>
      </trkpt>
      <trkpt lat="48.82065" lon="2.40228">
        <ele>36.599998474121</ele>
        <time>2016-07-25T20:57:54.000Z</time>
      </trkpt>
      <trkpt lat="48.82073" lon="2.40195">
        <ele>36.200000762939</ele>
        <time>2016-07-25T20:57:58.000Z</time>
      </trkpt>
      <trkpt lat="48.82083" lon="2.40168">
        <ele>35.400001525879</ele>
        <time>2016-07-25T20:58:02.000Z</time>
      </trkpt>
      <trkpt lat="48.82092" lon="2.40142">
        <ele>34.799999237061</ele>
        <time>2016-07-25T20:58:07.000Z</time>
      </trkpt>
      <trkpt lat="48.82102" lon="2.40115">
        <ele>33.599998474121</ele>
        <time>2016-07-25T20:58:12.000Z</time>
      </trkpt>
      <trkpt lat="48.82109" lon="2.40103">
        <ele>33</ele>
        <time>2016-07-25T20:58:14.000Z</time>
      </trkpt>
      <trkpt lat="48.82117" lon="2.40082">
        <ele>32</ele>
        <time>2016-07-25T20:58:17.000Z</time>
      </trkpt>
      <trkpt lat="48.82128" lon="2.40055">
        <ele>31</ele>
        <time>2016-07-25T20:58:21.000Z</time>
      </trkpt>
      <trkpt lat="48.82137" lon="2.40029">
        <ele>30.200000762939</ele>
        <time>2016-07-25T20:58:25.000Z</time>
      </trkpt>
      <trkpt lat="48.82149" lon="2.40001">
        <ele>30</ele>
        <time>2016-07-25T20:58:29.000Z</time>
      </trkpt>
      <trkpt lat="48.82157" lon="2.39987">
        <ele>30</ele>
        <time>2016-07-25T20:58:31.000Z</time>
      </trkpt>
      <trkpt lat="48.8217" lon="2.39962">
        <ele>29.60000038147</ele>
        <time>2016-07-25T20:58:35.000Z</time>
      </trkpt>
      <trkpt lat="48.82173" lon="2.39952">
        <ele>29.60000038147</ele>
        <time>2016-07-25T20:58:37.000Z</time>
      </trkpt>
      <trkpt lat="48.82183" lon="2.3994">
        <ele>29.39999961853</ele>
        <time>2016-07-25T20:58:43.000Z</time>
      </trkpt>
      <trkpt lat="48.82187" lon="2.39939">
        <ele>29.60000038147</ele>
        <time>2016-07-25T20:58:46.000Z</time>
      </trkpt>
      <trkpt lat="48.82193" lon="2.39914">
        <ele>29</ele>
        <time>2016-07-25T20:59:22.000Z</time>
      </trkpt>
      <trkpt lat="48.82203" lon="2.39888">
        <ele>28</ele>
        <time>2016-07-25T20:59:26.000Z</time>
      </trkpt>
      <trkpt lat="48.82216" lon="2.39864">
        <ele>27.200000762939</ele>
        <time>2016-07-25T20:59:30.000Z</time>
      </trkpt>
      <trkpt lat="48.8223" lon="2.39839">
        <ele>28.799999237061</ele>
        <time>2016-07-25T20:59:34.000Z</time>
      </trkpt>
      <trkpt lat="48.8224" lon="2.39811">
        <ele>29.799999237061</ele>
        <time>2016-07-25T20:59:38.000Z</time>
      </trkpt>
      <trkpt lat="48.82253" lon="2.39788">
        <ele>30</ele>
        <time>2016-07-25T20:59:42.000Z</time>
      </trkpt>
      <trkpt lat="48.82262" lon="2.3977">
        <ele>30</ele>
        <time>2016-07-25T20:59:46.000Z</time>
      </trkpt>
      <trkpt lat="48.82277" lon="2.39779">
        <ele>31.200000762939</ele>
        <time>2016-07-25T21:00:03.000Z</time>
      </trkpt>
      <trkpt lat="48.82293" lon="2.39799">
        <ele>32.599998474121</ele>
        <time>2016-07-25T21:00:13.000Z</time>
      </trkpt>
      <trkpt lat="48.82309" lon="2.39818">
        <ele>34.400001525879</ele>
        <time>2016-07-25T21:00:21.000Z</time>
      </trkpt>
      <trkpt lat="48.82326" lon="2.39831">
        <ele>35.799999237061</ele>
        <time>2016-07-25T21:00:26.000Z</time>
      </trkpt>
      <trkpt lat="48.8234" lon="2.39855">
        <ele>36</ele>
        <time>2016-07-25T21:00:32.000Z</time>
      </trkpt>
      <trkpt lat="48.82354" lon="2.39869">
        <ele>36.599998474121</ele>
        <time>2016-07-25T21:00:38.000Z</time>
      </trkpt>
      <trkpt lat="48.82364" lon="2.39856">
        <ele>37.599998474121</ele>
        <time>2016-07-25T21:00:42.000Z</time>
      </trkpt>
      <trkpt lat="48.82382" lon="2.3984">
        <ele>38.400001525879</ele>
        <time>2016-07-25T21:00:48.000Z</time>
      </trkpt>
      <trkpt lat="48.82395" lon="2.39819">
        <ele>37.400001525879</ele>
        <time>2016-07-25T21:00:52.000Z</time>
      </trkpt>
      <trkpt lat="48.8241" lon="2.39796">
        <ele>36.200000762939</ele>
        <time>2016-07-25T21:00:57.000Z</time>
      </trkpt>
      <trkpt lat="48.82416" lon="2.39778">
        <ele>36.799999237061</ele>
        <time>2016-07-25T21:01:04.000Z</time>
      </trkpt>
      <trkpt lat="48.82404" lon="2.39756">
        <ele>35.599998474121</ele>
        <time>2016-07-25T21:01:15.000Z</time>
      </trkpt>
      <trkpt lat="48.8239" lon="2.39737">
        <ele>34.799999237061</ele>
        <time>2016-07-25T21:01:21.000Z</time>
      </trkpt>
      <trkpt lat="48.82375" lon="2.39719">
        <ele>34.400001525879</ele>
        <time>2016-07-25T21:01:26.000Z</time>
      </trkpt>
      <trkpt lat="48.82363" lon="2.39698">
        <ele>34.200000762939</ele>
        <time>2016-07-25T21:01:31.000Z</time>
      </trkpt>
      <trkpt lat="48.82357" lon="2.39691">
        <ele>33.799999237061</ele>
        <time>2016-07-25T21:01:34.000Z</time>
      </trkpt>
      <trkpt lat="48.82357" lon="2.39692">
        <ele>33.799999237061</ele>
        <time>2016-07-25T21:01:36.000Z</time>
      </trkpt>
      <trkpt lat="48.82383" lon="2.39663">
        <ele>36.400001525879</ele>
        <time>2016-07-25T21:01:43.000Z</time>
      </trkpt>
      <trkpt lat="48.82388" lon="2.39656">
        <ele>36.599998474121</ele>
        <time>2016-07-25T21:01:44.000Z</time>
      </trkpt>
      <trkpt lat="48.82401" lon="2.39636">
        <ele>37.200000762939</ele>
        <time>2016-07-25T21:01:47.000Z</time>
      </trkpt>
      <trkpt lat="48.82409" lon="2.39623">
        <ele>38.200000762939</ele>
        <time>2016-07-25T21:01:49.000Z</time>
      </trkpt>
      <trkpt lat="48.82422" lon="2.39597">
        <ele>41.200000762939</ele>
        <time>2016-07-25T21:01:53.000Z</time>
      </trkpt>
      <trkpt lat="48.82435" lon="2.39575">
        <ele>43.599998474121</ele>
        <time>2016-07-25T21:01:57.000Z</time>
      </trkpt>
      <trkpt lat="48.8245" lon="2.39551">
        <ele>45.200000762939</ele>
        <time>2016-07-25T21:02:01.000Z</time>
      </trkpt>
      <trkpt lat="48.82459" lon="2.39533">
        <ele>45.799999237061</ele>
        <time>2016-07-25T21:02:04.000Z</time>
      </trkpt>
      <trkpt lat="48.82474" lon="2.39511">
        <ele>44.400001525879</ele>
        <time>2016-07-25T21:02:08.000Z</time>
      </trkpt>
      <trkpt lat="48.82489" lon="2.39487">
        <ele>40.599998474121</ele>
        <time>2016-07-25T21:02:13.000Z</time>
      </trkpt>
      <trkpt lat="48.82503" lon="2.39461">
        <ele>38.599998474121</ele>
        <time>2016-07-25T21:02:18.000Z</time>
      </trkpt>
      <trkpt lat="48.82509" lon="2.39446">
        <ele>39</ele>
        <time>2016-07-25T21:02:21.000Z</time>
      </trkpt>
      <trkpt lat="48.82513" lon="2.3942">
        <ele>39.599998474121</ele>
        <time>2016-07-25T21:02:26.000Z</time>
      </trkpt>
      <trkpt lat="48.8251" lon="2.39404">
        <ele>38.400001525879</ele>
        <time>2016-07-25T21:02:32.000Z</time>
      </trkpt>
      <trkpt lat="48.82509" lon="2.39401">
        <ele>38.200000762939</ele>
        <time>2016-07-25T21:02:33.000Z</time>
      </trkpt>
      <trkpt lat="48.82506" lon="2.39395">
        <ele>37.599998474121</ele>
        <time>2016-07-25T21:02:35.000Z</time>
      </trkpt>
      <trkpt lat="48.82505" lon="2.3938">
        <ele>36.799999237061</ele>
        <time>2016-07-25T21:02:40.000Z</time>
      </trkpt>
      <trkpt lat="48.82514" lon="2.39368">
        <ele>37</ele>
        <time>2016-07-25T21:02:46.000Z</time>
      </trkpt>
      <trkpt lat="48.82523" lon="2.39363">
        <ele>37.599998474121</ele>
        <time>2016-07-25T21:02:50.000Z</time>
      </trkpt>
      <trkpt lat="48.82538" lon="2.39346">
        <ele>37.400001525879</ele>
        <time>2016-07-25T21:02:57.000Z</time>
      </trkpt>
      <trkpt lat="48.8255" lon="2.39324">
        <ele>36.200000762939</ele>
        <time>2016-07-25T21:03:03.000Z</time>
      </trkpt>
      <trkpt lat="48.82563" lon="2.39304">
        <ele>34.200000762939</ele>
        <time>2016-07-25T21:03:09.000Z</time>
      </trkpt>
      <trkpt lat="48.82579" lon="2.39284">
        <ele>32.599998474121</ele>
        <time>2016-07-25T21:03:15.000Z</time>
      </trkpt>
      <trkpt lat="48.82594" lon="2.39268">
        <ele>31.60000038147</ele>
        <time>2016-07-25T21:03:20.000Z</time>
      </trkpt>
      <trkpt lat="48.82609" lon="2.39248">
        <ele>30.39999961853</ele>
        <time>2016-07-25T21:03:26.000Z</time>
      </trkpt>
      <trkpt lat="48.82629" lon="2.39234">
        <ele>31.39999961853</ele>
        <time>2016-07-25T21:03:32.000Z</time>
      </trkpt>
      <trkpt lat="48.82648" lon="2.3922">
        <ele>32.400001525879</ele>
        <time>2016-07-25T21:03:39.000Z</time>
      </trkpt>
      <trkpt lat="48.82665" lon="2.39228">
        <ele>34.599998474121</ele>
        <time>2016-07-25T21:03:44.000Z</time>
      </trkpt>
      <trkpt lat="48.82678" lon="2.39247">
        <ele>37</ele>
        <time>2016-07-25T21:03:49.000Z</time>
      </trkpt>
      <trkpt lat="48.82691" lon="2.39267">
        <ele>39.799999237061</ele>
        <time>2016-07-25T21:03:55.000Z</time>
      </trkpt>
      <trkpt lat="48.82704" lon="2.39291">
        <ele>40.799999237061</ele>
        <time>2016-07-25T21:04:02.000Z</time>
      </trkpt>
      <trkpt lat="48.82712" lon="2.39319">
        <ele>42.799999237061</ele>
        <time>2016-07-25T21:04:08.000Z</time>
      </trkpt>
      <trkpt lat="48.82718" lon="2.39328">
        <ele>43.200000762939</ele>
        <time>2016-07-25T21:04:12.000Z</time>
      </trkpt>
      <trkpt lat="48.82729" lon="2.39331">
        <ele>42.200000762939</ele>
        <time>2016-07-25T21:04:19.000Z</time>
      </trkpt>
      <trkpt lat="48.82742" lon="2.3932">
        <ele>39.400001525879</ele>
        <time>2016-07-25T21:04:25.000Z</time>
      </trkpt>
      <trkpt lat="48.82756" lon="2.39304">
        <ele>37</ele>
        <time>2016-07-25T21:04:47.000Z</time>
      </trkpt>
      <trkpt lat="48.82771" lon="2.39284">
        <ele>35.799999237061</ele>
        <time>2016-07-25T21:04:56.000Z</time>
      </trkpt>
      <trkpt lat="48.82784" lon="2.39263">
        <ele>35</ele>
        <time>2016-07-25T21:05:00.000Z</time>
      </trkpt>
      <trkpt lat="48.82796" lon="2.39238">
        <ele>35.200000762939</ele>
        <time>2016-07-25T21:05:05.000Z</time>
      </trkpt>
      <trkpt lat="48.8281" lon="2.39213">
        <ele>35.400001525879</ele>
        <time>2016-07-25T21:05:10.000Z</time>
      </trkpt>
      <trkpt lat="48.82821" lon="2.39192">
        <ele>35</ele>
        <time>2016-07-25T21:05:14.000Z</time>
      </trkpt>
      <trkpt lat="48.82833" lon="2.39168">
        <ele>34.400001525879</ele>
        <time>2016-07-25T21:05:19.000Z</time>
      </trkpt>
      <trkpt lat="48.82848" lon="2.39146">
        <ele>34</ele>
        <time>2016-07-25T21:05:24.000Z</time>
      </trkpt>
      <trkpt lat="48.82864" lon="2.39127">
        <ele>35.200000762939</ele>
        <time>2016-07-25T21:05:28.000Z</time>
      </trkpt>
      <trkpt lat="48.82882" lon="2.39108">
        <ele>36</ele>
        <time>2016-07-25T21:05:33.000Z</time>
      </trkpt>
      <trkpt lat="48.82899" lon="2.39092">
        <ele>36.799999237061</ele>
        <time>2016-07-25T21:05:38.000Z</time>
      </trkpt>
      <trkpt lat="48.82917" lon="2.39078">
        <ele>37.400001525879</ele>
        <time>2016-07-25T21:05:44.000Z</time>
      </trkpt>
      <trkpt lat="48.82928" lon="2.39072">
        <ele>37.400001525879</ele>
        <time>2016-07-25T21:05:50.000Z</time>
      </trkpt>
      <trkpt lat="48.82933" lon="2.39059">
        <ele>37.799999237061</ele>
        <time>2016-07-25T21:06:31.000Z</time>
      </trkpt>
      <trkpt lat="48.82941" lon="2.39032">
        <ele>38.599998474121</ele>
        <time>2016-07-25T21:06:48.000Z</time>
      </trkpt>
      <trkpt lat="48.82935" lon="2.39005">
        <ele>38.599998474121</ele>
        <time>2016-07-25T21:06:55.000Z</time>
      </trkpt>
      <trkpt lat="48.82931" lon="2.38985">
        <ele>38</ele>
        <time>2016-07-25T21:07:01.000Z</time>
      </trkpt>
      <trkpt lat="48.82935" lon="2.38982">
        <ele>38.400001525879</ele>
        <time>2016-07-25T21:07:05.000Z</time>
      </trkpt>
      <trkpt lat="48.82936" lon="2.38979">
        <ele>38.400001525879</ele>
        <time>2016-07-25T21:07:07.000Z</time>
      </trkpt>
      <trkpt lat="48.82927" lon="2.38955">
        <ele>37</ele>
        <time>2016-07-25T21:07:14.000Z</time>
      </trkpt>
      <trkpt lat="48.82917" lon="2.3893">
        <ele>35.599998474121</ele>
        <time>2016-07-25T21:07:20.000Z</time>
      </trkpt>
      <trkpt lat="48.82906" lon="2.38906">
        <ele>34.200000762939</ele>
        <time>2016-07-25T21:07:26.000Z</time>
      </trkpt>
      <trkpt lat="48.82896" lon="2.38882">
        <ele>33.400001525879</ele>
        <time>2016-07-25T21:07:32.000Z</time>
      </trkpt>
      <trkpt lat="48.82885" lon="2.38858">
        <ele>32.400001525879</ele>
        <time>2016-07-25T21:07:39.000Z</time>
      </trkpt>
      <trkpt lat="48.82885" lon="2.38856">
        <ele>32.400001525879</ele>
        <time>2016-07-25T21:07:40.000Z</time>
      </trkpt>
      <trkpt lat="48.829" lon="2.38839">
        <ele>32.799999237061</ele>
        <time>2016-07-25T21:07:51.000Z</time>
      </trkpt>
      <trkpt lat="48.82916" lon="2.38815">
        <ele>33.400001525879</ele>
        <time>2016-07-25T21:07:57.000Z</time>
      </trkpt>
      <trkpt lat="48.82931" lon="2.38793">
        <ele>34.400001525879</ele>
        <time>2016-07-25T21:08:02.000Z</time>
      </trkpt>
      <trkpt lat="48.82944" lon="2.3877">
        <ele>35.400001525879</ele>
        <time>2016-07-25T21:08:08.000Z</time>
      </trkpt>
      <trkpt lat="48.82957" lon="2.38744">
        <ele>36.400001525879</ele>
        <time>2016-07-25T21:08:14.000Z</time>
      </trkpt>
      <trkpt lat="48.82974" lon="2.38726">
        <ele>36.799999237061</ele>
        <time>2016-07-25T21:08:19.000Z</time>
      </trkpt>
      <trkpt lat="48.82987" lon="2.38717">
        <ele>37.599998474121</ele>
        <time>2016-07-25T21:08:25.000Z</time>
      </trkpt>
      <trkpt lat="48.82992" lon="2.38721">
        <ele>38.200000762939</ele>
        <time>2016-07-25T21:08:31.000Z</time>
      </trkpt>
      <trkpt lat="48.82995" lon="2.38719">
        <ele>38.400001525879</ele>
        <time>2016-07-25T21:08:35.000Z</time>
      </trkpt>
      <trkpt lat="48.83008" lon="2.38712">
        <ele>39</ele>
        <time>2016-07-25T21:09:21.000Z</time>
      </trkpt>
      <trkpt lat="48.83025" lon="2.38697">
        <ele>39.799999237061</ele>
        <time>2016-07-25T21:09:30.000Z</time>
      </trkpt>
      <trkpt lat="48.83031" lon="2.38691">
        <ele>40</ele>
        <time>2016-07-25T21:09:34.000Z</time>
      </trkpt>
      <trkpt lat="48.83039" lon="2.38681">
        <ele>40.200000762939</ele>
        <time>2016-07-25T21:09:40.000Z</time>
      </trkpt>
      <trkpt lat="48.83049" lon="2.38671">
        <ele>40.599998474121</ele>
        <time>2016-07-25T21:09:50.000Z</time>
      </trkpt>
      <trkpt lat="48.83055" lon="2.3867">
        <ele>41</ele>
        <time>2016-07-25T21:09:55.000Z</time>
      </trkpt>
      <trkpt lat="48.83065" lon="2.38679">
        <ele>42.200000762939</ele>
        <time>2016-07-25T21:10:08.000Z</time>
      </trkpt>
      <trkpt lat="48.8308" lon="2.38687">
        <ele>44</ele>
        <time>2016-07-25T21:10:46.000Z</time>
      </trkpt>
      <trkpt lat="48.83096" lon="2.38701">
        <ele>46</ele>
        <time>2016-07-25T21:10:52.000Z</time>
      </trkpt>
      <trkpt lat="48.83113" lon="2.38718">
        <ele>46.599998474121</ele>
        <time>2016-07-25T21:10:57.000Z</time>
      </trkpt>
      <trkpt lat="48.83118" lon="2.38722">
        <ele>46.200000762939</ele>
        <time>2016-07-25T21:10:58.000Z</time>
      </trkpt>
      <trkpt lat="48.83134" lon="2.38742">
        <ele>45.400001525879</ele>
        <time>2016-07-25T21:11:02.000Z</time>
      </trkpt>
      <trkpt lat="48.83138" lon="2.38747">
        <ele>45</ele>
        <time>2016-07-25T21:11:03.000Z</time>
      </trkpt>
      <trkpt lat="48.83151" lon="2.38763">
        <ele>44.599998474121</ele>
        <time>2016-07-25T21:11:06.000Z</time>
      </trkpt>
      <trkpt lat="48.83168" lon="2.38788">
        <ele>44.400001525879</ele>
        <time>2016-07-25T21:11:10.000Z</time>
      </trkpt>
      <trkpt lat="48.83181" lon="2.38807">
        <ele>44.200000762939</ele>
        <time>2016-07-25T21:11:13.000Z</time>
      </trkpt>
      <trkpt lat="48.83191" lon="2.38839">
        <ele>45.400001525879</ele>
        <time>2016-07-25T21:11:17.000Z</time>
      </trkpt>
      <trkpt lat="48.83207" lon="2.38866">
        <ele>46</ele>
        <time>2016-07-25T21:11:21.000Z</time>
      </trkpt>
      <trkpt lat="48.83221" lon="2.38892">
        <ele>46.599998474121</ele>
        <time>2016-07-25T21:11:25.000Z</time>
      </trkpt>
      <trkpt lat="48.83235" lon="2.38918">
        <ele>47.200000762939</ele>
        <time>2016-07-25T21:11:29.000Z</time>
      </trkpt>
      <trkpt lat="48.83248" lon="2.38948">
        <ele>46</ele>
        <time>2016-07-25T21:11:33.000Z</time>
      </trkpt>
      <trkpt lat="48.83258" lon="2.38972">
        <ele>45.200000762939</ele>
        <time>2016-07-25T21:11:36.000Z</time>
      </trkpt>
      <trkpt lat="48.83261" lon="2.3898">
        <ele>45</ele>
        <time>2016-07-25T21:11:37.000Z</time>
      </trkpt>
      <trkpt lat="48.83275" lon="2.39005">
        <ele>43.599998474121</ele>
        <time>2016-07-25T21:11:40.000Z</time>
      </trkpt>
      <trkpt lat="48.83281" lon="2.39017">
        <ele>43</ele>
        <time>2016-07-25T21:11:42.000Z</time>
      </trkpt>
      <trkpt lat="48.83293" lon="2.3904">
        <ele>41.799999237061</ele>
        <time>2016-07-25T21:11:47.000Z</time>
      </trkpt>
      <trkpt lat="48.83295" lon="2.39044">
        <ele>41.599998474121</ele>
        <time>2016-07-25T21:11:49.000Z</time>
      </trkpt>
      <trkpt lat="48.83305" lon="2.39017">
        <ele>41.799999237061</ele>
        <time>2016-07-25T21:12:00.000Z</time>
      </trkpt>
      <trkpt lat="48.83319" lon="2.38995">
        <ele>40</ele>
        <time>2016-07-25T21:12:05.000Z</time>
      </trkpt>
      <trkpt lat="48.83333" lon="2.38978">
        <ele>39</ele>
        <time>2016-07-25T21:12:09.000Z</time>
      </trkpt>
      <trkpt lat="48.83346" lon="2.38959">
        <ele>38.599998474121</ele>
        <time>2016-07-25T21:12:13.000Z</time>
      </trkpt>
      <trkpt lat="48.83362" lon="2.3894">
        <ele>38.599998474121</ele>
        <time>2016-07-25T21:12:17.000Z</time>
      </trkpt>
      <trkpt lat="48.8338" lon="2.38923">
        <ele>39.200000762939</ele>
        <time>2016-07-25T21:12:21.000Z</time>
      </trkpt>
      <trkpt lat="48.83396" lon="2.38904">
        <ele>39.400001525879</ele>
        <time>2016-07-25T21:12:25.000Z</time>
      </trkpt>
      <trkpt lat="48.83412" lon="2.38884">
        <ele>39.400001525879</ele>
        <time>2016-07-25T21:12:29.000Z</time>
      </trkpt>
      <trkpt lat="48.83428" lon="2.38864">
        <ele>40.599998474121</ele>
        <time>2016-07-25T21:12:33.000Z</time>
      </trkpt>
      <trkpt lat="48.83444" lon="2.38847">
        <ele>41.599998474121</ele>
        <time>2016-07-25T21:12:37.000Z</time>
      </trkpt>
      <trkpt lat="48.83458" lon="2.38828">
        <ele>42.200000762939</ele>
        <time>2016-07-25T21:12:41.000Z</time>
      </trkpt>
      <trkpt lat="48.83473" lon="2.38808">
        <ele>42.200000762939</ele>
        <time>2016-07-25T21:12:45.000Z</time>
      </trkpt>
      <trkpt lat="48.83491" lon="2.38787">
        <ele>42.599998474121</ele>
        <time>2016-07-25T21:12:49.000Z</time>
      </trkpt>
      <trkpt lat="48.83506" lon="2.38763">
        <ele>43.799999237061</ele>
        <time>2016-07-25T21:12:54.000Z</time>
      </trkpt>
      <trkpt lat="48.83509" lon="2.38759">
        <ele>44.200000762939</ele>
        <time>2016-07-25T21:12:55.000Z</time>
      </trkpt>
      <trkpt lat="48.83524" lon="2.38737">
        <ele>44.200000762939</ele>
        <time>2016-07-25T21:13:00.000Z</time>
      </trkpt>
      <trkpt lat="48.83537" lon="2.38717">
        <ele>42</ele>
        <time>2016-07-25T21:13:04.000Z</time>
      </trkpt>
      <trkpt lat="48.8355" lon="2.38698">
        <ele>40</ele>
        <time>2016-07-25T21:13:09.000Z</time>
      </trkpt>
      <trkpt lat="48.83567" lon="2.38681">
        <ele>38.799999237061</ele>
        <time>2016-07-25T21:13:15.000Z</time>
      </trkpt>
      <trkpt lat="48.83572" lon="2.38676">
        <ele>38.599998474121</ele>
        <time>2016-07-25T21:13:18.000Z</time>
      </trkpt>
      <trkpt lat="48.83578" lon="2.38664">
        <ele>38.400001525879</ele>
        <time>2016-07-25T21:13:26.000Z</time>
      </trkpt>
      <trkpt lat="48.83579" lon="2.38663">
        <ele>38.200000762939</ele>
        <time>2016-07-25T21:13:27.000Z</time>
      </trkpt>
      <trkpt lat="48.83583" lon="2.38649">
        <ele>38</ele>
        <time>2016-07-25T21:13:55.000Z</time>
      </trkpt>
      <trkpt lat="48.83582" lon="2.38625">
        <ele>38.599998474121</ele>
        <time>2016-07-25T21:14:03.000Z</time>
      </trkpt>
      <trkpt lat="48.83579" lon="2.38598">
        <ele>39.200000762939</ele>
        <time>2016-07-25T21:14:09.000Z</time>
      </trkpt>
      <trkpt lat="48.83592" lon="2.38577">
        <ele>39.400001525879</ele>
        <time>2016-07-25T21:14:15.000Z</time>
      </trkpt>
      <trkpt lat="48.83603" lon="2.38558">
        <ele>38.799999237061</ele>
        <time>2016-07-25T21:14:19.000Z</time>
      </trkpt>
      <trkpt lat="48.83618" lon="2.38537">
        <ele>38.200000762939</ele>
        <time>2016-07-25T21:14:23.000Z</time>
      </trkpt>
      <trkpt lat="48.83634" lon="2.38513">
        <ele>37.599998474121</ele>
        <time>2016-07-25T21:14:27.000Z</time>
      </trkpt>
      <trkpt lat="48.83646" lon="2.38492">
        <ele>37.799999237061</ele>
        <time>2016-07-25T21:14:30.000Z</time>
      </trkpt>
      <trkpt lat="48.83658" lon="2.38466">
        <ele>38.599998474121</ele>
        <time>2016-07-25T21:14:33.000Z</time>
      </trkpt>
      <trkpt lat="48.83673" lon="2.38443">
        <ele>39.599998474121</ele>
        <time>2016-07-25T21:14:36.000Z</time>
      </trkpt>
      <trkpt lat="48.83687" lon="2.38419">
        <ele>40.799999237061</ele>
        <time>2016-07-25T21:14:39.000Z</time>
      </trkpt>
      <trkpt lat="48.83701" lon="2.38396">
        <ele>41.400001525879</ele>
        <time>2016-07-25T21:14:42.000Z</time>
      </trkpt>
      <trkpt lat="48.83714" lon="2.38373">
        <ele>42</ele>
        <time>2016-07-25T21:14:45.000Z</time>
      </trkpt>
      <trkpt lat="48.83727" lon="2.38352">
        <ele>42.200000762939</ele>
        <time>2016-07-25T21:14:48.000Z</time>
      </trkpt>
      <trkpt lat="48.83742" lon="2.38327">
        <ele>42.200000762939</ele>
        <time>2016-07-25T21:14:52.000Z</time>
      </trkpt>
      <trkpt lat="48.83755" lon="2.38305">
        <ele>41.599998474121</ele>
        <time>2016-07-25T21:14:56.000Z</time>
      </trkpt>
      <trkpt lat="48.83766" lon="2.38283">
        <ele>41.799999237061</ele>
        <time>2016-07-25T21:15:00.000Z</time>
      </trkpt>
      <trkpt lat="48.83779" lon="2.38259">
        <ele>41.799999237061</ele>
        <time>2016-07-25T21:15:04.000Z</time>
      </trkpt>
      <trkpt lat="48.83794" lon="2.38241">
        <ele>41.799999237061</ele>
        <time>2016-07-25T21:15:07.000Z</time>
      </trkpt>
      <trkpt lat="48.83809" lon="2.38216">
        <ele>41.599998474121</ele>
        <time>2016-07-25T21:15:11.000Z</time>
      </trkpt>
      <trkpt lat="48.83824" lon="2.38192">
        <ele>41.599998474121</ele>
        <time>2016-07-25T21:15:16.000Z</time>
      </trkpt>
      <trkpt lat="48.8383" lon="2.38182">
        <ele>41.799999237061</ele>
        <time>2016-07-25T21:15:18.000Z</time>
      </trkpt>
      <trkpt lat="48.83843" lon="2.38161">
        <ele>42.200000762939</ele>
        <time>2016-07-25T21:15:23.000Z</time>
      </trkpt>
      <trkpt lat="48.83846" lon="2.3815">
        <ele>42.200000762939</ele>
        <time>2016-07-25T21:15:25.000Z</time>
      </trkpt>
      <trkpt lat="48.83856" lon="2.3815">
        <ele>41.599998474121</ele>
        <time>2016-07-25T21:15:31.000Z</time>
      </trkpt>
      <trkpt lat="48.83859" lon="2.38153">
        <ele>41.799999237061</ele>
        <time>2016-07-25T21:15:33.000Z</time>
      </trkpt>
      <trkpt lat="48.83869" lon="2.38127">
        <ele>41.799999237061</ele>
        <time>2016-07-25T21:15:48.000Z</time>
      </trkpt>
      <trkpt lat="48.83882" lon="2.38105">
        <ele>41.799999237061</ele>
        <time>2016-07-25T21:15:58.000Z</time>
      </trkpt>
      <trkpt lat="48.83894" lon="2.38084">
        <ele>41.799999237061</ele>
        <time>2016-07-25T21:16:06.000Z</time>
      </trkpt>
      <trkpt lat="48.83898" lon="2.3807">
        <ele>42.799999237061</ele>
        <time>2016-07-25T21:16:14.000Z</time>
      </trkpt>
      <trkpt lat="48.83911" lon="2.38049">
        <ele>44.400001525879</ele>
        <time>2016-07-25T21:16:21.000Z</time>
      </trkpt>
      <trkpt lat="48.83923" lon="2.38028">
        <ele>44.200000762939</ele>
        <time>2016-07-25T21:16:27.000Z</time>
      </trkpt>
      <trkpt lat="48.83939" lon="2.38009">
        <ele>44</ele>
        <time>2016-07-25T21:16:33.000Z</time>
      </trkpt>
      <trkpt lat="48.83946" lon="2.37997">
        <ele>44</ele>
        <time>2016-07-25T21:16:37.000Z</time>
      </trkpt>
      <trkpt lat="48.83964" lon="2.3798">
        <ele>45.200000762939</ele>
        <time>2016-07-25T21:16:43.000Z</time>
      </trkpt>
      <trkpt lat="48.83975" lon="2.37963">
        <ele>46.599998474121</ele>
        <time>2016-07-25T21:16:50.000Z</time>
      </trkpt>
      <trkpt lat="48.83987" lon="2.37943">
        <ele>47</ele>
        <time>2016-07-25T21:17:14.000Z</time>
      </trkpt>
      <trkpt lat="48.83986" lon="2.37946">
        <ele>47</ele>
        <time>2016-07-25T21:17:26.000Z</time>
      </trkpt>
      <trkpt lat="48.84" lon="2.37931">
        <ele>46.599998474121</ele>
        <time>2016-07-25T21:17:43.000Z</time>
      </trkpt>
      <trkpt lat="48.8401" lon="2.37922">
        <ele>46.400001525879</ele>
        <time>2016-07-25T21:17:49.000Z</time>
      </trkpt>
      <trkpt lat="48.84022" lon="2.37932">
        <ele>45.599998474121</ele>
        <time>2016-07-25T21:17:54.000Z</time>
      </trkpt>
      <trkpt lat="48.84039" lon="2.3794">
        <ele>44.599998474121</ele>
        <time>2016-07-25T21:18:04.000Z</time>
      </trkpt>
      <trkpt lat="48.84053" lon="2.37923">
        <ele>45.400001525879</ele>
        <time>2016-07-25T21:18:13.000Z</time>
      </trkpt>
      <trkpt lat="48.84057" lon="2.3791">
        <ele>46</ele>
        <time>2016-07-25T21:18:18.000Z</time>
      </trkpt>
      <trkpt lat="48.84063" lon="2.37899">
        <ele>45.799999237061</ele>
        <time>2016-07-25T21:18:23.000Z</time>
      </trkpt>
      <trkpt lat="48.84065" lon="2.3789">
        <ele>45.799999237061</ele>
        <time>2016-07-25T21:18:27.000Z</time>
      </trkpt>
      <trkpt lat="48.84069" lon="2.37886">
        <ele>45.599998474121</ele>
        <time>2016-07-25T21:18:32.000Z</time>
      </trkpt>
      <trkpt lat="48.84085" lon="2.37878">
        <ele>44.400001525879</ele>
        <time>2016-07-25T21:19:26.000Z</time>
      </trkpt>
      <trkpt lat="48.84098" lon="2.37857">
        <ele>41.799999237061</ele>
        <time>2016-07-25T21:19:32.000Z</time>
      </trkpt>
      <trkpt lat="48.84114" lon="2.3784">
        <ele>39</ele>
        <time>2016-07-25T21:19:40.000Z</time>
      </trkpt>
      <trkpt lat="48.84127" lon="2.37819">
        <ele>38.799999237061</ele>
        <time>2016-07-25T21:19:45.000Z</time>
      </trkpt>
      <trkpt lat="48.84139" lon="2.37795">
        <ele>38.599998474121</ele>
        <time>2016-07-25T21:19:50.000Z</time>
      </trkpt>
      <trkpt lat="48.84151" lon="2.37774">
        <ele>38.400001525879</ele>
        <time>2016-07-25T21:19:54.000Z</time>
      </trkpt>
      <trkpt lat="48.84165" lon="2.37754">
        <ele>38.200000762939</ele>
        <time>2016-07-25T21:19:59.000Z</time>
      </trkpt>
      <trkpt lat="48.84175" lon="2.37729">
        <ele>39.599998474121</ele>
        <time>2016-07-25T21:20:03.000Z</time>
      </trkpt>
      <trkpt lat="48.84189" lon="2.37706">
        <ele>38</ele>
        <time>2016-07-25T21:20:08.000Z</time>
      </trkpt>
      <trkpt lat="48.84201" lon="2.37678">
        <ele>37.799999237061</ele>
        <time>2016-07-25T21:20:13.000Z</time>
      </trkpt>
      <trkpt lat="48.8421" lon="2.37652">
        <ele>38</ele>
        <time>2016-07-25T21:20:23.000Z</time>
      </trkpt>
      <trkpt lat="48.84211" lon="2.37652">
        <ele>38</ele>
        <time>2016-07-25T21:20:24.000Z</time>
      </trkpt>
      <trkpt lat="48.84219" lon="2.37625">
        <ele>39.200000762939</ele>
        <time>2016-07-25T21:20:35.000Z</time>
      </trkpt>
      <trkpt lat="48.84234" lon="2.37602">
        <ele>39.400001525879</ele>
        <time>2016-07-25T21:20:41.000Z</time>
      </trkpt>
      <trkpt lat="48.84246" lon="2.37582">
        <ele>39.200000762939</ele>
        <time>2016-07-25T21:20:46.000Z</time>
      </trkpt>
      <trkpt lat="48.84257" lon="2.37555">
        <ele>39.400001525879</ele>
        <time>2016-07-25T21:20:52.000Z</time>
      </trkpt>
      <trkpt lat="48.84256" lon="2.37536">
        <ele>40.599998474121</ele>
        <time>2016-07-25T21:21:00.000Z</time>
      </trkpt>
      <trkpt lat="48.84237" lon="2.37543">
        <ele>39.400001525879</ele>
        <time>2016-07-25T21:21:08.000Z</time>
      </trkpt>
      <trkpt lat="48.84218" lon="2.37557">
        <ele>40.400001525879</ele>
        <time>2016-07-25T21:21:14.000Z</time>
      </trkpt>
      <trkpt lat="48.84202" lon="2.37574">
        <ele>41.200000762939</ele>
        <time>2016-07-25T21:21:24.000Z</time>
      </trkpt>
      <trkpt lat="48.842" lon="2.37579">
        <ele>41.400001525879</ele>
        <time>2016-07-25T21:21:28.000Z</time>
      </trkpt>
      <trkpt lat="48.84219" lon="2.37562">
        <ele>40.400001525879</ele>
        <time>2016-07-25T21:21:39.000Z</time>
      </trkpt>
      <trkpt lat="48.84236" lon="2.37548">
        <ele>39.400001525879</ele>
        <time>2016-07-25T21:21:44.000Z</time>
      </trkpt>
      <trkpt lat="48.84253" lon="2.37529">
        <ele>41</ele>
        <time>2016-07-25T21:21:49.000Z</time>
      </trkpt>
      <trkpt lat="48.84258" lon="2.37501">
        <ele>43.200000762939</ele>
        <time>2016-07-25T21:21:53.000Z</time>
      </trkpt>
      <trkpt lat="48.84264" lon="2.37473">
        <ele>43.799999237061</ele>
        <time>2016-07-25T21:21:57.000Z</time>
      </trkpt>
      <trkpt lat="48.8427" lon="2.37456">
        <ele>44.400001525879</ele>
        <time>2016-07-25T21:22:00.000Z</time>
      </trkpt>
      <trkpt lat="48.84286" lon="2.37438">
        <ele>45</ele>
        <time>2016-07-25T21:22:07.000Z</time>
      </trkpt>
      <trkpt lat="48.84302" lon="2.3742">
        <ele>45.599998474121</ele>
        <time>2016-07-25T21:22:12.000Z</time>
      </trkpt>
      <trkpt lat="48.84317" lon="2.37399">
        <ele>45.599998474121</ele>
        <time>2016-07-25T21:22:17.000Z</time>
      </trkpt>
      <trkpt lat="48.84335" lon="2.37381">
        <ele>46</ele>
        <time>2016-07-25T21:22:22.000Z</time>
      </trkpt>
      <trkpt lat="48.84351" lon="2.37363">
        <ele>46.799999237061</ele>
        <time>2016-07-25T21:22:26.000Z</time>
      </trkpt>
      <trkpt lat="48.84367" lon="2.37341">
        <ele>46.400001525879</ele>
        <time>2016-07-25T21:22:30.000Z</time>
      </trkpt>
      <trkpt lat="48.84383" lon="2.37322">
        <ele>45.200000762939</ele>
        <time>2016-07-25T21:22:34.000Z</time>
      </trkpt>
      <trkpt lat="48.84397" lon="2.37304">
        <ele>43.799999237061</ele>
        <time>2016-07-25T21:22:39.000Z</time>
      </trkpt>
      <trkpt lat="48.84401" lon="2.37295">
        <ele>43.400001525879</ele>
        <time>2016-07-25T21:22:41.000Z</time>
      </trkpt>
      <trkpt lat="48.84409" lon="2.37284">
        <ele>43.200000762939</ele>
        <time>2016-07-25T21:22:44.000Z</time>
      </trkpt>
      <trkpt lat="48.84423" lon="2.37266">
        <ele>43.200000762939</ele>
        <time>2016-07-25T21:22:49.000Z</time>
      </trkpt>
      <trkpt lat="48.84431" lon="2.37239">
        <ele>43</ele>
        <time>2016-07-25T21:22:53.000Z</time>
      </trkpt>
      <trkpt lat="48.84443" lon="2.37228">
        <ele>42.200000762939</ele>
        <time>2016-07-25T21:22:58.000Z</time>
      </trkpt>
      <trkpt lat="48.84448" lon="2.37226">
        <ele>42.200000762939</ele>
        <time>2016-07-25T21:23:00.000Z</time>
      </trkpt>
      <trkpt lat="48.84462" lon="2.37208">
        <ele>41.200000762939</ele>
        <time>2016-07-25T21:23:06.000Z</time>
      </trkpt>
      <trkpt lat="48.84476" lon="2.37186">
        <ele>40.799999237061</ele>
        <time>2016-07-25T21:23:11.000Z</time>
      </trkpt>
      <trkpt lat="48.84487" lon="2.3716">
        <ele>41</ele>
        <time>2016-07-25T21:23:17.000Z</time>
      </trkpt>
      <trkpt lat="48.845" lon="2.37138">
        <ele>40.200000762939</ele>
        <time>2016-07-25T21:23:24.000Z</time>
      </trkpt>
      <trkpt lat="48.84515" lon="2.37121">
        <ele>40.200000762939</ele>
        <time>2016-07-25T21:23:32.000Z</time>
      </trkpt>
      <trkpt lat="48.84516" lon="2.37121">
        <ele>40.200000762939</ele>
        <time>2016-07-25T21:23:33.000Z</time>
      </trkpt>
      <trkpt lat="48.84521" lon="2.37129">
        <ele>40.599998474121</ele>
        <time>2016-07-25T21:23:52.000Z</time>
      </trkpt>
      <trkpt lat="48.84523" lon="2.37121">
        <ele>40.400001525879</ele>
        <time>2016-07-25T21:24:43.000Z</time>
      </trkpt>
      <trkpt lat="48.84539" lon="2.37104">
        <ele>39.599998474121</ele>
        <time>2016-07-25T21:24:51.000Z</time>
      </trkpt>
      <trkpt lat="48.8455" lon="2.37094">
        <ele>40</ele>
        <time>2016-07-25T21:24:54.000Z</time>
      </trkpt>
      <trkpt lat="48.84567" lon="2.37077">
        <ele>41.200000762939</ele>
        <time>2016-07-25T21:24:59.000Z</time>
      </trkpt>
      <trkpt lat="48.84586" lon="2.37061">
        <ele>41.799999237061</ele>
        <time>2016-07-25T21:25:04.000Z</time>
      </trkpt>
      <trkpt lat="48.84602" lon="2.37042">
        <ele>42.400001525879</ele>
        <time>2016-07-25T21:25:09.000Z</time>
      </trkpt>
      <trkpt lat="48.84622" lon="2.37025">
        <ele>42.200000762939</ele>
        <time>2016-07-25T21:25:14.000Z</time>
      </trkpt>
      <trkpt lat="48.84635" lon="2.37005">
        <ele>42.200000762939</ele>
        <time>2016-07-25T21:25:18.000Z</time>
      </trkpt>
      <trkpt lat="48.84654" lon="2.36988">
        <ele>42.599998474121</ele>
        <time>2016-07-25T21:25:23.000Z</time>
      </trkpt>
      <trkpt lat="48.84662" lon="2.36977">
        <ele>43</ele>
        <time>2016-07-25T21:25:26.000Z</time>
      </trkpt>
      <trkpt lat="48.84667" lon="2.36956">
        <ele>43</ele>
        <time>2016-07-25T21:25:31.000Z</time>
      </trkpt>
      <trkpt lat="48.84669" lon="2.36953">
        <ele>43</ele>
        <time>2016-07-25T21:25:32.000Z</time>
      </trkpt>
      <trkpt lat="48.84679" lon="2.36944">
        <ele>43</ele>
        <time>2016-07-25T21:25:38.000Z</time>
      </trkpt>
      <trkpt lat="48.84693" lon="2.36925">
        <ele>43</ele>
        <time>2016-07-25T21:25:43.000Z</time>
      </trkpt>
      <trkpt lat="48.84709" lon="2.36905">
        <ele>42.599998474121</ele>
        <time>2016-07-25T21:25:48.000Z</time>
      </trkpt>
      <trkpt lat="48.84724" lon="2.3688">
        <ele>41.799999237061</ele>
        <time>2016-07-25T21:25:53.000Z</time>
      </trkpt>
      <trkpt lat="48.84739" lon="2.36858">
        <ele>41</ele>
        <time>2016-07-25T21:25:57.000Z</time>
      </trkpt>
      <trkpt lat="48.84756" lon="2.36836">
        <ele>40.400001525879</ele>
        <time>2016-07-25T21:26:01.000Z</time>
      </trkpt>
      <trkpt lat="48.84769" lon="2.36816">
        <ele>39.200000762939</ele>
        <time>2016-07-25T21:26:05.000Z</time>
      </trkpt>
      <trkpt lat="48.84786" lon="2.36795">
        <ele>37</ele>
        <time>2016-07-25T21:26:09.000Z</time>
      </trkpt>
      <trkpt lat="48.84789" lon="2.36791">
        <ele>36.799999237061</ele>
        <time>2016-07-25T21:26:10.000Z</time>
      </trkpt>
      <trkpt lat="48.84797" lon="2.36778">
        <ele>35.599998474121</ele>
        <time>2016-07-25T21:26:14.000Z</time>
      </trkpt>
      <trkpt lat="48.84798" lon="2.36775">
        <ele>35.400001525879</ele>
        <time>2016-07-25T21:26:16.000Z</time>
      </trkpt>
      <trkpt lat="48.84801" lon="2.36773">
        <ele>35.400001525879</ele>
        <time>2016-07-25T21:26:20.000Z</time>
      </trkpt>
      <trkpt lat="48.84811" lon="2.36756">
        <ele>36.200000762939</ele>
        <time>2016-07-25T21:26:35.000Z</time>
      </trkpt>
      <trkpt lat="48.8483" lon="2.36759">
        <ele>37.400001525879</ele>
        <time>2016-07-25T21:26:42.000Z</time>
      </trkpt>
      <trkpt lat="48.8485" lon="2.36768">
        <ele>38.400001525879</ele>
        <time>2016-07-25T21:26:47.000Z</time>
      </trkpt>
      <trkpt lat="48.8487" lon="2.36785">
        <ele>39.400001525879</ele>
        <time>2016-07-25T21:26:52.000Z</time>
      </trkpt>
      <trkpt lat="48.84887" lon="2.36797">
        <ele>40.200000762939</ele>
        <time>2016-07-25T21:26:56.000Z</time>
      </trkpt>
      <trkpt lat="48.84896" lon="2.36801">
        <ele>40.799999237061</ele>
        <time>2016-07-25T21:27:01.000Z</time>
      </trkpt>
      <trkpt lat="48.84898" lon="2.36792">
        <ele>41</ele>
        <time>2016-07-25T21:27:11.000Z</time>
      </trkpt>
      <trkpt lat="48.84908" lon="2.36765">
        <ele>38.200000762939</ele>
        <time>2016-07-25T21:27:18.000Z</time>
      </trkpt>
      <trkpt lat="48.84916" lon="2.36737">
        <ele>35.799999237061</ele>
        <time>2016-07-25T21:27:25.000Z</time>
      </trkpt>
      <trkpt lat="48.84917" lon="2.36731">
        <ele>35.599998474121</ele>
        <time>2016-07-25T21:27:27.000Z</time>
      </trkpt>
      <trkpt lat="48.8492" lon="2.36713">
        <ele>36</ele>
        <time>2016-07-25T21:27:32.000Z</time>
      </trkpt>
      <trkpt lat="48.84928" lon="2.36688">
        <ele>37</ele>
        <time>2016-07-25T21:27:40.000Z</time>
      </trkpt>
      <trkpt lat="48.8494" lon="2.36665">
        <ele>38</ele>
        <time>2016-07-25T21:27:54.000Z</time>
      </trkpt>
      <trkpt lat="48.84941" lon="2.36658">
        <ele>38.799999237061</ele>
        <time>2016-07-25T21:27:56.000Z</time>
      </trkpt>
      <trkpt lat="48.84942" lon="2.3663">
        <ele>42</ele>
        <time>2016-07-25T21:28:03.000Z</time>
      </trkpt>
      <trkpt lat="48.84949" lon="2.36602">
        <ele>45.799999237061</ele>
        <time>2016-07-25T21:28:09.000Z</time>
      </trkpt>
      <trkpt lat="48.84956" lon="2.36571">
        <ele>45.799999237061</ele>
        <time>2016-07-25T21:28:15.000Z</time>
      </trkpt>
      <trkpt lat="48.84963" lon="2.36542">
        <ele>44</ele>
        <time>2016-07-25T21:28:20.000Z</time>
      </trkpt>
      <trkpt lat="48.84972" lon="2.36516">
        <ele>42.799999237061</ele>
        <time>2016-07-25T21:28:24.000Z</time>
      </trkpt>
      <trkpt lat="48.84977" lon="2.36486">
        <ele>42.200000762939</ele>
        <time>2016-07-25T21:28:28.000Z</time>
      </trkpt>
      <trkpt lat="48.84979" lon="2.36458">
        <ele>41</ele>
        <time>2016-07-25T21:28:33.000Z</time>
      </trkpt>
      <trkpt lat="48.84977" lon="2.36454">
        <ele>41</ele>
        <time>2016-07-25T21:28:34.000Z</time>
      </trkpt>
      <trkpt lat="48.84971" lon="2.3643">
        <ele>40.200000762939</ele>
        <time>2016-07-25T21:28:41.000Z</time>
      </trkpt>
      <trkpt lat="48.84971" lon="2.36414">
        <ele>39.599998474121</ele>
        <time>2016-07-25T21:28:45.000Z</time>
      </trkpt>
      <trkpt lat="48.8498" lon="2.36387">
        <ele>39.599998474121</ele>
        <time>2016-07-25T21:28:50.000Z</time>
      </trkpt>
      <trkpt lat="48.84994" lon="2.36367">
        <ele>38.400001525879</ele>
        <time>2016-07-25T21:28:55.000Z</time>
      </trkpt>
      <trkpt lat="48.85006" lon="2.36343">
        <ele>36.599998474121</ele>
        <time>2016-07-25T21:28:59.000Z</time>
      </trkpt>
      <trkpt lat="48.8502" lon="2.36319">
        <ele>35.200000762939</ele>
        <time>2016-07-25T21:29:03.000Z</time>
      </trkpt>
      <trkpt lat="48.85034" lon="2.36297">
        <ele>36</ele>
        <time>2016-07-25T21:29:07.000Z</time>
      </trkpt>
      <trkpt lat="48.85042" lon="2.36285">
        <ele>36.400001525879</ele>
        <time>2016-07-25T21:29:09.000Z</time>
      </trkpt>
      <trkpt lat="48.85059" lon="2.36265">
        <ele>37</ele>
        <time>2016-07-25T21:29:13.000Z</time>
      </trkpt>
      <trkpt lat="48.85074" lon="2.36247">
        <ele>37.200000762939</ele>
        <time>2016-07-25T21:29:17.000Z</time>
      </trkpt>
      <trkpt lat="48.85086" lon="2.36237">
        <ele>37.799999237061</ele>
        <time>2016-07-25T21:29:20.000Z</time>
      </trkpt>
      <trkpt lat="48.851" lon="2.36236">
        <ele>37.799999237061</ele>
        <time>2016-07-25T21:29:25.000Z</time>
      </trkpt>
      <trkpt lat="48.85101" lon="2.36238">
        <ele>37.799999237061</ele>
        <time>2016-07-25T21:29:26.000Z</time>
      </trkpt>
      <trkpt lat="48.8511" lon="2.36238">
        <ele>37.799999237061</ele>
        <time>2016-07-25T21:30:10.000Z</time>
      </trkpt>
      <trkpt lat="48.85121" lon="2.36227">
        <ele>37.799999237061</ele>
        <time>2016-07-25T21:30:15.000Z</time>
      </trkpt>
      <trkpt lat="48.85136" lon="2.36206">
        <ele>37.599998474121</ele>
        <time>2016-07-25T21:30:20.000Z</time>
      </trkpt>
      <trkpt lat="48.85152" lon="2.36187">
        <ele>38.799999237061</ele>
        <time>2016-07-25T21:30:24.000Z</time>
      </trkpt>
      <trkpt lat="48.85167" lon="2.36163">
        <ele>41</ele>
        <time>2016-07-25T21:30:29.000Z</time>
      </trkpt>
      <trkpt lat="48.85181" lon="2.36136">
        <ele>41.599998474121</ele>
        <time>2016-07-25T21:30:34.000Z</time>
      </trkpt>
      <trkpt lat="48.85194" lon="2.36117">
        <ele>41.400001525879</ele>
        <time>2016-07-25T21:30:38.000Z</time>
      </trkpt>
      <trkpt lat="48.85209" lon="2.36097">
        <ele>40.799999237061</ele>
        <time>2016-07-25T21:30:42.000Z</time>
      </trkpt>
      <trkpt lat="48.85221" lon="2.36076">
        <ele>40.200000762939</ele>
        <time>2016-07-25T21:30:46.000Z</time>
      </trkpt>
      <trkpt lat="48.8523" lon="2.36063">
        <ele>39.599998474121</ele>
        <time>2016-07-25T21:30:49.000Z</time>
      </trkpt>
      <trkpt lat="48.85242" lon="2.36042">
        <ele>39</ele>
        <time>2016-07-25T21:30:55.000Z</time>
      </trkpt>
      <trkpt lat="48.85245" lon="2.36033">
        <ele>38.799999237061</ele>
        <time>2016-07-25T21:30:57.000Z</time>
      </trkpt>
      <trkpt lat="48.85253" lon="2.36015">
        <ele>38.799999237061</ele>
        <time>2016-07-25T21:31:03.000Z</time>
      </trkpt>
      <trkpt lat="48.85265" lon="2.3599">
        <ele>39.400001525879</ele>
        <time>2016-07-25T21:31:11.000Z</time>
      </trkpt>
      <trkpt lat="48.85274" lon="2.35962">
        <ele>38.200000762939</ele>
        <time>2016-07-25T21:31:15.000Z</time>
      </trkpt>
      <trkpt lat="48.85284" lon="2.35938">
        <ele>37.599998474121</ele>
        <time>2016-07-25T21:31:19.000Z</time>
      </trkpt>
      <trkpt lat="48.85297" lon="2.35909">
        <ele>37</ele>
        <time>2016-07-25T21:31:24.000Z</time>
      </trkpt>
      <trkpt lat="48.85309" lon="2.35882">
        <ele>36.599998474121</ele>
        <time>2016-07-25T21:31:29.000Z</time>
      </trkpt>
      <trkpt lat="48.85319" lon="2.35857">
        <ele>36.599998474121</ele>
        <time>2016-07-25T21:31:34.000Z</time>
      </trkpt>
      <trkpt lat="48.85328" lon="2.3583">
        <ele>36.599998474121</ele>
        <time>2016-07-25T21:31:40.000Z</time>
      </trkpt>
      <trkpt lat="48.85339" lon="2.35804">
        <ele>37.400001525879</ele>
        <time>2016-07-25T21:31:46.000Z</time>
      </trkpt>
      <trkpt lat="48.85348" lon="2.35777">
        <ele>37.599998474121</ele>
        <time>2016-07-25T21:31:53.000Z</time>
      </trkpt>
      <trkpt lat="48.85355" lon="2.3575">
        <ele>38</ele>
        <time>2016-07-25T21:31:58.000Z</time>
      </trkpt>
      <trkpt lat="48.85365" lon="2.35724">
        <ele>38.599998474121</ele>
        <time>2016-07-25T21:32:02.000Z</time>
      </trkpt>
      <trkpt lat="48.85375" lon="2.357">
        <ele>39</ele>
        <time>2016-07-25T21:32:06.000Z</time>
      </trkpt>
      <trkpt lat="48.85386" lon="2.35675">
        <ele>39.400001525879</ele>
        <time>2016-07-25T21:32:11.000Z</time>
      </trkpt>
      <trkpt lat="48.85393" lon="2.35649">
        <ele>39</ele>
        <time>2016-07-25T21:32:15.000Z</time>
      </trkpt>
      <trkpt lat="48.85403" lon="2.35623">
        <ele>38.599998474121</ele>
        <time>2016-07-25T21:32:19.000Z</time>
      </trkpt>
      <trkpt lat="48.85415" lon="2.35597">
        <ele>38</ele>
        <time>2016-07-25T21:32:23.000Z</time>
      </trkpt>
      <trkpt lat="48.85423" lon="2.35569">
        <ele>38.599998474121</ele>
        <time>2016-07-25T21:32:27.000Z</time>
      </trkpt>
      <trkpt lat="48.85432" lon="2.35544">
        <ele>37.400001525879</ele>
        <time>2016-07-25T21:32:31.000Z</time>
      </trkpt>
      <trkpt lat="48.85441" lon="2.35519">
        <ele>35.799999237061</ele>
        <time>2016-07-25T21:32:35.000Z</time>
      </trkpt>
      <trkpt lat="48.85448" lon="2.35493">
        <ele>35.200000762939</ele>
        <time>2016-07-25T21:32:39.000Z</time>
      </trkpt>
      <trkpt lat="48.8545" lon="2.35486">
        <ele>35</ele>
        <time>2016-07-25T21:32:40.000Z</time>
      </trkpt>
      <trkpt lat="48.85462" lon="2.35457">
        <ele>34.200000762939</ele>
        <time>2016-07-25T21:32:44.000Z</time>
      </trkpt>
      <trkpt lat="48.85471" lon="2.35426">
        <ele>34.799999237061</ele>
        <time>2016-07-25T21:32:48.000Z</time>
      </trkpt>
      <trkpt lat="48.85481" lon="2.35397">
        <ele>35.200000762939</ele>
        <time>2016-07-25T21:32:52.000Z</time>
      </trkpt>
      <trkpt lat="48.85489" lon="2.35369">
        <ele>34.400001525879</ele>
        <time>2016-07-25T21:32:56.000Z</time>
      </trkpt>
      <trkpt lat="48.855" lon="2.35341">
        <ele>34.400001525879</ele>
        <time>2016-07-25T21:33:01.000Z</time>
      </trkpt>
      <trkpt lat="48.8551" lon="2.35314">
        <ele>34.599998474121</ele>
        <time>2016-07-25T21:33:06.000Z</time>
      </trkpt>
      <trkpt lat="48.85514" lon="2.35303">
        <ele>33.599998474121</ele>
        <time>2016-07-25T21:33:08.000Z</time>
      </trkpt>
      <trkpt lat="48.8553" lon="2.35292">
        <ele>33.400001525879</ele>
        <time>2016-07-25T21:33:14.000Z</time>
      </trkpt>
      <trkpt lat="48.85536" lon="2.35291">
        <ele>34</ele>
        <time>2016-07-25T21:33:16.000Z</time>
      </trkpt>
      <trkpt lat="48.85544" lon="2.35289">
        <ele>34.599998474121</ele>
        <time>2016-07-25T21:33:18.000Z</time>
      </trkpt>
      <trkpt lat="48.85554" lon="2.35292">
        <ele>35.799999237061</ele>
        <time>2016-07-25T21:33:21.000Z</time>
      </trkpt>
      <trkpt lat="48.85574" lon="2.35302">
        <ele>38.799999237061</ele>
        <time>2016-07-25T21:33:26.000Z</time>
      </trkpt>
      <trkpt lat="48.8559" lon="2.35318">
        <ele>42</ele>
        <time>2016-07-25T21:33:30.000Z</time>
      </trkpt>
      <trkpt lat="48.85606" lon="2.35328">
        <ele>44.799999237061</ele>
        <time>2016-07-25T21:33:34.000Z</time>
      </trkpt>
      <trkpt lat="48.85623" lon="2.35337">
        <ele>45.400001525879</ele>
        <time>2016-07-25T21:33:39.000Z</time>
      </trkpt>
      <trkpt lat="48.85643" lon="2.35346">
        <ele>45.799999237061</ele>
        <time>2016-07-25T21:33:44.000Z</time>
      </trkpt>
      <trkpt lat="48.85664" lon="2.35354">
        <ele>46.200000762939</ele>
        <time>2016-07-25T21:33:48.000Z</time>
      </trkpt>
      <trkpt lat="48.85682" lon="2.3536">
        <ele>46.599998474121</ele>
        <time>2016-07-25T21:33:52.000Z</time>
      </trkpt>
      <trkpt lat="48.85692" lon="2.35366">
        <ele>46.799999237061</ele>
        <time>2016-07-25T21:33:55.000Z</time>
      </trkpt>
      <trkpt lat="48.85704" lon="2.3537">
        <ele>47.599998474121</ele>
        <time>2016-07-25T21:34:34.000Z</time>
      </trkpt>
      <trkpt lat="48.85712" lon="2.35343">
        <ele>49</ele>
        <time>2016-07-25T21:34:42.000Z</time>
      </trkpt>
      <trkpt lat="48.85719" lon="2.35316">
        <ele>49.200000762939</ele>
        <time>2016-07-25T21:34:47.000Z</time>
      </trkpt>
      <trkpt lat="48.85724" lon="2.35287">
        <ele>49.200000762939</ele>
        <time>2016-07-25T21:34:52.000Z</time>
      </trkpt>
      <trkpt lat="48.85734" lon="2.3526">
        <ele>47.400001525879</ele>
        <time>2016-07-25T21:34:57.000Z</time>
      </trkpt>
      <trkpt lat="48.85729" lon="2.35223">
        <ele>44.200000762939</ele>
        <time>2016-07-25T21:35:02.000Z</time>
      </trkpt>
      <trkpt lat="48.8573" lon="2.35195">
        <ele>41.799999237061</ele>
        <time>2016-07-25T21:35:07.000Z</time>
      </trkpt>
      <trkpt lat="48.85737" lon="2.35166">
        <ele>40.200000762939</ele>
        <time>2016-07-25T21:35:14.000Z</time>
      </trkpt>
      <trkpt lat="48.85747" lon="2.35151">
        <ele>40</ele>
        <time>2016-07-25T21:35:23.000Z</time>
      </trkpt>
      <trkpt lat="48.85749" lon="2.3515">
        <ele>40.200000762939</ele>
        <time>2016-07-25T21:35:26.000Z</time>
      </trkpt>
      <trkpt lat="48.85756" lon="2.35127">
        <ele>41.200000762939</ele>
        <time>2016-07-25T21:35:33.000Z</time>
      </trkpt>
      <trkpt lat="48.85765" lon="2.35101">
        <ele>43.200000762939</ele>
        <time>2016-07-25T21:35:38.000Z</time>
      </trkpt>
      <trkpt lat="48.85775" lon="2.35074">
        <ele>45.400001525879</ele>
        <time>2016-07-25T21:35:43.000Z</time>
      </trkpt>
      <trkpt lat="48.85785" lon="2.35047">
        <ele>46.799999237061</ele>
        <time>2016-07-25T21:35:48.000Z</time>
      </trkpt>
      <trkpt lat="48.85795" lon="2.35024">
        <ele>48.200000762939</ele>
        <time>2016-07-25T21:35:53.000Z</time>
      </trkpt>
      <trkpt lat="48.85805" lon="2.35">
        <ele>47.599998474121</ele>
        <time>2016-07-25T21:35:59.000Z</time>
      </trkpt>
      <trkpt lat="48.85814" lon="2.34969">
        <ele>45.200000762939</ele>
        <time>2016-07-25T21:36:05.000Z</time>
      </trkpt>
      <trkpt lat="48.85822" lon="2.34943">
        <ele>44.799999237061</ele>
        <time>2016-07-25T21:36:09.000Z</time>
      </trkpt>
      <trkpt lat="48.85833" lon="2.34917">
        <ele>46</ele>
        <time>2016-07-25T21:36:13.000Z</time>
      </trkpt>
      <trkpt lat="48.85839" lon="2.34887">
        <ele>46</ele>
        <time>2016-07-25T21:36:17.000Z</time>
      </trkpt>
      <trkpt lat="48.85846" lon="2.3486">
        <ele>46.799999237061</ele>
        <time>2016-07-25T21:36:21.000Z</time>
      </trkpt>
      <trkpt lat="48.85856" lon="2.34832">
        <ele>48</ele>
        <time>2016-07-25T21:36:26.000Z</time>
      </trkpt>
      <trkpt lat="48.85864" lon="2.34803">
        <ele>47.599998474121</ele>
        <time>2016-07-25T21:36:30.000Z</time>
      </trkpt>
      <trkpt lat="48.85874" lon="2.34777">
        <ele>47.400001525879</ele>
        <time>2016-07-25T21:36:34.000Z</time>
      </trkpt>
      <trkpt lat="48.85883" lon="2.34756">
        <ele>46.400001525879</ele>
        <time>2016-07-25T21:36:39.000Z</time>
      </trkpt>
      <trkpt lat="48.85898" lon="2.3474">
        <ele>45.599998474121</ele>
        <time>2016-07-25T21:36:45.000Z</time>
      </trkpt>
      <trkpt lat="48.85914" lon="2.34721">
        <ele>45.599998474121</ele>
        <time>2016-07-25T21:36:51.000Z</time>
      </trkpt>
      <trkpt lat="48.8593" lon="2.34706">
        <ele>45.599998474121</ele>
        <time>2016-07-25T21:36:57.000Z</time>
      </trkpt>
      <trkpt lat="48.85944" lon="2.34703">
        <ele>45.599998474121</ele>
        <time>2016-07-25T21:37:05.000Z</time>
      </trkpt>
      <trkpt lat="48.85933" lon="2.34714">
        <ele>45.400001525879</ele>
        <time>2016-07-25T21:37:09.000Z</time>
      </trkpt>
      <trkpt lat="48.85933" lon="2.34717">
        <ele>45.200000762939</ele>
        <time>2016-07-25T21:37:21.000Z</time>
      </trkpt>
      <trkpt lat="48.85939" lon="2.34714">
        <ele>45.200000762939</ele>
        <time>2016-07-25T21:37:27.000Z</time>
      </trkpt>
      <trkpt lat="48.85943" lon="2.34715">
        <ele>45.200000762939</ele>
        <time>2016-07-25T21:37:28.000Z</time>
      </trkpt>
    </trkseg>
  </trk>
</gpx>